[[{"header":{"parameterUnit":"m.s-1","parameterCategory":1,"la1":31.0,"la2":29.5877,"lo1":-88.7671,"lo2":-86.6584,"dx":0.0162,"dy":0.0185,"nx":115,"ny":88,"refTime":"2022-11-21T06:00:00:Z","depth":0,"parameterNumber":2,"parameterNumberName":"U-component_of_WINDS"},"data":[0.0,0.0,0.0,0.0,0.0,0.0,0.0,0.0,0.0,0.0,0.0,0.0,0.0,0.0,0.0,0.0,0.0,0.0,0.0,0.0,0.0,0.0,0.0,0.0,0.0,0.0,0.0,0.0,0.0,0.0,0.0,0.0,0.0,0.0,0.0,0.0,0.0,0.0,0.0,0.0,0.0,0.0,0.0,0.0,0.0,0.0,0.0,0.0,0.0,0.0,0.0,0.0,0.0,0.0,0.0,0.0,0.0,0.0,0.0,0.0,0.0,0.0,0.0,0.0,0.0,0.0,0.0,0.0,0.0,0.0,0.0,0.0,0.0,0.0,0.0,0.0,0.0,0.0,0.0,0.0,0.0,0.0,0.0,0.0,0.0,0.0,0.0,0.0,0.0,0.0,0.0,0.0,0.0,0.0,0.0,0.0,0.0,0.0,0.0,0.0,0.0,0.0,0.0,0.0,0.0,0.0,0.0,0.0,0.0,0.0,0.0,0.0,0.0,0.0,0.0,0.0,0.0,0.0,0.0,0.0,0.0,0.0,0.0,0.0,0.0,0.0,0.0,0.0,0.0,0.0,0.0,0.0,0.0,0.0,0.0,0.0,0.0,0.0,0.0,0.0,0.0,0.0,0.0,0.0,0.0,0.0,0.0,0.0,0.0,0.0,0.0,0.0,0.0,0.0,0.0,0.0,0.0,0.0,0.0,0.0,0.0,0.0,0.0,0.0,0.0,0.0,0.0,0.0,0.0,0.0,0.0,0.0,0.0,0.0,0.0,0.0,0.0,0.0,0.0,0.0,0.0,0.0,0.0,0.0,0.0,0.0,0.0,0.0,0.0,0.0,0.0,0.0,0.0,0.0,0.0,0.0,0.0,0.0,0.0,0.0,0.0,0.0,0.0,0.0,0.0,0.0,0.0,0.0,0.0,0.0,0.0,0.0,0.0,0.0,0.0,0.0,0.0,0.0,0.0,0.0,0.0,0.0,0.0,0.0,0.0,0.0,0.0,0.0,0.0,0.0,0.0,0.0,0.0,0.0,0.0,0.0,0.0,0.0,0.0,0.0,0.0,0.0,0.0,0.0,0.0,0.0,0.0,0.0,0.0,0.0,0.0,0.0,0.0,0.0,0.0,0.0,0.0,0.0,0.0,0.0,0.0,0.0,0.0,0.0,0.0,0.0,0.0,0.0,0.0,0.0,0.0,0.0,0.0,0.0,0.0,0.0,0.0,0.0,0.0,0.0,0.0,0.0,0.0,0.0,0.0,0.0,0.0,0.0,0.0,0.0,0.0,0.0,0.0,0.0,0.0,0.0,0.0,0.0,0.0,0.0,0.0,0.0,0.0,0.0,0.0,0.0,0.0,0.0,0.0,0.0,0.0,0.0,0.0,0.0,0.0,0.0,0.0,0.0,0.0,0.0,0.0,0.0,0.0,0.0,0.0,0.0,0.0,0.0,0.0,0.0,0.0,0.0,0.0,0.0,0.0,0.0,0.0,0.0,0.0,0.0,0.0,0.0,0.0,0.0,0.0,0.0,0.0,0.0,0.0,0.0,0.0,0.0,0.0,0.0,0.0,0.0,0.0,0.0,0.0,0.0,0.0,0.0,0.0,0.0,0.0,0.0,0.0,0.0,0.0,0.0,0.0,0.0,0.0,0.0,0.0,0.0,0.0,0.0,0.0,0.0,0.0,0.0,0.0,0.0,0.0,0.0,0.0,0.0,0.0,0.0,0.0,0.0,0.0,0.0,0.0,0.0,0.0,0.0,0.0,0.0,0.0,0.0,0.0,0.0,0.0,0.0,0.0,0.0,0.0,0.0,0.0,0.0,0.0,0.0,0.0,0.0,0.0,0.0,0.0,0.0,0.0,0.0,0.0,0.0,0.0,0.0,0.0,0.0,0.0,0.0,0.0,0.0,0.0,0.0,0.0,0.0,0.0,0.0,0.0,0.0,0.0,0.0,0.0,0.0,0.0,0.0,0.0,0.0,0.0,0.0,0.0,0.0,0.0,0.0,0.0,0.0,0.0,0.0,0.0,0.0,0.0,0.0,0.0,0.0,0.0,0.0,0.0,0.0,0.0,0.0,0.0,0.0,0.0,0.0,0.0,0.0,0.0,0.0,0.0,0.0,0.0,0.0,0.0,0.0,0.0,0.0,0.0,0.0,0.0,0.0,0.0,0.0,0.0,0.0,0.0,0.0,0.0,0.0,0.0,0.0,0.0,0.0,0.0,0.0,0.0,0.0,0.0,0.0,0.0,0.0,0.0,0.0,0.0,0.0,0.0,0.0,0.0,0.0,0.0,0.0,0.0,0.0,0.0,0.0,0.0,0.0,0.0,0.0,0.0,0.0,0.0,0.0,0.0,0.0,0.0,0.0,0.0,0.0,0.0,0.0,0.0,0.0,0.0,0.0,0.0,0.0,0.0,0.0,0.0,0.0,0.0,0.0,0.0,0.0,0.0,0.0,0.0,0.0,0.0,0.0,0.0,0.0,0.0,0.0,0.0,0.0,0.0,0.0,0.0,0.0,0.0,0.0,0.0,0.0,0.0,0.0,0.0,0.0,0.0,0.0,0.0,0.0,0.0,0.0,0.0,0.0,0.0,0.0,0.0,0.0,0.0,0.0,0.0,0.0,0.0,0.0,0.0,0.0,0.0,0.0,0.0,0.0,0.0,0.0,0.0,0.0,0.0,0.0,0.0,0.0,0.0,0.0,0.0,0.0,0.0,0.0,0.0,0.0,0.0,0.0,0.0,0.0,0.0,0.0,0.0,0.0,0.0,0.0,0.0,0.0,0.0,0.0,0.0,0.0,0.0,0.0,0.0,0.0,0.0,0.0,0.0,0.0,0.0,0.0,0.0,0.0,0.0,0.0,0.0,0.0,0.0,0.0,0.0,0.0,0.0,0.0,0.0,0.0,0.0,0.0,0.0,0.0,0.0,0.0,0.0,0.0,0.0,0.0,0.0,0.0,0.0,0.0,0.0,0.0,0.0,0.0,0.0,0.0,0.0,0.0,0.0,0.0,0.0,0.0,0.0,0.0,0.0,0.0,0.0,0.0,0.0,0.0,0.0,0.0,0.0,0.0,0.0,0.0,0.0,0.0,0.0,0.0,0.0,0.0,0.0,0.0,0.0,0.0,0.0,0.0,0.0,0.0,0.0,0.0,0.0,0.0,0.0,0.0,0.0,0.0,0.0,0.0,0.0,0.0,0.0,0.0,0.0,0.0,0.0,0.0,0.0,0.0,0.0,0.0,0.0,0.0,0.0,0.0,0.0,0.0,0.0,0.0,0.0,0.0,0.0,0.0,0.0,0.0,0.0,0.0,0.0,0.0,0.0,0.0,0.0,0.0,0.0,0.0,0.0,0.0,0.0,0.0,0.0,0.0,0.0,0.0,0.0,0.0,0.0,0.0,0.0,0.0,0.0,0.0,0.0,0.0,0.0,0.0,0.0,0.0,0.0,0.0,0.0,0.0,0.0,0.0,0.0,0.0,0.0,0.0,0.0,0.0,0.0,0.0,0.0,0.0,0.0,0.0,0.0,0.0,0.0,0.0,0.0,0.0,0.0,0.0,0.0,0.0,0.0,0.0,0.0,0.0,0.0,0.0,0.0,0.0,0.0,0.0,0.0,0.0,0.0,0.0,0.0,0.0,0.0,0.0,0.0,0.0,0.0,0.0,0.0,0.0,0.0,0.0,0.0,0.0,0.0,0.0,0.0,0.0,0.0,0.0,0.0,0.0,0.0,0.0,0.0,0.0,0.0,0.0,0.0,0.0,0.0,0.0,0.0,0.0,0.0,0.0,0.0,0.0,0.0,0.0,0.0,0.0,0.0,0.0,0.0,0.0,0.0,0.0,0.0,0.0,0.0,0.0,0.0,0.0,0.0,0.0,0.0,0.0,0.0,0.0,0.0,0.0,0.0,0.0,0.0,0.0,0.0,0.0,0.0,0.0,0.0,0.0,0.0,0.0,0.0,0.0,0.0,0.0,0.0,0.0,0.0,0.0,0.0,0.0,0.0,0.0,0.0,0.0,0.0,0.0,0.0,0.0,0.0,0.0,0.0,0.0,0.0,0.0,0.0,0.0,0.0,0.0,0.0,0.0,0.0,0.0,0.0,0.0,0.0,0.0,0.0,0.0,0.0,0.0,0.0,0.0,0.0,0.0,0.0,0.0,0.0,0.0,0.0,0.0,0.0,0.0,0.0,0.0,0.0,0.0,0.0,0.0,0.0,0.0,0.0,0.0,0.0,0.0,0.0,0.0,2.0086,0.0,0.0,0.0,1.9919,0.0,0.0,0.0,0.0,0.0,0.0,0.0,0.0,0.0,0.0,0.0,0.0,0.0,0.0,0.0,0.0,0.0,0.0,0.0,0.0,0.0,0.0,0.0,0.0,0.0,0.0,0.0,0.0,0.0,0.0,0.0,0.0,0.0,0.0,0.0,0.0,0.0,0.0,0.0,0.0,0.0,0.0,0.0,0.0,0.0,0.0,0.0,0.0,0.0,0.0,0.0,0.0,0.0,0.0,0.0,0.0,0.0,0.0,0.0,0.0,0.0,0.0,0.0,0.0,0.0,0.0,0.0,0.0,0.0,0.0,0.0,0.0,0.0,0.0,0.0,0.0,0.0,0.0,0.0,0.0,0.0,0.0,0.0,0.0,0.0,0.0,0.0,0.0,0.0,0.0,0.0,0.0,0.0,0.0,0.0,0.0,0.0,0.0,0.0,0.0,0.0,0.0,0.0,0.0,0.0,0.0,0.0,0.0,0.0,0.0,2.001,1.9961,1.9945,1.9887,1.9781,0.0,0.0,0.0,0.0,0.0,0.0,0.0,0.0,0.0,0.0,0.0,0.0,0.0,0.0,0.0,0.0,0.0,0.0,0.0,0.0,0.0,0.0,0.0,0.0,0.0,0.0,0.0,0.0,0.0,0.0,0.0,0.0,0.0,0.0,0.0,0.0,0.0,0.0,0.0,0.0,0.0,0.0,0.0,0.0,0.0,0.0,0.0,0.0,0.0,0.0,0.0,0.0,0.0,0.0,0.0,0.0,0.0,0.0,0.0,0.0,0.0,0.0,0.0,0.0,0.0,0.0,0.0,0.0,0.0,0.0,0.0,0.0,0.0,0.0,0.0,0.0,0.0,0.0,0.0,0.0,0.0,0.0,0.0,0.0,0.0,0.0,0.0,0.0,0.0,0.0,0.0,0.0,0.0,0.0,0.0,0.0,0.0,0.0,0.0,0.0,0.0,0.0,0.0,0.0,0.0,0.0,0.0,0.0,0.0,0.0,0.0,0.0,2.0313,2.0245,1.9948,0.0,0.0,0.0,0.0,0.0,0.0,0.0,0.0,0.0,0.0,0.0,0.0,0.0,0.0,0.0,0.0,0.0,0.0,0.0,0.0,0.0,0.0,0.0,0.0,0.0,0.0,0.0,0.0,0.0,0.0,0.0,0.0,0.0,0.0,0.0,0.0,0.0,0.0,0.0,0.0,0.0,0.0,0.0,0.0,0.0,0.0,0.0,0.0,0.0,0.0,0.0,0.0,0.0,0.0,0.0,0.0,0.0,0.0,0.0,0.0,0.0,0.0,0.0,0.0,0.0,0.0,0.0,0.0,0.0,0.0,0.0,0.0,0.0,0.0,0.0,0.0,0.0,0.0,0.0,0.0,0.0,0.0,0.0,0.0,0.0,0.0,0.0,0.0,0.0,0.0,0.0,0.0,0.0,0.0,0.0,0.0,0.0,0.0,0.0,0.0,0.0,0.0,0.0,0.0,0.0,0.0,0.0,0.0,0.0,0.0,2.0948,2.0912,2.1525,0.0,2.0652,0.0,0.0,0.0,0.0,0.0,0.0,0.0,0.0,0.0,0.0,0.0,0.0,0.0,0.0,0.0,0.0,0.0,0.0,0.0,0.0,0.0,0.0,0.0,0.0,0.0,0.0,0.0,0.0,0.0,0.0,0.0,0.0,0.0,0.0,0.0,0.0,0.0,0.0,0.0,0.0,0.0,0.0,0.0,0.0,0.0,0.0,0.0,0.0,0.0,0.0,0.0,0.0,0.0,0.0,0.0,0.0,0.0,0.0,0.0,0.0,0.0,0.0,0.0,0.0,0.0,0.0,0.0,0.0,0.0,0.0,0.0,0.0,0.0,0.0,0.0,0.0,0.0,0.0,0.0,0.0,0.0,0.0,0.0,0.0,0.0,0.0,0.0,0.0,0.0,0.0,0.0,0.0,0.0,0.0,0.0,0.0,0.0,0.0,0.0,0.0,0.0,0.0,0.0,0.0,0.0,0.0,0.0,0.0,0.0,0.0,2.1067,2.092,2.1142,2.1074,0.0,0.0,0.0,0.0,0.0,0.0,0.0,0.0,0.0,0.0,0.0,0.0,0.0,0.0,0.0,0.0,0.0,0.0,0.0,0.0,0.0,0.0,0.0,0.0,0.0,0.0,0.0,0.0,0.0,0.0,0.0,0.0,0.0,0.0,0.0,0.0,0.0,0.0,0.0,0.0,0.0,0.0,0.0,0.0,0.0,0.0,0.0,0.0,0.0,0.0,0.0,0.0,0.0,0.0,0.0,0.0,0.0,0.0,0.0,0.0,0.0,0.0,0.0,0.0,0.0,0.0,0.0,0.0,0.0,0.0,0.0,0.0,0.0,0.0,0.0,0.0,0.0,0.0,0.0,0.0,0.0,0.0,0.0,0.0,0.0,0.0,0.0,0.0,0.0,0.0,0.0,0.0,0.0,0.0,0.0,0.0,0.0,0.0,0.0,0.0,0.0,0.0,0.0,0.0,0.0,0.0,0.0,0.0,0.0,0.0,2.0995,2.1553,2.1798,2.1312,2.0992,2.0878,0.0,0.0,0.0,0.0,0.0,0.0,0.0,0.0,0.0,0.0,0.0,0.0,0.0,0.0,0.0,0.0,0.0,0.0,0.0,0.0,0.0,0.0,0.0,0.0,0.0,0.0,0.0,0.0,0.0,0.0,0.0,0.0,0.0,0.0,0.0,0.0,0.0,0.0,0.0,0.0,0.0,0.0,0.0,0.0,0.0,0.0,0.0,0.0,0.0,0.0,0.0,0.0,0.0,0.0,0.0,0.0,0.0,0.0,0.0,0.0,0.0,0.0,0.0,0.0,0.0,0.0,0.0,0.0,0.0,0.0,0.0,0.0,0.0,0.0,0.0,0.0,0.0,0.0,0.0,0.0,0.0,0.0,0.0,0.0,0.0,0.0,0.0,0.0,0.0,0.0,0.0,0.0,0.0,0.0,0.0,0.0,0.0,0.0,0.0,0.0,0.0,0.0,0.0,0.0,0.0,0.0,0.0,0.0,2.1134,2.1899,2.2918,2.4203,2.2711,2.1778,0.0,0.0,0.0,0.0,0.0,0.0,0.0,0.0,0.0,0.0,0.0,0.0,0.0,0.0,0.0,0.0,0.0,0.0,0.0,0.0,0.0,0.0,0.0,0.0,0.0,0.0,0.0,0.0,0.0,0.0,0.0,0.0,0.0,0.0,0.0,0.0,0.0,0.0,0.0,0.0,0.0,0.0,0.0,0.0,0.0,0.0,0.0,0.0,0.0,0.0,0.0,0.0,0.0,0.0,0.0,0.0,0.0,0.0,0.0,0.0,0.0,0.0,0.0,0.0,0.0,0.0,0.0,0.0,0.0,0.0,0.0,0.0,0.0,0.0,0.0,0.0,0.0,0.0,0.0,0.0,0.0,0.0,0.0,0.0,0.0,0.0,0.0,0.0,0.0,0.0,0.0,0.0,0.0,0.0,0.0,0.0,0.0,0.0,0.0,0.0,0.0,0.0,0.0,0.0,0.0,0.0,0.0,0.0,0.0,2.2041,2.4227,2.5821,2.6655,2.4621,2.3146,0.0,0.0,0.0,0.0,0.0,0.0,0.0,0.0,0.0,0.0,0.0,0.0,0.0,0.0,0.0,0.0,0.0,0.0,0.0,0.0,0.0,0.0,0.0,0.0,0.0,0.0,0.0,0.0,0.0,0.0,0.0,0.0,0.0,0.0,0.0,0.0,0.0,0.0,0.0,0.0,0.0,0.0,0.0,0.0,0.0,0.0,0.0,0.0,0.0,0.0,0.0,0.0,0.0,0.0,0.0,0.0,0.0,0.0,0.0,0.0,0.0,0.0,0.0,0.0,0.0,0.0,0.0,0.0,0.0,0.0,0.0,0.0,0.0,0.0,0.0,0.0,0.0,0.0,0.0,0.0,0.0,0.0,0.0,0.0,0.0,0.0,0.0,0.0,0.0,0.0,0.0,0.0,0.0,0.0,0.0,0.0,0.0,0.0,0.0,0.0,0.0,0.0,0.0,0.0,0.0,0.0,0.0,0.0,0.0,2.4393,2.7503,2.9292,2.9582,2.7429,2.5407,0.0,0.0,0.0,0.0,0.0,0.0,0.0,0.0,0.0,0.0,0.0,0.0,0.0,0.0,0.0,0.0,0.0,0.0,0.0,0.0,0.0,0.0,0.0,0.0,0.0,0.0,0.0,0.0,0.0,0.0,0.0,0.0,0.0,0.0,0.0,0.0,0.0,0.0,0.0,0.0,0.0,0.0,0.0,0.0,0.0,0.0,0.0,0.0,0.0,0.0,0.0,0.0,0.0,0.0,0.0,0.0,0.0,0.0,0.0,0.0,0.0,0.0,0.0,0.0,0.0,0.0,0.0,0.0,0.0,0.0,0.0,0.0,0.0,0.0,0.0,0.0,0.0,0.0,0.0,0.0,0.0,0.0,0.0,0.0,0.0,0.0,0.0,0.0,0.0,0.0,0.0,0.0,0.0,0.0,0.0,0.0,0.0,0.0,0.0,0.0,0.0,0.0,0.0,0.0,0.0,0.0,0.0,0.0,2.3814,2.8445,3.1767,3.3418,3.3076,3.1392,2.8775,0.0,0.0,0.0,0.0,0.0,0.0,0.0,0.0,0.0,0.0,0.0,0.0,0.0,0.0,0.0,0.0,0.0,0.0,0.0,0.0,0.0,0.0,0.0,0.0,0.0,0.0,0.0,0.0,0.0,0.0,0.0,0.0,0.0,0.0,0.0,0.0,0.0,0.0,0.0,0.0,0.0,0.0,0.0,0.0,0.0,0.0,0.0,0.0,0.0,0.0,0.0,0.0,0.0,0.0,0.0,0.0,0.0,0.0,0.0,0.0,0.0,0.0,0.0,0.0,0.0,0.0,0.0,0.0,0.0,0.0,0.0,0.0,0.0,0.0,0.0,0.0,0.0,0.0,0.0,0.0,0.0,0.0,0.0,0.0,0.0,0.0,0.0,0.0,0.0,0.0,0.0,0.0,0.0,0.0,0.0,0.0,0.0,0.0,0.0,0.0,0.0,0.0,0.0,0.0,0.0,0.0,0.0,0.0,0.0,3.3498,3.7698,3.9807,3.946,3.6777,3.3073,0.0,0.0,0.0,0.0,0.0,0.0,0.0,0.0,0.0,0.0,0.0,0.0,0.0,0.0,0.0,0.0,0.0,0.0,0.0,0.0,0.0,0.0,0.0,0.0,0.0,0.0,0.0,0.0,0.0,0.0,0.0,0.0,0.0,0.0,0.0,0.0,0.0,0.0,0.0,0.0,0.0,0.0,0.0,0.0,0.0,0.0,0.0,0.0,0.0,0.0,0.0,0.0,0.0,0.0,0.0,0.0,0.0,0.0,0.0,0.0,0.0,0.0,0.0,0.0,0.0,0.0,0.0,0.0,0.0,0.0,0.0,0.0,0.0,0.0,0.0,0.0,0.0,0.0,0.0,0.0,0.0,0.0,0.0,0.0,0.0,0.0,0.0,0.0,0.0,0.0,0.0,0.0,0.0,0.0,0.0,0.0,0.0,0.0,0.0,0.0,0.0,0.0,0.0,0.0,0.0,0.0,0.0,0.0,0.0,4.1516,4.452,4.5782,4.5159,4.2173,3.758,3.1266,0.0,0.0,0.0,0.0,0.0,0.0,0.0,0.0,0.0,0.0,0.0,0.0,0.0,0.0,0.0,0.0,0.0,0.0,0.0,0.0,0.0,0.0,0.0,0.0,0.0,0.0,0.0,0.0,0.0,0.0,0.0,0.0,0.0,0.0,0.0,0.0,0.0,0.0,0.0,0.0,0.0,0.0,0.0,0.0,0.0,0.0,0.0,0.0,0.0,0.0,0.0,0.0,0.0,0.0,0.0,0.0,0.0,0.0,0.0,0.0,0.0,0.0,0.0,0.0,0.0,0.0,0.0,0.0,0.0,0.0,0.0,0.0,0.0,0.0,0.0,0.0,0.0,0.0,0.0,0.0,0.0,0.0,0.0,0.0,0.0,0.0,0.0,0.0,0.0,0.0,0.0,0.0,0.0,0.0,0.0,0.0,0.0,0.0,0.0,0.0,0.0,0.0,0.0,0.0,0.0,0.0,0.0,0.0,5.1399,5.1908,5.1473,5.0027,4.7421,4.2104,0.0,0.0,0.0,0.0,0.0,0.0,0.0,0.0,0.0,0.0,0.0,0.0,0.0,0.0,0.0,0.0,0.0,0.0,0.0,0.0,0.0,0.0,0.0,0.0,0.0,0.0,0.0,0.0,0.0,0.0,0.0,0.0,0.0,0.0,0.0,0.0,0.0,0.0,0.0,0.0,0.0,0.0,0.0,0.0,0.0,0.0,0.0,0.0,0.0,0.0,0.0,0.0,0.0,0.0,0.0,0.0,0.0,0.0,0.0,0.0,0.0,0.0,0.0,0.0,0.0,0.0,0.0,0.0,0.0,0.0,0.0,0.0,0.0,0.0,0.0,0.0,0.0,0.0,0.0,0.0,0.0,0.0,0.0,0.0,0.0,0.0,0.0,0.0,0.0,0.0,0.0,0.0,0.0,0.0,0.0,0.0,0.0,0.0,0.0,0.0,0.0,0.0,0.0,0.0,0.0,0.0,0.0,0.0,0.0,5.3829,5.7976,5.8442,5.5099,5.1682,4.5735,0.0,0.0,0.0,0.0,0.0,0.0,0.0,0.0,0.0,0.0,0.0,0.0,0.0,0.0,0.0,0.0,0.0,0.0,0.0,0.0,0.0,0.0,0.0,0.0,0.0,0.0,0.0,0.0,0.0,0.0,0.0,0.0,0.0,0.0,0.0,0.0,0.0,0.0,0.0,0.0,0.0,0.0,0.0,0.0,0.0,0.0,0.0,0.0,0.0,0.0,0.0,0.0,0.0,0.0,0.0,0.0,0.0,0.0,0.0,0.0,0.0,0.0,0.0,0.0,0.0,0.0,0.0,0.0,0.0,0.0,0.0,0.0,0.0,0.0,0.0,0.0,0.0,0.0,0.0,0.0,0.0,0.0,0.0,0.0,0.0,0.0,0.0,0.0,0.0,0.0,0.0,0.0,0.0,0.0,0.0,0.0,0.0,0.0,0.0,0.0,0.0,0.0,0.0,0.0,0.0,0.0,0.0,0.0,5.0383,5.6806,6.1015,6.1525,5.8196,5.4336,4.7886,0.0,0.0,0.0,0.0,0.0,0.0,0.0,0.0,0.0,0.0,0.0,0.0,0.0,0.0,0.0,0.0,0.0,0.0,0.0,0.0,0.0,0.0,0.0,0.0,0.0,0.0,0.0,0.0,0.0,0.0,0.0,0.0,0.0,0.0,0.0,0.0,0.0,0.0,0.0,0.0,0.0,0.0,0.0,0.0,0.0,0.0,0.0,0.0,0.0,0.0,0.0,0.0,0.0,0.0,0.0,0.0,0.0,0.0,0.0,0.0,0.0,0.0,0.0,0.0,0.0,0.0,0.0,0.0,0.0,0.0,0.0,0.0,0.0,0.0,0.0,0.0,0.0,0.0,0.0,0.0,0.0,0.0,0.0,0.0,0.0,0.0,0.0,0.0,0.0,0.0,0.0,0.0,0.0,0.0,0.0,0.0,0.0,0.0,0.0,0.0,0.0,0.0,0.0,0.0,0.0,0.0,0.0,0.0,5.3111,5.9374,6.2009,6.2143,5.9671,5.5708,4.9079,0.0,0.0,0.0,0.0,0.0,0.0,0.0,0.0,0.0,0.0,0.0,0.0,0.0,0.0,0.0,0.0,0.0,0.0,0.0,0.0,0.0,0.0,0.0,0.0,0.0,0.0,0.0,0.0,0.0,0.0,0.0,0.0,0.0,0.0,0.0,0.0,0.0,0.0,0.0,0.0,0.0,0.0,0.0,0.0,0.0,0.0,0.0,0.0,0.0,0.0,0.0,0.0,0.0,0.0,0.0,0.0,0.0,0.0,0.0,0.0,0.0,0.0,0.0,0.0,0.0,0.0,0.0,0.0,0.0,0.0,0.0,0.0,0.0,0.0,0.0,0.0,0.0,0.0,0.0,0.0,0.0,0.0,0.0,0.0,0.0,0.0,0.0,0.0,0.0,0.0,0.0,0.0,0.0,0.0,0.0,0.0,0.0,0.0,0.0,0.0,0.0,0.0,0.0,0.0,0.0,0.0,0.0,0.0,5.4135,5.894,6.2408,6.2419,5.8858,5.5824,5.003,0.0,0.0,0.0,0.0,0.0,0.0,0.0,0.0,0.0,0.0,0.0,0.0,0.0,0.0,0.0,0.0,0.0,0.0,0.0,0.0,0.0,0.0,0.0,0.0,0.0,0.0,0.0,0.0,0.0,0.0,0.0,0.0,0.0,0.0,0.0,0.0,0.0,0.0,0.0,0.0,0.0,0.0,0.0,0.0,0.0,0.0,0.0,0.0,2.3382,0.0,0.0,0.0,0.0,0.0,0.0,0.0,0.0,0.0,0.0,0.0,0.0,0.0,0.0,0.0,0.0,0.0,0.0,0.0,0.0,0.0,0.0,0.0,0.0,0.0,0.0,0.0,0.0,0.0,0.0,0.0,0.0,0.0,0.0,0.0,0.0,0.0,0.0,0.0,0.0,0.0,0.0,0.0,0.0,0.0,0.0,0.0,0.0,0.0,0.0,0.0,0.0,0.0,0.0,0.0,0.0,0.0,0.0,0.0,5.5417,5.9823,6.2414,6.1935,5.8191,5.5189,4.9722,0.0,0.0,0.0,0.0,0.0,0.0,0.0,0.0,0.0,0.0,0.0,0.0,0.0,0.0,0.0,0.0,0.0,0.0,0.0,0.0,0.0,0.0,0.0,0.0,0.0,0.0,0.0,0.0,0.0,0.0,0.0,0.0,0.0,0.0,0.0,0.0,0.0,0.0,0.0,0.0,0.0,0.0,0.0,0.0,0.0,0.0,0.0,0.0,0.0,0.0,0.0,0.0,0.0,0.0,0.0,0.0,0.0,0.0,0.0,0.0,0.0,0.0,0.0,0.0,0.0,0.0,0.0,0.0,0.0,0.0,0.0,0.0,0.0,0.0,0.0,0.0,0.0,0.0,0.0,0.0,0.0,0.0,0.0,0.0,0.0,0.0,0.0,0.0,0.0,0.0,0.0,0.0,0.0,0.0,0.0,0.0,0.0,0.0,0.0,0.0,0.0,0.0,0.0,0.0,0.0,0.0,0.0,5.1096,5.6313,6.049,6.1921,6.0878,5.7368,5.4164,4.8777,4.1082,0.0,0.0,0.0,0.0,0.0,0.0,0.0,0.0,0.0,0.0,0.0,0.0,0.0,0.0,0.0,0.0,0.0,0.0,0.0,0.0,0.0,0.0,0.0,0.0,0.0,0.0,0.0,0.0,0.0,0.0,0.0,0.0,0.0,0.0,0.0,0.0,0.0,0.0,2.1455,2.3872,0.0,0.0,0.0,0.0,0.0,0.0,0.0,0.0,2.5443,0.0,0.0,0.0,0.0,0.0,0.0,0.0,0.0,0.0,0.0,0.0,0.0,0.0,0.0,0.0,0.0,0.0,0.0,0.0,0.0,0.0,0.0,0.0,0.0,0.0,0.0,0.0,0.0,0.0,0.0,0.0,0.0,0.0,0.0,0.0,0.0,0.0,0.0,0.0,0.0,0.0,0.0,0.0,0.0,0.0,0.0,0.0,0.0,0.0,0.0,0.0,0.0,0.0,0.0,0.0,0.0,4.4871,5.0881,5.5498,5.8612,5.9984,5.9148,5.6008,5.2687,4.7655,4.0696,0.0,0.0,0.0,0.0,0.0,0.0,0.0,0.0,0.0,0.0,0.0,0.0,0.0,0.0,0.0,0.0,0.0,0.0,0.0,0.0,0.0,0.0,0.0,0.0,0.0,0.0,0.0,0.0,0.0,0.0,0.0,0.0,0.0,0.0,0.0,0.0,0.0,0.0,0.0,2.581,2.7207,0.0,0.0,0.0,0.0,0.0,0.0,0.0,0.0,2.6872,0.0,0.0,0.0,0.0,0.0,0.0,0.0,0.0,0.0,0.0,0.0,0.0,0.0,0.0,0.0,0.0,0.0,0.0,0.0,0.0,0.0,0.0,0.0,0.0,0.0,0.0,0.0,0.0,0.0,0.0,0.0,0.0,0.0,0.0,0.0,0.0,0.0,0.0,0.0,0.0,0.0,0.0,0.0,0.0,0.0,0.0,0.0,0.0,0.0,0.0,0.0,0.0,0.0,0.0,0.0,4.6464,5.1809,5.5837,5.8521,5.9451,5.829,5.5046,5.2039,4.7021,0.0,0.0,0.0,0.0,0.0,0.0,0.0,0.0,0.0,0.0,0.0,0.0,0.0,0.0,0.0,0.0,0.0,0.0,0.0,0.0,0.0,0.0,0.0,0.0,0.0,0.0,0.0,0.0,0.0,0.0,0.0,0.0,0.0,0.0,0.0,0.0,0.0,0.0,0.0,0.0,2.7181,2.8576,2.7625,0.0,0.0,0.0,0.0,0.0,0.0,2.9608,2.8587,0.0,0.0,0.0,0.0,0.0,0.0,0.0,0.0,0.0,0.0,0.0,0.0,0.0,0.0,0.0,0.0,0.0,0.0,0.0,0.0,0.0,0.0,0.0,0.0,0.0,0.0,0.0,0.0,0.0,0.0,0.0,0.0,0.0,0.0,0.0,0.0,0.0,0.0,0.0,0.0,0.0,0.0,0.0,0.0,0.0,0.0,0.0,0.0,0.0,0.0,0.0,0.0,0.0,0.0,0.0,4.8113,5.2555,5.601,5.8473,5.8892,5.7444,5.4136,5.1432,4.6465,0.0,0.0,0.0,0.0,0.0,0.0,0.0,0.0,0.0,0.0,0.0,0.0,0.0,0.0,0.0,0.0,0.0,0.0,0.0,0.0,0.0,0.0,0.0,0.0,0.0,0.0,0.0,0.0,0.0,0.0,0.0,0.0,0.0,0.0,0.0,0.0,0.0,0.0,0.0,0.0,0.0,2.987,2.9266,3.0591,0.0,0.0,0.0,0.0,3.1797,3.1239,0.0,0.0,0.0,0.0,0.0,0.0,0.0,0.0,0.0,0.0,0.0,0.0,0.0,0.0,0.0,0.0,0.0,0.0,0.0,0.0,0.0,0.0,0.0,0.0,0.0,0.0,0.0,0.0,0.0,0.0,0.0,0.0,0.0,0.0,0.0,0.0,0.0,0.0,0.0,0.0,0.0,0.0,0.0,0.0,0.0,0.0,0.0,0.0,0.0,0.0,0.0,0.0,0.0,0.0,0.0,0.0,4.8534,5.1991,5.4843,5.7105,5.716,5.5767,5.2984,5.0401,4.5818,0.0,0.0,0.0,0.0,0.0,0.0,0.0,0.0,0.0,0.0,0.0,0.0,0.0,0.0,0.0,0.0,0.0,0.0,0.0,0.0,0.0,0.0,0.0,0.0,0.0,0.0,0.0,0.0,0.0,0.0,0.0,0.0,0.0,0.0,0.0,0.0,0.0,0.0,0.0,0.0,0.0,3.1517,3.1653,3.2705,3.3568,0.0,0.0,0.0,3.4303,3.2797,0.0,0.0,0.0,0.0,0.0,0.0,0.0,0.0,0.0,0.0,0.0,0.0,0.0,0.0,0.0,0.0,0.0,0.0,0.0,0.0,0.0,0.0,0.0,0.0,0.0,0.0,0.0,0.0,0.0,0.0,0.0,0.0,0.0,0.0,0.0,0.0,0.0,0.0,0.0,0.0,0.0,0.0,0.0,0.0,0.0,0.0,0.0,0.0,0.0,0.0,0.0,0.0,0.0,0.0,0.0,4.2415,4.8911,5.2146,5.4752,5.6786,5.6817,5.5677,5.3322,5.0777,4.6408,0.0,0.0,0.0,0.0,0.0,0.0,0.0,0.0,0.0,0.0,0.0,0.0,0.0,0.0,0.0,0.0,0.0,0.0,0.0,0.0,0.0,0.0,0.0,0.0,0.0,0.0,0.0,0.0,0.0,0.0,0.0,0.0,0.0,0.0,0.0,0.0,0.0,0.0,0.0,0.0,0.0,0.0,3.3906,3.5156,0.0,0.0,0.0,3.6021,3.6145,0.0,0.0,0.0,0.0,0.0,0.0,0.0,0.0,0.0,0.0,0.0,0.0,0.0,0.0,0.0,0.0,0.0,0.0,0.0,0.0,0.0,0.0,0.0,0.0,0.0,0.0,0.0,0.0,0.0,0.0,0.0,0.0,0.0,0.0,0.0,0.0,0.0,0.0,0.0,0.0,0.0,0.0,0.0,0.0,0.0,0.0,0.0,0.0,0.0,0.0,0.0,0.0,0.0,0.0,0.0,0.0,0.0,4.9104,5.2102,5.4651,5.671,5.6785,5.5797,5.369,5.1085,0.0,0.0,0.0,0.0,0.0,0.0,0.0,0.0,0.0,0.0,0.0,0.0,0.0,0.0,0.0,0.0,0.0,0.0,0.0,0.0,0.0,0.0,0.0,0.0,0.0,0.0,0.0,1.7453,0.0,0.0,0.0,0.0,0.0,0.0,0.0,0.0,0.0,0.0,0.0,0.0,0.0,0.0,3.4032,3.6253,3.7315,3.7706,0.0,0.0,3.8096,3.7691,3.6161,3.4202,0.0,0.0,0.0,0.0,0.0,0.0,0.0,0.0,0.0,0.0,0.0,0.0,0.0,0.0,0.0,0.0,0.0,0.0,0.0,0.0,0.0,0.0,0.0,0.0,0.0,0.0,0.0,0.0,0.0,0.0,0.0,0.0,0.0,0.0,0.0,0.0,0.0,0.0,0.0,0.0,0.0,0.0,0.0,0.0,0.0,0.0,0.0,0.0,0.0,0.0,0.0,0.0,0.0,0.0,0.0,4.8816,5.1518,5.4091,5.6662,5.6785,5.5772,5.3549,5.0711,4.6749,0.0,0.0,0.0,0.0,0.0,0.0,0.0,0.0,0.0,0.0,0.0,0.0,0.0,0.0,0.0,0.0,0.0,0.0,0.0,0.0,0.0,0.0,0.0,0.0,0.0,0.0,0.0,0.0,0.0,0.0,0.0,0.0,0.0,0.0,0.0,0.0,0.0,0.0,0.0,0.0,0.0,3.5569,3.88,3.8895,3.8998,0.0,0.0,3.9521,3.8892,3.6937,3.4938,3.3155,0.0,0.0,0.0,0.0,0.0,0.0,0.0,0.0,0.0,0.0,0.0,0.0,0.0,0.0,0.0,0.0,0.0,0.0,0.0,0.0,0.0,0.0,0.0,0.0,0.0,0.0,0.0,0.0,0.0,0.0,0.0,0.0,0.0,0.0,0.0,0.0,0.0,0.0,0.0,0.0,0.0,0.0,0.0,0.0,0.0,0.0,0.0,0.0,0.0,0.0,0.0,0.0,0.0,4.2374,4.9213,5.1528,5.4022,5.6638,5.609,5.5247,5.417,5.1203,4.7807,0.0,0.0,0.0,0.0,0.0,0.0,0.0,0.0,0.0,0.0,0.0,0.0,0.0,0.0,0.0,0.0,0.0,0.0,0.0,0.0,0.0,0.0,0.0,0.0,0.0,0.0,0.0,0.0,2.448,2.537,2.4332,0.0,0.0,0.0,0.0,0.0,0.0,0.0,0.0,0.0,0.0,3.7502,3.9479,4.0455,0.0,0.0,4.0678,4.0337,3.9558,3.7754,3.5831,3.3973,3.1926,0.0,0.0,0.0,0.0,0.0,0.0,0.0,0.0,0.0,0.0,0.0,0.0,0.0,0.0,0.0,0.0,0.0,0.0,0.0,0.0,0.0,0.0,0.0,0.0,0.0,0.0,0.0,0.0,0.0,0.0,0.0,0.0,0.0,0.0,0.0,0.0,0.0,0.0,0.0,0.0,0.0,0.0,0.0,0.0,0.0,0.0,0.0,0.0,0.0,0.0,0.0,0.0,4.2767,4.9322,5.1775,5.4237,5.6748,5.5769,5.4955,5.4376,5.1669,4.8732,0.0,0.0,0.0,0.0,0.0,0.0,0.0,0.0,0.0,0.0,0.0,0.0,0.0,0.0,0.0,0.0,0.0,0.0,0.0,0.0,0.0,0.0,0.0,0.0,0.0,0.0,0.0,0.0,2.6272,2.655,2.5403,0.0,0.0,0.0,0.0,0.0,0.0,0.0,0.0,0.0,0.0,3.9029,4.0689,4.1759,4.2139,4.154,4.1365,4.0947,3.9894,3.8352,3.6708,3.5056,0.0,0.0,0.0,0.0,0.0,0.0,0.0,0.0,0.0,0.0,0.0,0.0,0.0,0.0,0.0,0.0,0.0,0.0,0.0,0.0,0.0,0.0,0.0,0.0,0.0,0.0,0.0,0.0,0.0,0.0,0.0,0.0,0.0,0.0,0.0,0.0,0.0,0.0,0.0,0.0,0.0,0.0,0.0,0.0,0.0,0.0,0.0,0.0,0.0,0.0,0.0,0.0,0.0,4.3118,4.9063,5.2113,5.4668,5.6669,5.5948,5.5064,5.427,5.2011,4.9301,4.6228,0.0,0.0,0.0,0.0,0.0,0.0,0.0,0.0,0.0,0.0,0.0,0.0,0.0,0.0,0.0,0.0,0.0,0.0,0.0,0.0,0.0,0.0,0.0,0.0,0.0,0.0,2.6774,2.7169,2.6987,0.0,0.0,0.0,0.0,0.0,0.0,0.0,0.0,0.0,0.0,3.8234,3.995,4.2753,4.2714,4.2351,4.2423,4.2163,4.1402,3.9869,3.8658,3.7527,0.0,0.0,0.0,0.0,0.0,0.0,0.0,0.0,0.0,0.0,0.0,0.0,0.0,0.0,0.0,0.0,0.0,0.0,0.0,0.0,0.0,0.0,0.0,0.0,0.0,0.0,0.0,2.8384,2.7579,0.0,0.0,0.0,0.0,0.0,0.0,0.0,0.0,0.0,0.0,0.0,3.9192,4.0055,0.0,0.0,0.0,0.0,0.0,0.0,0.0,0.0,0.0,0.0,0.0,0.0,4.4768,4.9998,5.2501,5.4442,5.5857,5.4912,5.4064,5.3442,5.1557,4.8977,4.5685,0.0,0.0,0.0,0.0,0.0,0.0,0.0,0.0,0.0,0.0,0.0,0.0,0.0,0.0,0.0,0.0,0.0,0.0,0.0,0.0,0.0,0.0,0.0,0.0,0.0,2.8185,0.0,0.0,0.0,0.0,0.0,0.0,0.0,0.0,0.0,0.0,0.0,3.5675,3.8713,4.0447,4.1718,4.2539,4.2524,4.2318,0.0,0.0,0.0,0.0,0.0,0.0,0.0,0.0,0.0,0.0,0.0,0.0,0.0,0.0,3.3845,3.2077,3.1154,3.0845,3.1491,0.0,0.0,0.0,0.0,0.0,0.0,0.0,0.0,0.0,0.0,0.0,0.0,0.0,0.0,0.0,0.0,3.1268,0.0,0.0,0.0,0.0,0.0,0.0,0.0,0.0,4.1583,4.3615,4.4668,4.5554,4.5864,0.0,4.4936,4.2773,0.0,0.0,0.0,0.0,0.0,0.0,0.0,0.0,4.6424,5.0362,5.2793,5.4352,5.5004,5.4064,5.3361,5.2965,5.1006,4.8642,4.5801,4.2708,3.9508,0.0,0.0,0.0,0.0,0.0,0.0,0.0,0.0,0.0,0.0,0.0,0.0,0.0,0.0,0.0,0.0,0.0,0.0,0.0,0.0,0.0,0.0,0.0,3.0882,0.0,0.0,0.0,0.0,0.0,0.0,0.0,0.0,0.0,3.3504,3.5462,3.7766,4.021,4.1702,4.2635,4.2797,0.0,0.0,0.0,0.0,0.0,0.0,0.0,3.9896,3.9492,3.9026,3.8588,3.8289,3.8395,3.8737,3.9458,0.0,0.0,3.6504,3.5548,3.5389,3.5998,3.5969,3.5955,3.646,3.7064,3.773,0.0,0.0,0.0,0.0,0.0,0.0,0.0,0.0,3.8031,3.7759,0.0,3.5454,0.0,0.0,0.0,0.0,0.0,0.0,0.0,0.0,4.7291,4.9581,5.0375,5.1631,5.1857,5.1027,5.044,5.0109,4.9588,4.2597,0.0,0.0,0.0,0.0,0.0,0.0,4.7969,5.0064,5.2916,5.4416,5.4226,5.3448,5.2972,5.2863,5.0463,4.8324,4.6569,4.4635,4.2172,3.9159,3.6212,0.0,0.0,0.0,0.0,0.0,0.0,0.0,0.0,0.0,0.0,0.0,0.0,0.0,0.0,0.0,0.0,0.0,0.0,0.0,0.0,3.3258,0.0,0.0,0.0,0.0,0.0,0.0,0.0,0.0,0.0,0.0,3.5687,3.7992,4.0155,4.1412,0.0,0.0,0.0,0.0,4.3412,4.3439,4.3017,4.2572,4.2316,4.1566,4.1207,4.1699,0.0,0.0,4.1621,4.206,4.2552,4.3075,4.3201,4.2553,4.0219,3.9932,4.0132,4.0235,4.0463,4.0687,4.0697,4.138,4.2267,4.7496,0.0,0.0,0.0,0.0,4.2992,4.4026,4.5077,4.4518,4.4242,4.4049,4.188,0.0,0.0,0.0,0.0,0.0,0.0,4.5744,4.8533,5.1074,5.2859,5.3908,5.4188,5.4161,5.3902,5.3736,5.3142,5.2004,4.9326,4.6103,4.2515,0.0,0.0,0.0,0.0,4.9131,5.0454,5.249,5.3518,5.3441,5.3131,5.2519,5.1514,4.9952,4.8657,4.7713,4.595,4.4147,4.2226,3.9262,0.0,0.0,0.0,0.0,0.0,0.0,0.0,0.0,0.0,0.0,0.0,0.0,0.0,0.0,0.0,0.0,0.0,0.0,0.0,3.5207,3.5819,3.5529,0.0,0.0,0.0,0.0,0.0,0.0,0.0,0.0,0.0,4.0435,4.1061,4.192,0.0,0.0,4.4339,4.4656,4.4357,4.4177,4.4546,0.0,0.0,0.0,4.3512,4.3429,4.3725,4.4217,4.4582,4.4639,4.4913,4.5186,4.5367,4.5733,4.574,4.505,4.3689,4.3099,4.3732,4.3718,4.3672,4.4219,4.4769,4.5287,5.3294,5.0233,4.8481,4.7554,4.7395,4.8701,4.9776,5.0627,4.984,4.9617,4.963,4.7237,4.5381,4.4017,4.3244,0.0,0.0,0.0,4.9803,5.1629,5.3985,5.5411,5.601,5.6231,5.6292,5.6173,5.5808,5.5309,5.4691,5.3775,5.1654,4.8424,0.0,0.0,4.6194,4.8588,4.9982,5.0446,5.1972,5.2706,5.2546,5.2509,5.1852,5.0588,4.9863,4.9065,4.8195,4.6985,4.578,4.4703,4.2167,3.9453,0.0,0.0,0.0,0.0,0.0,0.0,0.0,0.0,0.0,0.0,0.0,2.2199,0.0,0.0,0.0,0.0,3.3336,3.6359,3.8252,3.8787,0.0,0.0,0.0,0.0,0.0,0.0,0.0,4.0362,4.147,4.2696,4.4157,4.4379,4.4422,4.4518,4.5007,4.5497,4.5769,0.0,4.5674,4.6225,4.6079,4.5827,4.5659,4.5433,4.5406,4.5853,4.6711,4.7329,4.7379,4.7498,4.7682,4.7908,4.8178,4.8473,4.8736,4.7641,4.6612,4.6475,4.6355,4.6492,4.6945,4.7503,4.8033,5.7872,5.7913,5.5107,5.3238,5.242,5.4429,5.5196,5.4989,5.4262,5.4076,5.4089,5.1586,4.9885,4.8895,4.8182,0.0,0.0,5.1684,5.2879,5.343,5.6076,5.7202,5.7132,5.7743,5.7917,5.7648,5.6804,5.6728,5.735,5.6195,5.4978,5.3579,5.0607,4.881,4.8442,5.0043,5.0599,5.0076,5.1377,5.1922,5.1704,5.1706,5.1172,5.0105,4.9999,4.9417,4.8335,4.7702,4.7127,4.6527,4.4756,4.2611,4.0183,0.0,0.0,0.0,0.0,0.0,0.0,0.0,0.0,0.0,0.0,0.0,0.0,0.0,0.0,0.0,3.7773,0.0,4.0482,4.1963,0.0,0.0,0.0,4.0153,3.9593,4.0226,4.1336,4.3044,0.0,0.0,0.0,0.0,4.7262,4.5706,4.5862,4.639,4.6998,4.7267,4.7696,4.8247,4.8139,4.7955,4.7836,4.741,4.7314,4.7951,4.9012,4.9647,4.9647,4.9665,4.9916,5.0268,5.0436,5.0577,5.116,5.1003,5.0654,4.8557,4.8609,4.8969,4.9019,4.9715,5.0393,5.9082,6.0258,6.0222,5.9063,5.7277,5.7803,5.8309,5.8727,5.8017,5.7749,5.7597,5.4675,5.2549,5.1136,5.0954,5.1573,5.2902,5.3968,5.5114,5.6279,5.6836,5.7367,5.7866,5.7204,5.6788,5.6693,5.6352,5.6524,5.7089,5.5278,5.4531,5.4706,5.2544,5.0975,5.028,5.0571,5.0396,4.9709,5.0875,5.154,5.1619,5.1675,5.1349,5.0611,4.9771,4.9186,4.8881,4.8332,4.7702,4.7153,4.6251,4.4811,4.2712,4.055,0.0,0.0,0.0,0.0,0.0,0.0,0.0,0.0,0.0,2.8401,3.1056,0.0,3.6143,0.0,4.1664,4.3741,4.3778,4.4088,0.0,0.0,4.3535,4.3698,4.3487,4.4768,4.5798,4.611,4.6851,4.762,4.8437,4.8846,4.9051,4.8953,4.8156,4.7838,4.8469,4.8778,4.9084,4.9628,5.0033,5.01,4.96,4.9546,4.9554,4.9766,5.0419,5.087,5.0896,5.0904,5.0954,5.1046,5.1071,5.1172,5.1297,5.1314,5.1155,5.0614,5.0613,5.0728,5.0728,5.1222,5.1699,6.0059,6.1294,6.182,6.148,6.0692,6.1251,6.1516,6.153,6.0385,5.9706,5.9212,5.646,5.4886,5.4309,5.3966,5.4195,5.4931,5.5634,5.6195,5.6581,5.7119,5.7384,5.7373,5.7066,5.6831,5.6713,5.6483,5.6547,5.6819,5.5591,5.4915,5.4835,5.3177,5.2045,5.1443,5.0875,5.0178,4.9409,5.0495,5.1258,5.1575,5.1623,5.1452,5.1031,5.0427,5.0104,5.0111,4.9499,4.9165,4.9106,4.8419,4.7379,4.5951,4.4144,4.1695,0.0,0.0,0.0,0.0,0.0,0.0,0.0,0.0,0.0,0.0,0.0,4.0053,0.0,4.4871,0.0,4.6596,4.6894,4.6697,4.5801,4.6207,4.6437,4.6309,4.7131,4.7911,4.8355,4.8466,4.8761,4.9485,4.9815,5.0187,5.0661,5.0172,4.9822,5.0085,5.0395,5.069,5.1073,5.1434,5.1415,5.0735,5.0952,5.1172,5.1222,5.1649,5.2026,5.2026,5.2026,5.2026,5.2026,5.2,5.2017,5.2015,5.2033,5.1983,5.2024,5.2033,5.1925,5.1724,5.2076,5.2443,6.0716,6.1556,6.1694,6.2174,6.295,6.4026,6.4029,6.3161,6.1617,6.0406,5.9416,5.7275,5.6605,5.7045,5.6434,5.6164,5.6248,5.6709,5.6568,5.6002,5.707,5.7117,5.641,5.6911,5.7063,5.6901,5.6564,5.6475,5.6623,5.6221,5.5508,5.4464,5.333,5.2585,5.2178,5.1156,5.0212,4.9386,5.032,5.1047,5.157,5.1627,5.1578,5.1412,5.1364,5.1406,5.1465,5.0876,5.0787,5.1279,5.0629,4.9796,4.8802,4.7367,4.5106,0.0,3.9984,0.0,0.0,0.0,0.0,0.0,0.0,0.0,0.0,4.1164,4.3768,4.655,4.7399,4.8194,4.8975,4.9528,4.9325,4.8102,4.8393,4.8592,4.8354,4.8414,4.8897,4.9926,4.9367,4.932,5.0385,5.0721,5.1017,5.1465,5.1652,5.1663,5.1648,5.1787,5.2039,5.2316,5.2353,5.2139,5.1691,5.1875,5.2176,5.2226,5.2494,5.292,5.2945,5.2895,5.287,5.2945,5.287,5.2845,5.2895,5.287,5.2895,5.2945,5.2945,5.277,5.2402,5.2653,5.297,6.0646,6.1416,6.2172,6.2909,6.3617,6.3835,6.3211,6.198,6.1064,5.954,5.7643,5.7134,5.6586,5.6,5.5852,5.6387,5.7404,5.6812,5.6748,5.7142,5.6635,5.6305,5.6126,5.5629,5.5594,5.5908,5.518,5.5337,5.6248,5.5204,5.4937,5.5392,5.4182,5.3313,0.0,0.0,0.0,0.0,5.0804,5.1047,5.157,5.1846,5.1975,5.1962,5.1789,0.0,5.1697,5.1403,5.1134,5.1019,5.1288,0.0,0.0,0.0,0.0,0.0,0.0,0.0,0.0,0.0,0.0,0.0,4.3251,4.3316,4.2093,4.4664,4.694,4.8184,4.8819,4.9487,5.0338,5.0075,4.9967,5.0158,5.0271,5.0146,4.9698,5.0138,5.0698,5.083,5.0827,5.1088,5.1704,5.1921,5.2072,5.2266,5.242,5.2489,5.2581,5.2539,5.2503,5.253,5.2692,5.2749,5.2628,5.2644,5.2694,5.277,5.2795,5.3046,5.3372,5.3146,5.3096,5.3397,5.3171,5.2886,5.2886,5.2895,5.3036,5.3482,5.3557,5.3406,5.287,5.3181,5.3453,6.0709,0.0,6.1568,6.1972,0.0,6.2313,6.1712,6.0756,6.0555,5.9338,5.7464,5.7433,5.739,5.7192,5.6775,5.6968,5.7613,5.6689,5.6478,5.6776,5.6383,5.605,5.5899,5.5536,5.5397,5.5499,5.534,5.5434,5.5676,5.5355,5.5256,5.5385,5.4445,5.3868,5.3579,5.3028,5.2187,5.1001,5.0878,5.1047,5.157,5.1752,5.1934,5.209,0.0,0.0,0.0,0.0,0.0,0.0,0.0,0.0,0.0,0.0,0.0,4.5656,4.4855,4.4296,4.3909,4.3892,4.4331,4.5315,4.6725,4.7039,4.5749,4.7231,4.8482,4.9283,4.9831,5.0435,5.1114,5.0964,5.0763,5.0819,5.0896,5.0582,4.9682,5.0519,5.1079,5.0699,5.1144,5.1711,5.2017,5.2157,5.2244,5.2354,5.2598,5.2883,5.3199,5.3137,5.3047,5.3047,5.2909,5.2895,5.2895,5.2895,5.2895,5.2895,5.2757,5.2854,5.3328,5.3053,5.2948,5.3421,5.3311,5.3137,5.3137,5.3137,5.3307,5.3707,5.3853,5.3773,5.3478,5.3668,5.3747,6.0822,6.0822,6.0699,6.069,6.0716,6.0716,6.0213,5.9435,0.0,0.0,0.0,5.7733,5.7965,5.8283,5.7588,5.7397,5.7528,5.6654,5.6286,5.6384,5.6269,5.5994,5.5631,5.5541,5.545,5.5325,5.5685,5.5602,5.5217,5.5695,5.5637,5.508,5.4602,5.4288,5.4184,5.3766,5.2772,5.1335,5.1152,5.1309,5.1753,5.1711,5.1815,5.209,5.2152,5.2461,5.2983,5.2588,5.2566,5.2968,5.236,5.1791,5.1322,5.0618,4.966,4.8436,4.7826,4.7295,4.6838,4.7255,4.7649,4.794,4.9035,4.9441,4.8818,4.8974,4.9356,5.01,5.0561,5.1069,5.178,5.1558,5.1373,5.1159,5.1141,5.0515,4.9327,5.0421,5.1089,5.0336,5.1089,5.1915,5.2033,5.2178,5.2251,5.2327,5.2763,5.3256,5.3692,5.3649,5.3417,5.3282,5.3076,5.2895,5.2895,5.2895,5.2861,5.2792,5.2659,5.27,5.3006,5.2932,5.2976,5.3504,5.3481,5.3394,5.3418,5.3381,5.354,5.3937,5.4034,5.4056,5.406,5.4067,5.3917,6.0886,6.0856,6.0335,6.025,6.0455,6.0455,5.9451,5.7905,5.868,5.8475,5.7539,5.7539,5.7131,5.6486,5.6353,5.692,5.7928,5.7041,5.6939,0.0,5.6663,5.5958,5.536,5.4759,5.4729,5.5157,5.4713,5.4702,5.5049,5.5213,5.5199,5.5099,5.502,5.4707,5.4236,5.4131,5.3739,5.3034,5.2537,5.2302,5.2354,5.2166,5.2059,5.2121,5.2368,5.2558,5.265,5.2842,5.2877,5.2696,5.3069,5.2438,5.0682,5.0611,4.9974,4.8389,4.8144,4.826,4.8601,4.876,4.9436,5.083,5.1627,5.1197,4.9255,4.9489,5.003,5.0625,5.0852,5.125,5.2234,5.1229,5.1011,5.2193,5.1414,5.0414,4.9747,5.0897,5.1297,5.0279,5.1315,5.2278,5.2596,5.2703,5.2744,5.2879,5.3331,5.3808,5.4195,5.3994,5.3501,5.3124,5.2929,5.2895,5.2895,5.2895,5.2842,5.2515,5.2774,5.301,5.3329,5.3284,5.3408,5.3936,5.3703,5.3433,5.3445,5.3407,5.3653,5.4045,5.418,5.418,5.4279,5.4328,5.4168,6.1446,6.1389,6.1143,6.0693,6.0084,5.9781,5.9353,5.8891,5.9254,5.8635,5.736,5.766,5.7964,5.8173,5.7701,5.7853,5.8377,5.7072,5.6671,5.687,5.5733,5.5235,5.521,5.4537,5.4563,5.5083,5.4846,5.4837,5.5072,5.5099,5.5099,5.5099,5.5099,5.4968,5.4707,5.468,5.4576,5.4314,5.3452,5.3014,5.2981,5.288,5.2812,5.2812,5.2655,5.2564,5.2538,5.2372,5.2205,5.2067,5.2051,5.162,5.0694,5.0439,4.9943,4.9199,4.9113,4.9363,4.9946,5.0572,5.1413,5.2485,5.2825,5.2563,5.1518,5.1648,5.191,5.2171,5.2197,5.1964,5.1537,5.0791,5.0613,5.1205,5.0464,4.9665,4.9198,5.0746,5.1197,4.9779,5.1205,5.2619,5.287,5.2895,5.302,5.3331,5.4034,5.4612,5.4647,5.4647,5.431,5.3532,5.3071,5.292,5.292,5.2938,5.2924,5.2799,5.2858,5.309,5.3375,5.3351,5.3424,5.3861,5.3727,5.3642,5.3618,5.3618,5.3813,5.4157,5.4316,5.4327,5.4386,5.4453,5.4313,6.1951,6.1951,6.1436,6.0506,5.9306,5.8695,5.8783,5.9248,5.9161,5.8408,5.7369,5.7909,5.866,5.9306,5.8722,5.8395,5.8211,5.7093,5.6435,5.6143,5.5193,5.4857,5.5087,5.4623,5.4654,5.5046,5.5099,5.5099,5.5099,5.5099,5.5099,5.5099,5.5099,5.5099,5.5099,5.5099,5.5099,5.5046,5.4236,5.3713,5.3583,5.3452,5.34,5.3373,5.2929,5.2694,5.2668,5.225,5.1936,5.1805,5.1387,5.1126,5.0969,5.0524,5.0315,5.0446,5.0472,5.0734,5.1361,5.2302,5.3086,5.353,5.3713,5.3792,5.3766,5.37,5.357,5.342,5.323,5.2457,5.0897,5.0158,4.9893,4.9485,4.9022,4.838,4.7859,4.973,5.0387,4.8555,5.0566,5.2526,5.262,5.2998,5.3497,5.4135,5.4863,5.5189,5.5074,5.5275,5.4938,5.4275,5.3563,5.3208,5.3123,5.2707,5.2705,5.2897,5.2622,5.2475,5.2662,5.2668,5.2794,5.3052,5.3148,5.3326,5.3624,5.3798,5.3972,5.4331,5.4442,5.4466,5.466,5.4754,5.4607,6.2058,6.1797,6.0176,5.8724,5.7778,5.7117,5.6964,5.7055,5.6779,5.6904,5.7369,5.8218,5.8253,5.7682,5.7618,5.7563,5.7515,5.7266,5.6786,5.6159,5.5978,5.5637,5.5187,5.5054,5.5046,5.5125,5.5151,5.5151,5.5151,5.5099,5.5099,5.5099,5.5099,5.5099,5.5099,5.5099,5.5099,5.5099,5.4994,5.468,5.4131,5.3661,5.34,5.34,5.3347,5.3321,5.3321,5.3243,5.2955,5.2485,5.2354,5.2093,5.1596,5.1465,5.1675,5.2171,5.2223,5.2537,5.3112,5.3713,5.4027,5.4158,5.4602,5.4889,5.4856,5.4564,5.4115,5.3511,5.3069,5.2134,5.0621,4.9373,4.8545,4.8157,4.7431,4.658,4.6573,4.7613,4.7999,4.6337,4.9536,5.1547,5.1881,5.3233,5.4561,5.4988,5.5265,5.5591,5.5817,5.558,5.5404,5.5117,5.4477,5.3914,5.3662,5.2188,5.2054,5.2623,5.1959,5.1508,5.1379,5.1369,5.1501,5.1478,5.1785,5.2292,5.3205,5.3809,5.4063,5.4499,5.4682,5.474,5.5135,5.5293,5.512,6.1498,6.1351,5.9784,5.8612,5.7778,5.674,5.655,5.693,5.7299,5.759,5.7851,5.8252,5.8415,5.8444,5.8072,5.7869,5.7748,5.6954,5.6445,5.6072,5.5703,5.5523,5.5543,5.5595,5.5752,5.604,5.5752,5.5569,5.5517,5.5255,5.5099,5.5099,5.5099,5.5099,5.5099,5.5099,5.5099,5.5099,5.5099,5.4968,5.4759,5.4524,5.4393,5.4367,5.4079,5.387,5.3844,5.3583,5.3269,5.306,5.3034,5.2929,5.2668,5.2668,5.2772,5.3008,5.3034,5.3269,5.3844,5.4079,5.4367,5.4707,5.4942,5.5032,5.4772,5.4578,5.4071,5.2986,5.2395,5.1112,4.8627,4.7637,4.7273,4.709,4.678,4.6574,4.6767,4.8059,4.8454,4.7242,4.9688,5.179,5.2115,5.3733,5.5042,5.5415,5.5641,5.5968,5.6168,5.5811,5.5565,5.5405,5.4768,5.4228,5.3928,5.3254,5.2791,5.2838,5.2108,5.1125,5.0864,5.0107,4.9836,4.9881,5.0753,5.1652,5.255,5.4033,5.4856,5.5073,5.5073,5.5145,5.5361,5.5644,5.5716,6.0867,6.0382,5.9096,5.8056,5.7189,5.6236,5.631,5.7098,5.7677,5.8081,5.8374,5.8374,5.8663,5.8987,5.8434,5.8035,5.7741,5.6933,5.6452,5.6246,5.5778,5.5778,5.6144,5.6144,5.6379,5.6667,5.6353,5.617,5.6118,5.5778,5.5491,5.536,5.5334,5.5255,5.5099,5.5099,5.5099,5.5099,5.5099,5.5099,5.5072,5.5099,5.5099,5.5046,5.468,5.4445,5.4445,5.4079,5.3792,5.3635,5.3609,5.3556,5.34,5.34,5.3452,5.3609,5.3792,5.3804,5.3864,5.4344,5.4471,5.415,5.4432,5.4407,5.3799,5.3463,5.2649,5.125,5.0747,4.9285,4.7454,4.6772,4.6574,4.6263,4.6153,4.6325,4.6622,4.7761,4.7793,4.7132,4.8929,5.1507,5.2522,5.4302,5.5641,5.5691,5.5968,5.6219,5.6182,5.5937,5.5754,5.557,5.4992,5.4475,5.4106,5.2599,5.2614,5.2471,5.1347,4.9818,5.0121,4.8981,4.8473,4.8855,5.0167,5.1425,5.2352,5.3858,5.5093,5.5485,5.5698,5.5794,5.5987,5.6251,5.6356,6.0354,5.9033,5.7738,5.6503,5.5265,5.5225,5.5881,5.7024,5.7091,5.7751,5.8714,5.8802,5.8856,5.8841,5.8259,5.7659,5.7177,5.743,5.7263,5.6752,5.6641,5.6685,5.6771,5.6771,5.6798,5.6954,5.6824,5.6745,5.6719,5.6693,5.6432,5.5909,5.5883,5.5621,5.5203,5.5151,5.5099,5.5099,5.5099,5.5099,5.5099,5.5099,5.5099,5.5099,5.5072,5.502,5.502,5.502,5.4733,5.4184,5.4184,5.3949,5.3504,5.342,5.359,5.4066,5.4581,5.4265,5.3308,5.4458,5.4457,5.2296,5.296,5.3208,5.1862,5.1183,5.0142,4.8274,4.8122,4.7721,4.7553,4.7045,4.6519,4.5427,4.5156,4.5216,4.5219,4.5637,4.5276,4.5556,4.7355,4.9995,5.3098,5.5103,5.5838,5.6082,5.6168,5.6194,5.6219,5.6146,5.6012,5.567,5.5226,5.4794,5.4138,5.2371,5.0878,5.0488,4.9676,4.7538,4.7338,4.7278,4.7423,4.7631,4.823,4.9583,5.1745,5.3218,5.4232,5.5067,5.6255,5.6581,5.654,5.6828,5.69,5.7738,5.6536,5.6039,5.5689,5.5629,5.5621,5.607,5.6867,5.7341,5.7751,5.814,5.8201,5.8201,5.8167,5.7914,5.7713,5.7469,5.7274,5.7038,5.6824,5.6789,5.7007,5.7346,5.7381,5.7556,5.7817,5.7529,5.7163,5.6824,5.6789,5.6693,5.6536,5.645,5.6196,5.5726,5.5621,5.5465,5.5125,5.5099,5.5099,5.5125,5.5099,5.5099,5.5099,5.5099,5.5099,5.5099,5.5099,5.4994,5.4785,5.4785,5.468,5.4398,5.3557,5.3105,5.3233,5.2892,5.2425,5.2016,5.2563,5.2607,5.162,5.157,5.1531,5.0772,5.0351,4.957,4.8267,4.7837,4.7597,4.6829,4.6236,4.5751,4.5512,4.5436,4.554,4.5748,4.5831,4.5831,4.6111,4.7468,4.9891,5.2599,5.4236,5.5004,5.5974,5.6219,5.6171,5.6221,5.6274,5.6228,5.5905,5.491,5.3954,5.3776,5.2325,5.0861,4.9725,4.8659,4.7793,4.732,4.6358,4.6247,4.6601,4.6892,4.8128,5.0513,5.261,5.3502,5.4372,5.5604,5.619,5.7021,5.6638,5.6742,5.6465,5.5715,5.5674,5.5857,5.6136,5.6196,5.6536,5.7128,5.7541,5.7853,5.7985,5.8011,5.8011,5.8022,5.7974,5.7983,5.7969,5.7555,5.7373,5.7346,5.7346,5.7556,5.7904,5.7957,5.8131,5.8392,5.8131,5.7712,5.7399,5.7346,5.7268,5.7085,5.7085,5.6771,5.6301,5.6196,5.5987,5.57,5.5647,5.5647,5.5647,5.5647,5.5647,5.5647,5.5647,5.5465,5.5125,5.5099,5.5099,5.5099,5.5099,5.4872,5.4309,5.3048,5.2327,5.2237,5.1832,5.1212,5.0788,5.125,5.1201,5.0068,5.0183,5.0026,4.9312,4.9045,4.8416,4.7687,4.7458,4.7074,4.6441,4.5788,4.5561,4.585,4.5892,4.6016,4.6245,4.6286,4.6286,4.6567,4.8302,5.041,5.2117,5.3802,5.47,5.5197,5.5471,5.5906,5.5918,5.5991,5.5884,5.5581,5.4548,5.2885,5.174,5.0202,4.9685,4.8736,4.79,4.7316,4.6934,4.5891,4.55,4.5706,4.6405,4.7567,4.928,5.1527,5.2715,5.34,5.3875,5.4365,5.5224,5.6013,5.6278,5.6806,5.6685,5.6798,5.6745,5.6798,5.6798,5.7137,5.7643,5.773,5.8062,5.8402,5.8489,5.8419,5.848,5.8427,5.8444,5.8437,5.834,5.8304,5.834,5.8366,5.8392,5.8444,5.8418,5.8444,5.8523,5.8497,5.847,5.8366,5.834,5.8104,5.7773,5.7695,5.7373,5.6798,5.6798,5.6798,5.6667,5.6641,5.6693,5.6798,5.6633,5.6606,5.6693,5.6693,5.6223,5.5229,5.5203,5.5255,5.5196,5.5069,5.4368,5.3039,5.185,5.1297,5.1298,5.156,5.0882,4.9562,5.0703,5.0095,4.8243,4.8475,4.8645,4.752,4.6945,4.6626,4.6629,4.6549,4.6389,4.647,4.6348,4.6286,4.6307,4.6224,4.6265,4.6286,4.6307,4.6307,4.6691,4.8749,5.0456,5.0872,5.3062,5.4764,5.3701,5.4154,5.5005,5.4967,5.4985,5.4834,5.4249,5.3327,5.1927,4.9788,4.7878,4.7795,4.7524,4.6796,4.6181,4.6392,4.5824,4.5922,4.6087,4.6068,4.7158,4.7978,5.0061,5.1072,5.1785,5.216,5.297,5.4202,5.5264,5.5852,5.6789,5.6789,5.6789,5.7033,5.7407,5.7433,5.7712,5.8235,5.8261,5.8366,5.8497,5.8523,5.8523,5.8523,5.8523,5.8523,5.8523,5.8523,5.8523,5.8523,5.8523,5.8523,5.8523,5.8523,5.8523,5.8523,5.8523,5.8523,5.8523,5.8523,5.8392,5.8287,5.8235,5.7948,5.746,5.7433,5.7277,5.685,5.6789,5.6789,5.6789,5.6824,5.6824,5.6789,5.6824,5.6615,5.6301,5.6275,5.6275,5.6215,5.5193,5.3889,5.2376,5.0966,5.0105,4.9743,4.9163,4.8575,4.7852,4.8222,4.8326,4.7222,4.7208,4.7071,4.663,4.6408,4.6472,4.67,4.6782,4.6865,4.7196,4.7258,4.701,4.6369,4.6307,4.6348,4.6349,4.6327,4.6451,4.6761,4.7717,4.8677,4.9831,5.2144,5.2727,5.265,5.3092,5.3471,5.3172,5.3512,5.3348,5.2787,5.1797,5.0883,4.9049,4.7587,4.7055,4.7037,4.6445,4.5976,4.6055,4.6113,4.625,4.6308,4.6308,4.6595,4.7445,4.8311,4.9403,5.0252,5.0758,5.2077,5.3752,5.4551,5.4876,5.7451,5.7416,5.7451,5.7634,5.8009,5.8009,5.8183,5.8497,5.8523,5.8523,5.8523,5.8523,5.8523,5.8523,5.8523,5.8523,5.8523,5.8523,5.8523,5.8523,5.8523,5.8523,5.8523,5.8523,5.8523,5.8523,5.8523,5.8523,5.8523,5.8523,5.8523,5.8523,5.8523,5.834,5.8035,5.8009,5.7765,5.7477,5.7451,5.7451,5.7451,5.7451,5.7451,5.7451,5.7451,5.7111,5.663,5.6524,5.6318,5.5634,5.3893,5.2175,5.1114,4.9713,4.8774,4.8442,4.7944,4.7425,4.6992,4.7124,4.6933,4.6732,4.6468,4.641,4.6513,4.6555,4.6762,4.7175,4.7237,4.7403,4.761,4.7672,4.7403,4.6886,4.6824,4.6762,4.6639,4.6577,4.666,4.7051,4.7834,4.86,4.9267,5.1013,5.1101,5.1556,5.1867,5.2088,5.1871,5.2112,5.1833,5.1468,5.0811,4.9744,4.8486,4.7384,4.6468,4.6385,4.6366,4.6211,4.623,4.623,4.6308,4.6308,4.6308,4.6308,4.6967,4.7271,4.8073,4.8697,4.9318,5.04,5.166,5.2823,5.367,5.8497,5.8523,5.8497,5.8444,5.847,5.847,5.847,5.8523,5.8523,5.8523,5.8523,5.8523,5.8523,5.8523,5.8523,5.8523,5.8523,5.8523,5.8523,5.8523,5.8523,5.8523,5.8523,5.8523,5.8523,5.8523,5.8523,5.8523,5.8523,5.8523,5.8523,5.8523,5.8523,5.8523,5.8418,5.8497,5.8418,5.8366,5.8392,5.8357,5.8392,5.8383,5.8418,5.8357,5.8118,5.7425,5.6367,5.5626,5.5034,5.3987,5.1621,5.0181,4.9481,4.8256,4.7622,4.7604,4.7538,4.7288,4.7052,4.6891,4.6814,4.6491,4.6492,4.6534,4.6927,4.7051,4.7258,4.7672,4.7734,4.7755,4.7859,4.7879,4.7817,4.7734,4.7423,4.7175,4.7006,4.6886,4.6907,4.734,4.8689,4.9723,4.8819,5.1128,5.1118,5.0271,5.0504,5.0901,5.0607,5.0439,5.0526,5.0061,4.9276,4.8656,4.7381,4.7141,4.6308,4.6308,4.6308,4.6308,4.6308,4.6308,4.6308,4.6308,4.6308,4.6308,4.6396,4.6769,4.6856,4.7184,4.7857,4.8525,4.9913,5.1598,5.2928,5.8523,5.8523,5.8523,5.8523,5.8523,5.8523,5.8523,5.8523,5.8523,5.8523,5.8523,5.8523,5.8523,5.8523,5.8523,5.8523,5.8523,5.8523,5.8523,5.8523,5.8523,5.8523,5.8523,5.8523,5.8523,5.8523,5.8523,5.8523,5.8523,5.8523,5.8523,5.8523,5.8523,5.8487,5.8523,5.8452,5.8523,5.8523,5.8523,5.8523,5.8523,5.8523,5.8523,5.839,5.74,5.6555,5.5789,5.3477,5.2172,5.2089,5.1147,4.9827,4.874,4.7949,4.744,4.7204,4.7149,4.6952,4.661,4.653,4.6594,4.6823,4.6824,4.701,4.7465,4.7506,4.7734,4.8065,4.8231,4.8356,4.8646,4.8645,4.8517,4.8137,4.7357,4.6741,4.6595,4.6556,4.6782,4.7478,4.8379,4.8776,4.9174,4.9575,5.004,4.9125,4.9209,4.953,4.9017,4.8846,4.8975,4.7857,4.7121,4.6924,4.6595,4.6464,4.6308,4.6308,4.6308,4.6308,4.6308,4.6308,4.6308,4.6308,4.6308,4.6308,4.6308,4.6464,4.6308,4.6308,4.7314,4.8525,5.021,5.1849,5.2556,5.8523,5.8523,5.8523,5.8523,5.8523,5.8523,5.8523,5.8523,5.8523,5.8523,5.8523,5.8523,5.8523,5.8523,5.8523,5.8523,5.8523,5.8523,5.8523,5.8523,5.8523,5.8523,5.8523,5.8523,5.8523,5.8523,5.8523,5.8523,5.8523,5.8523,5.8523,5.8523,5.8523,5.8177,5.7472,5.8212,5.8106,5.7723,5.807,5.8523,5.8523,5.8523,5.8523,5.8141,5.6798,5.5361,5.349,5.0846,4.9607,4.9841,4.9607,4.896,4.8132,4.7595,4.7234,4.7014,4.6852,4.6673,4.6636,4.6596,4.6803,4.7155,4.732,4.7548,4.7858,4.7982,4.8169,4.8625,4.8645,4.8853,4.8935,4.8765,4.8346,4.7742,4.6818,4.6284,4.6518,4.6861,4.7148,4.7678,4.8261,4.8791,4.9081,4.9102,4.8845,4.8587,4.863,4.8243,4.7551,4.7528,4.7398,4.6702,4.6396,4.6571,4.6483,4.6352,4.6308,4.6308,4.6308,4.6308,4.6308,4.6308,4.6308,4.6308,4.6308,4.6308,4.6308,4.6308,4.6308,4.6638,4.7574,4.844,4.9913,5.0969,5.1785,5.8523,5.8523,5.8523,5.8523,5.8523,5.8523,5.8523,5.8523,5.8523,5.8523,5.8523,5.8523,5.8523,5.8523,5.8523,5.8523,5.8523,5.8523,5.8523,5.8523,5.8523,5.8523,5.8523,5.8523,5.8523,5.8523,5.8523,5.8523,5.8523,5.8523,5.8523,5.8523,5.8523,5.782,5.7328,5.7927,5.7651,5.7184,5.7963,5.8212,5.8034,5.7866,5.7651,5.6978,5.5336,5.2963,5.0536,4.8525,4.7893,4.8193,4.7773,4.7632,4.7493,4.7153,4.6933,4.6894,4.6653,4.6596,4.6824,4.6887,4.7175,4.7547,4.763,4.7962,4.8334,4.8501,4.8646,4.8977,4.9102,4.8997,4.8702,4.8158,4.7533,4.704,4.62,4.6249,4.6798,4.7323,4.7667,4.7799,4.8587,4.9016,4.9102,4.9059,4.8887,4.8286,4.8286,4.7897,4.7334,4.7224,4.7007,4.6483,4.644,4.6658,4.6527,4.6308,4.6308,4.6308,4.6308,4.6308,4.6308,4.6308,4.6308,4.6308,4.6308,4.6308,4.6308,4.6308,4.6308,4.6682,4.7401,4.7986,4.874,4.9488,5.0336,5.8523,5.8523,5.8523,5.8523,5.8523,5.8523,5.8523,5.8523,5.8523,5.8523,5.8523,5.8523,5.8523,5.8523,5.8523,5.8523,5.8523,5.8523,5.8523,5.8523,5.8523,5.8523,5.8523,5.8523,5.8523,5.8523,5.8523,5.8487,5.8452,5.8284,5.8452,5.8319,5.8034,5.8248,5.7794,5.7794,5.8355,5.807,5.8284,5.7759,5.6736,5.6373,5.5691,5.4411,5.2433,5.0381,4.8605,4.7493,4.7194,4.7194,4.7215,4.7176,4.7096,4.6752,4.6571,4.6655,4.6781,4.6742,4.6578,4.6864,4.7232,4.7663,4.7808,4.8057,4.8852,4.8936,4.8977,4.9102,4.9102,4.8786,4.8178,4.7845,4.7117,4.6333,4.6118,4.6219,4.6538,4.6949,4.7516,4.8129,4.8716,4.9102,4.9102,4.9059,4.8716,4.8134,4.7811,4.7681,4.7378,4.7007,4.6702,4.6308,4.6352,4.6527,4.644,4.6308,4.6308,4.6308,4.6308,4.6308,4.6308,4.6308,4.6308,4.6308,4.6308,4.6308,4.6308,4.6308,4.6308,4.6769,4.7184,4.7771,4.8268,4.8654,4.8654,5.8523,5.8523,5.8523,5.8523,5.8523,5.8523,5.8523,5.8523,5.8523,5.8523,5.8523,5.8523,5.8523,5.8523,5.8523,5.8523,5.8523,5.8523,5.8523,5.8523,5.8523,5.8523,5.8523,5.8523,5.8523,5.8487,5.8523,5.8177,5.758,5.7328,5.687,5.6275,5.6337,5.5508,5.5654,5.6591,5.6627,5.6337,5.7544,5.7364,5.5764,5.5299,5.3753,5.1823,5.0226,4.8877,4.7173,4.6791,4.6691,4.6733,4.6879,4.7004,4.6963,4.676,4.6761,4.6968,4.6887,4.707,4.7004,4.7019,4.7301,4.7984,4.8025,4.8447,4.8911,4.9102,4.9102,4.9102,4.9017,4.8702,4.7824,4.6988,4.6303,4.5757,4.5628,4.5893,4.6349,4.6958,4.7624,4.83,4.8802,4.9016,4.9059,4.893,4.8501,4.7918,4.7441,4.7248,4.69,4.6571,4.6571,4.6352,4.6308,4.6352,4.6352,4.6308,4.6308,4.6308,4.6308,4.6308,4.6308,4.6308,4.6308,4.6308,4.6308,4.6308,4.6308,4.6308,4.6308,4.6507,4.69,4.7488,4.7684,4.7531,4.7445,5.8523,5.8523,5.8523,5.8523,5.8523,5.8523,5.8523,5.8523,5.8523,5.8523,5.8523,5.8523,5.8523,5.8523,5.8523,5.8523,5.8523,5.8523,5.8523,5.8523,5.8523,5.8212,5.8034,5.7892,5.7651,5.7866,5.8284,5.7687,5.6616,5.6009,5.5654,5.4188,5.3828,5.3777,5.2987,5.4001,5.5029,5.4151,5.5544,5.5691,5.4151,5.3678,5.1952,4.9601,4.8798,4.8028,4.673,4.6388,4.6347,4.6327,4.6741,4.6989,4.7093,4.7113,4.7175,4.7568,4.7233,4.7228,4.7303,4.7314,4.7513,4.8351,4.8394,4.8609,4.8973,4.9102,4.9102,4.9059,4.8932,4.8469,4.7552,4.6593,4.5626,4.5066,4.4918,4.5427,4.6178,4.7089,4.7833,4.8469,4.8845,4.9016,4.8887,4.8673,4.8156,4.7701,4.7268,4.6876,4.6483,4.6308,4.6352,4.6352,4.6308,4.6308,4.6308,4.6308,4.6308,4.6308,4.6308,4.6308,4.6308,4.6308,4.6308,4.6308,4.6308,4.6308,4.6308,4.6308,4.6308,4.6308,4.6464,4.69,4.6726,4.6352,4.642,5.8523,5.8523,5.8523,5.8523,5.8523,5.8523,5.8523,5.8523,5.8523,5.8523,5.8523,5.8523,5.8523,5.8523,5.8523,5.8523,5.8523,5.8523,5.8523,5.8487,5.8319,5.783,5.6906,5.6518,5.5911,5.5581,5.6664,5.7195,5.6118,5.6009,5.4634,5.3852,5.3378,5.3001,5.2835,5.3589,5.3401,5.276,5.3453,5.2902,5.1555,5.0591,4.9641,4.7312,4.7192,4.6851,4.6528,4.6307,4.6307,4.6348,4.6762,4.7155,4.7465,4.7548,4.7484,4.7377,4.7411,4.7401,4.7289,4.7443,4.7819,4.8265,4.8394,4.863,4.8973,4.9102,4.9102,4.8973,4.8634,4.7982,4.6766,4.5994,4.5114,4.4498,4.4591,4.5185,4.5916,4.6841,4.7898,4.8534,4.8848,4.8887,4.8587,4.8243,4.7854,4.7441,4.705,4.6702,4.6396,4.6308,4.6308,4.6308,4.6308,4.6308,4.6308,4.6308,4.6308,4.6308,4.6308,4.6308,4.6308,4.6308,4.6308,4.6308,4.6308,4.6308,4.6308,4.6308,4.6308,4.6308,4.6308,4.6308,4.6308,4.6308,4.6308,5.8523,5.8523,5.8523,5.8523,5.8523,5.8523,5.8523,5.8523,5.8523,5.8523,5.8523,5.8523,5.8523,5.8523,5.8523,5.8523,5.8523,5.8523,5.8523,5.8416,5.7651,5.6942,5.5899,5.5324,5.4523,5.4262,5.5262,5.5225,5.3739,5.3514,5.2835,5.1486,5.1023,5.0908,5.1039,5.1232,5.1347,5.1347,5.1654,5.117,4.9428,4.8464,4.7151,4.6649,4.6307,4.6307,4.6307,4.6307,4.6431,4.67,4.7093,4.7444,4.769,4.7851,4.7953,4.7697,4.7496,4.7422,4.7293,4.7428,4.7638,4.8265,4.8394,4.863,4.893,4.9102,4.9102,4.8868,4.8108,4.7356,4.6518,4.5604,4.4668,4.4072,4.4307,4.4959,4.567,4.6489,4.7373,4.8262,4.8466,4.8374,4.807,4.7768,4.7441,4.7137,4.6832,4.6571,4.6308,4.6308,4.6308,4.6308,4.6308,4.6308,4.6308,4.6308,4.6308,4.6308,4.6308,4.6308,4.6308,4.6308,4.6308,4.6308,4.6308,4.6308,4.6308,4.6308,4.6308,4.6308,4.6308,4.6308,4.6308,4.6308,4.625,5.8523,5.8523,5.8523,5.8523,5.8523,5.8523,5.8523,5.8523,5.8523,5.8523,5.8452,5.8177,5.8141,5.8319,5.8177,5.8106,5.8319,5.7973,5.7687,5.807,5.6482,5.5581,5.5176,5.4113,5.2911,5.2266,5.2532,5.2266,5.1922,5.1716,5.0465,4.9533,4.8569,4.8211,4.8587,4.9175,4.9157,4.9472,4.9959,4.9741,4.8367,4.7071,4.6307,4.6307,4.6307,4.6307,4.6307,4.6451,4.6638,4.6969,4.734,4.7709,4.7761,4.7955,4.8093,4.8027,4.7465,4.7441,4.7465,4.7595,4.7854,4.8544,4.8544,4.8759,4.8973,4.9102,4.9017,4.8765,4.7858,4.6861,4.6191,4.5178,4.4344,4.393,4.4143,4.4673,4.528,4.5993,4.6602,4.7297,4.7788,4.786,4.7551,4.7441,4.7181,4.6876,4.6571,4.6527,4.6308,4.6308,4.6308,4.6308,4.6308,4.6308,4.6308,4.6308,4.6308,4.6308,4.6308,4.6308,4.6308,4.6308,4.6308,4.6308,4.6308,4.6308,4.6308,4.6308,4.6308,4.6308,4.6308,4.623,4.6094,4.6016,4.5957,5.8523,5.8523,5.8523,5.8523,5.8523,5.8523,5.8523,5.8523,5.8416,5.8523,5.8177,5.7086,5.7086,5.7687,5.6942,5.7292,5.7267,5.6239,5.613,5.7267,5.5262,5.3964,5.3739,5.2304,5.0946,5.0254,4.9825,5.0293,5.0659,5.0946,5.0193,4.8688,4.8233,4.8114,4.7733,4.7693,4.7314,4.7314,4.7213,4.7031,4.677,4.6468,4.6347,4.6307,4.6307,4.6348,4.641,4.6658,4.6948,4.7113,4.7481,4.7659,4.7673,4.7331,4.7228,4.7268,4.7398,4.7658,4.7745,4.7941,4.8286,4.8802,4.893,4.9016,4.8997,4.8998,4.8874,4.8459,4.7552,4.6679,4.5908,4.4958,4.4246,4.4031,4.4041,4.4349,4.4773,4.5511,4.6096,4.6416,4.7004,4.7131,4.705,4.7007,4.6876,4.6571,4.6352,4.6308,4.6308,4.6308,4.6308,4.6308,4.6308,4.6308,4.6308,4.6308,4.6308,4.6308,4.6308,4.6308,4.6308,4.6308,4.6308,4.6308,4.6308,4.6308,4.6308,4.6308,4.6308,4.6269,4.6211,4.6016,4.5824,4.5723,4.5644,5.8523,5.8523,5.8523,5.8523,5.8523,5.8523,5.8523,5.8284,5.7544,5.7123,5.6834,5.5471,5.5152,5.5691,5.5764,5.5936,5.5764,5.5152,5.5078,5.5299,5.3603,5.238,5.1884,5.0543,4.9061,4.8767,4.8331,4.8508,4.9175,4.9433,4.8903,4.8132,4.7675,4.7434,4.7234,4.6832,4.667,4.659,4.6468,4.6347,4.6307,4.6307,4.6307,4.6307,4.6307,4.6451,4.6679,4.6844,4.7341,4.7589,4.7808,4.7691,4.768,4.7514,4.7354,4.7094,4.7724,4.7941,4.7831,4.8156,4.863,4.893,4.9081,4.8998,4.8812,4.8687,4.8522,4.8024,4.7212,4.6406,4.571,4.493,4.4257,4.3976,4.3958,4.4163,4.4464,4.5033,4.5628,4.5881,4.6177,4.6469,4.6702,4.6658,4.6614,4.6483,4.6352,4.6308,4.6308,4.6308,4.6308,4.6308,4.6308,4.6308,4.6308,4.6308,4.6308,4.6308,4.6308,4.6308,4.6308,4.6308,4.6308,4.6308,4.6308,4.6308,4.6308,4.6289,4.6289,4.6191,4.6094,4.582,4.559,4.5312,4.5254,5.8523,5.8523,5.8523,5.8523,5.8523,5.8523,5.8212,5.7723,5.6689,5.5899,5.525,5.4262,5.3589,5.3514,5.456,5.4856,5.3902,5.4967,5.4634,5.3401,5.2075,5.1255,5.0559,4.9197,4.8211,4.8092,4.7893,4.7773,4.7693,4.7773,4.7893,4.7453,4.7234,4.6952,4.6751,4.6549,4.6347,4.6347,4.6347,4.6307,4.6307,4.6307,4.6307,4.6348,4.6451,4.6638,4.6948,4.732,4.7838,4.7874,4.7841,4.77,4.7664,4.7508,4.7398,4.7354,4.7941,4.8199,4.8156,4.8372,4.8716,4.891,4.8914,4.8749,4.8522,4.8356,4.8024,4.7568,4.674,4.6082,4.5488,4.4713,4.4161,4.3813,4.3733,4.4017,4.4379,4.4943,4.5409,4.5785,4.6036,4.6244,4.6396,4.6352,4.6352,4.6308,4.6308,4.6308,4.6308,4.6308,4.6308,4.6308,4.6308,4.6308,4.6308,4.6308,4.6308,4.6308,4.6308,4.6308,4.6308,4.6308,4.6308,4.6308,4.6308,4.6308,4.6308,4.6289,4.625,4.6059,4.5887,4.5609,4.5312,4.5019,4.4844,5.8523,5.8523,5.8487,5.8487,5.8487,5.8523,5.7615,5.6446,5.6082,5.4992,5.3702,5.349,5.2494,5.2152,5.2987,5.3678,5.349,5.3753,5.3227,5.2433,5.1578,5.0404,4.955,4.8569,4.7696,4.7717,4.7559,4.7358,4.7134,4.7115,4.7134,4.7014,4.6912,4.667,4.6509,4.6347,4.6307,4.6307,4.6307,4.6307,4.6307,4.6307,4.6327,4.6431,4.67,4.6968,4.7051,4.7713,4.802,4.7928,4.7786,4.769,4.7638,4.7528,4.7485,4.7644,4.8034,4.8292,4.8335,4.8632,4.8973,4.8955,4.877,4.8459,4.8252,4.792,4.7548,4.7072,4.6331,4.5674,4.5041,4.4349,4.3958,4.3772,4.3808,4.4087,4.4425,4.4892,4.5359,4.5668,4.5981,4.6211,4.6308,4.6308,4.6308,4.6308,4.6308,4.6308,4.6308,4.6308,4.6308,4.6308,4.6308,4.6308,4.6308,4.6308,4.6308,4.6308,4.6308,4.6308,4.6308,4.6308,4.6308,4.6308,4.6308,4.6308,4.6269,4.6191,4.6079,4.5852,4.5597,4.5277,4.4824,4.4394,4.4336,5.8523,5.8416,5.7472,5.758,5.8416,5.7436,5.6689,5.5789,5.4001,5.2251,5.0853,5.0698,5.0426,5.0426,5.1332,5.1486,5.0675,5.1539,5.0962,4.9953,4.8978,4.8723,4.8215,4.811,4.7675,4.7594,4.7412,4.7169,4.7027,4.6777,4.6591,4.6549,4.663,4.6509,4.6347,4.6307,4.6307,4.6307,4.6307,4.6307,4.6307,4.6327,4.6451,4.6762,4.6824,4.7382,4.7775,4.7874,4.7991,4.798,4.7817,4.7768,4.7768,4.7724,4.7756,4.7788,4.8155,4.8305,4.8472,4.8787,4.9102,4.9019,4.8687,4.8314,4.8024,4.7548,4.7051,4.6537,4.6066,4.5453,4.5003,4.4513,4.4123,4.3893,4.3965,4.4219,4.459,4.5058,4.541,4.5824,4.6016,4.6269,4.6308,4.6308,4.6308,4.6308,4.6308,4.6308,4.6308,4.6308,4.6308,4.6308,4.6308,4.6308,4.6308,4.6308,4.6308,4.6308,4.6308,4.6308,4.6308,4.6308,4.6308,4.6308,4.6289,4.6269,4.6191,4.6055,4.5863,4.5676,4.53,4.4883,4.4394,4.3867,4.3926,5.8523,5.8284,5.6761,5.6725,5.7508,5.6057,5.5103,5.4324,5.2342,5.041,4.8907,4.8907,4.8828,4.9201,5.0348,5.0037,4.9411,5.0092,4.9349,4.8727,4.8239,4.7904,4.7693,4.758,4.7689,4.7628,4.7464,4.7217,4.6968,4.6658,4.6513,4.6409,4.6307,4.6307,4.6307,4.6307,4.6307,4.6307,4.6307,4.641,4.6472,4.6555,4.6762,4.7196,4.7403,4.7567,4.7957,4.8011,4.8023,4.7991,4.7897,4.7811,4.79,4.8014,4.8068,4.8055,4.8041,4.8169,4.8335,4.8749,4.9081,4.9039,4.8687,4.8231,4.7734,4.7279,4.6865,4.639,4.5861,4.5392,4.5104,4.471,4.4454,4.4277,4.4414,4.4668,4.4961,4.5371,4.5625,4.5961,4.6133,4.6308,4.6308,4.6308,4.6308,4.6308,4.6308,4.6308,4.6308,4.6308,4.6308,4.6308,4.6308,4.6308,4.6308,4.6308,4.6308,4.6308,4.6308,4.6308,4.6308,4.6308,4.6308,4.6308,4.6289,4.625,4.6094,4.5879,4.5688,4.5457,4.4964,4.4394,4.4199,4.375,4.373,5.8426,5.8284,5.6627,5.5972,5.5826,5.4411,5.2987,5.1961,5.1293,5.0254,4.8925,4.8828,4.863,4.8688,4.9802,4.9175,4.8547,5.0287,5.0098,4.7984,4.8385,4.8392,4.7893,4.7527,4.7838,4.7714,4.7672,4.7506,4.7134,4.7031,4.6782,4.6555,4.6555,4.6451,4.6348,4.6307,4.6307,4.6327,4.6389,4.6658,4.6804,4.6948,4.7217,4.7526,4.7941,4.8062,4.7991,4.8043,4.8032,4.7854,4.7788,4.7874,4.8222,4.8004,4.8035,4.8229,4.7858,4.7734,4.7775,4.8583,4.8977,4.9039,4.8687,4.8252,4.7755,4.732,4.6927,4.6516,4.58,4.547,4.5217,4.498,4.48,4.4769,4.4863,4.5078,4.5351,4.5644,4.5918,4.6055,4.6172,4.6308,4.6308,4.6308,4.6308,4.6308,4.6308,4.6308,4.6308,4.6308,4.6308,4.6308,4.6308,4.6308,4.6308,4.6308,4.6308,4.6308,4.6308,4.6308,4.6308,4.6308,4.6308,4.6308,4.6289,4.625,4.5976,4.5683,4.5355,4.4925,4.4358,4.3867,4.373,4.3691,4.3691,5.6906,5.6689,5.4039,5.2911,5.2835,5.2342,5.1731,5.1178,5.0215,4.9241,4.863,4.8511,4.8251,4.819,4.8273,4.8233,4.7797,4.8037,4.7818,4.7456,4.8242,4.8042,4.7734,4.7879,4.8127,4.8148,4.8127,4.8128,4.7962,4.7631,4.7424,4.7258,4.7092,4.7072,4.6844,4.6803,4.6865,4.7175,4.7217,4.7217,4.705,4.7299,4.7526,4.7749,4.8208,4.8309,4.8108,4.8138,4.7941,4.7788,4.7745,4.8004,4.8333,4.8156,4.802,4.7899,4.7527,4.7424,4.7693,4.8335,4.8791,4.8832,4.8729,4.8397,4.8107,4.7713,4.7258,4.6762,4.6101,4.5826,4.5586,4.5185,4.4964,4.5,4.5156,4.5391,4.5664,4.5957,4.6191,4.6211,4.6308,4.6308,4.6308,4.6308,4.6308,4.6308,4.6308,4.6308,4.6308,4.6308,4.6308,4.6308,4.6308,4.6308,4.6308,4.6308,4.6308,4.6308,4.6308,4.6308,4.6308,4.6308,4.6308,4.6308,4.6289,4.625,4.5879,4.5469,4.4844,4.4316,4.3906,4.3711,4.3711,4.3691,4.3691,5.6082,5.5753,5.267,5.1293,5.1216,5.0737,5.0387,5.0121,4.9276,4.867,4.8433,4.842,4.8285,4.8003,4.7798,4.7596,4.7293,4.7523,4.7649,4.732,4.7755,4.7962,4.8149,4.8355,4.8583,4.8603,4.8625,4.8584,4.8335,4.8086,4.7859,4.7651,4.7693,4.761,4.7465,4.7465,4.7361,4.7506,4.7423,4.7296,4.7334,4.7541,4.7727,4.8055,4.8325,4.8578,4.8356,4.8156,4.7961,4.7918,4.7984,4.8156,4.8401,4.8161,4.7897,4.7443,4.6969,4.701,4.7568,4.7879,4.8439,4.9019,4.877,4.8604,4.8354,4.7918,4.7482,4.7024,4.6518,4.6218,4.5854,4.5428,4.5355,4.541,4.5586,4.584,4.5918,4.6211,4.6269,4.6289,4.6308,4.6308,4.6308,4.6308,4.6308,4.6308,4.6308,4.6308,4.6308,4.6308,4.6308,4.6308,4.6308,4.6308,4.6308,4.6308,4.6308,4.6308,4.6308,4.6308,4.6308,4.6308,4.6308,4.6308,4.6289,4.6152,4.5723,4.5234,4.4629,4.418,4.3828,4.3691,4.3691,4.3691,4.3691,5.6009,5.5544,5.257,5.1139,5.093,4.9656,4.8832,4.8479,4.879,4.8701,4.8317,4.8721,4.8539,4.8293,4.8232,4.7983,4.7755,4.7714,4.7734,4.7879,4.8231,4.8356,4.8563,4.8812,4.8936,4.9039,4.9019,4.8812,4.8501,4.8459,4.8231,4.7983,4.7982,4.8086,4.8127,4.7961,4.7816,4.7773,4.7646,4.7472,4.7466,4.7697,4.7923,4.8233,4.8613,4.8676,4.8544,4.8329,4.8329,4.8329,4.8372,4.863,4.8491,4.7789,4.7397,4.6904,4.627,4.6825,4.7589,4.7879,4.8314,4.8977,4.906,4.8832,4.8455,4.8057,4.7617,4.7073,4.6523,4.6345,4.6102,4.5962,4.582,4.5957,4.6133,4.6211,4.623,4.6289,4.6289,4.6308,4.6308,4.6308,4.6308,4.6308,4.6308,4.6308,4.6308,4.6308,4.6308,4.6308,4.6308,4.6308,4.6308,4.6308,4.6308,4.6308,4.6308,4.6308,4.6308,4.6308,4.6308,4.6308,4.6308,4.6308,4.6308,4.6055,4.5508,4.498,4.4433,4.4043,4.375,4.3691,4.3691,4.3691,4.3691,5.4411,5.4039,5.093,4.9573,4.9499,4.9076,4.8849,4.8731,4.8899,4.8723,4.8312,4.8438,4.8399,4.788,4.788,4.7838,4.7921,4.8024,4.8169,4.8377,4.8646,4.8832,4.8936,4.9019,4.9102,4.9102,4.9081,4.9039,4.8936,4.8874,4.8853,4.8707,4.8584,4.8707,4.8643,4.843,4.8284,4.8095,4.7904,4.7622,4.7614,4.787,4.8012,4.8222,4.8779,4.8759,4.8587,4.8437,4.8437,4.8458,4.8394,4.8544,4.844,4.7906,4.7453,4.7066,4.6883,4.711,4.7961,4.8169,4.8438,4.8936,4.9059,4.8867,4.8509,4.8149,4.7746,4.7113,4.6647,4.6484,4.6284,4.6165,4.6094,4.6191,4.6308,4.6308,4.6308,4.6308,4.6308,4.6308,4.6308,4.6308,4.6308,4.6308,4.6308,4.6308,4.6308,4.6308,4.6308,4.6308,4.6308,4.6308,4.6308,4.6308,4.6308,4.6308,4.6308,4.6308,4.6308,4.6308,4.6308,4.6308,4.6308,4.6308,4.6308,4.584,4.5215,4.4766,4.4531,4.4023,4.373,4.3711,4.3691,4.3691,4.3691,5.334,5.2442,5.0205,4.9159,4.922,4.9207,4.9114,4.8952,4.9001,4.8755,4.8401,4.8547,4.8462,4.8356,4.8335,4.8335,4.8356,4.8563,4.8687,4.877,4.8977,4.9039,4.9102,4.9102,4.9102,4.9102,4.9102,4.9081,4.9102,4.9102,4.9081,4.906,4.9102,4.9102,4.8975,4.8805,4.8568,4.8354,4.8116,4.7768,4.7768,4.7984,4.807,4.822,4.8759,4.8802,4.8716,4.8673,4.8673,4.863,4.8587,4.8394,4.8247,4.7815,4.7218,4.6853,4.6983,4.7398,4.8126,4.8377,4.8687,4.8871,4.8887,4.8544,4.8286,4.7966,4.7578,4.7105,4.684,4.6575,4.642,4.6308,4.6289,4.6308,4.6308,4.6308,4.6308,4.6308,4.6308,4.6308,4.6308,4.6308,4.6308,4.6308,4.6308,4.6308,4.6308,4.6308,4.6308,4.6308,4.6308,4.6308,4.6308,4.6308,4.6308,4.6308,4.6308,4.6308,4.6308,4.6308,4.6308,4.6308,4.6308,4.6308,4.6308,4.582,4.5351,4.5078,4.4785,4.4258,4.3789,4.3711,4.3691,4.3691,4.3691,5.2831,5.1331,5.0091,4.9592,4.9618,4.9569,4.9343,4.9049,4.9007,4.8797,4.8585,4.8894,4.9041,4.8894,4.8894,4.8915,4.8894,4.8977,4.8977,4.9081,4.9081,4.9102,4.9102,4.9102,4.9102,4.9102,4.9102,4.9102,4.9102,4.9102,4.9102,4.9102,4.9102,4.9102,4.9059,4.8887,4.863,4.8415,4.8113,4.7811,4.7854,4.807,4.8394,4.8437,4.8802,4.9059,4.9059,4.9059,4.9102,4.893,4.8716,4.8394,4.7928,4.7531,4.6917,4.6968,4.7203,4.7768,4.8269,4.8457,4.8622,4.8721,4.863,4.8113,4.7831,4.7658,4.7311,4.692,4.6614,4.6464,4.6352,4.6308,4.6308,4.6308,4.6308,4.6308,4.6308,4.6308,4.6308,4.6308,4.6308,4.6308,4.6308,4.6308,4.6308,4.6308,4.6308,4.6308,4.6308,4.6308,4.6308,4.6308,4.6308,4.6308,4.6308,4.6308,4.6308,4.6308,4.6308,4.6308,4.6308,4.6308,4.6308,4.6308,4.6289,4.6055,4.5683,4.5312,4.4902,4.4433,4.4023,4.3769,4.3691,4.3691,4.3691,5.3312,5.1702,5.0279,4.9516,4.9195,4.9154,4.9133,4.9064,4.9064,4.9,4.8957,4.9039,4.9102,4.9102,4.9102,4.9102,4.9102,4.9102,4.9102,4.9102,4.9102,4.9102,4.9102,4.9102,4.9102,4.9102,4.9102,4.9102,4.9102,4.9102,4.9102,4.9102,4.9102,4.9102,4.9059,4.8887,4.8587,4.8458,4.8329,4.807,4.7918,4.8156,4.8394,4.8544,4.8845,4.9059,4.9102,4.9102,4.9102,4.9016,4.863,4.807,4.7378,4.7128,4.7178,4.7399,4.7772,4.8281,4.8493,4.8555,4.8486,4.8376,4.8113,4.7658,4.7354,4.7224,4.7007,4.6658,4.644,4.6352,4.6308,4.6308,4.6308,4.6308,4.6308,4.6308,4.6308,4.6308,4.6308,4.6308,4.6308,4.6308,4.6308,4.6308,4.6308,4.6308,4.6308,4.6308,4.6308,4.6308,4.6308,4.6308,4.6308,4.6308,4.6308,4.6308,4.6308,4.6308,4.6308,4.6308,4.6308,4.6308,4.6308,4.6308,4.625,4.6074,4.5801,4.5332,4.4922,4.4551,4.418,4.3887,4.373,4.3691,4.3691,5.3179,5.1236,5.0355,4.9738,4.9344,4.9301,4.9257,4.9124,4.9102,4.9102,4.9102,4.9102,4.9102,4.9102,4.9102,4.9102,4.9102,4.9102,4.9102,4.9102,4.9102,4.9102,4.9102,4.9102,4.9102,4.9102,4.9102,4.9102,4.9102,4.9102,4.9102,4.9102,4.9102,4.9102,4.9059,4.8802,4.8673,4.8716,4.8673,4.8501,4.8263,4.8544,4.8716,4.8845,4.893,4.9102,4.9102,4.9059,4.8973,4.8716,4.8286,4.7768,4.7398,4.7488,4.7748,4.805,4.8354,4.8759,4.8716,4.8544,4.8243,4.8027,4.7638,4.7181,4.7094,4.6963,4.6702,4.6396,4.6352,4.6308,4.6308,4.6308,4.6308,4.6308,4.6308,4.6308,4.6308,4.6308,4.6308,4.6308,4.6308,4.6308,4.6308,4.6308,4.6308,4.6308,4.6308,4.6308,4.6308,4.6308,4.6308,4.6308,4.6308,4.6308,4.6308,4.6308,4.6308,4.6308,4.6308,4.6308,4.6308,4.6308,4.6308,4.6308,4.6289,4.6211,4.5898,4.5508,4.5156,4.4844,4.4414,4.3984,4.3848,4.3691,4.3691,5.2989,5.0483,5.0299,5.0017,4.9658,4.9614,4.9401,4.9144,4.9102,4.9102,4.9102,4.9102,4.9102,4.9102,4.9102,4.9102,4.9102,4.9102,4.9102,4.9102,4.9102,4.9102,4.9102,4.9102,4.9102,4.9102,4.9102,4.9102,4.9102,4.9102,4.9102,4.9102,4.9102,4.9102,4.9102,4.9102,4.9016,4.9016,4.9016,4.9059,4.9059,4.9102,4.9059,4.9059,4.9102,4.9102,4.9102,4.8973,4.8759,4.8458,4.8047,4.7658,4.7571,4.7811,4.8113,4.8415,4.8544,4.863,4.8501,4.8199,4.7941,4.7615,4.7181,4.692,4.6769,4.6658,4.6396,4.6308,4.6308,4.6308,4.6308,4.6308,4.6308,4.6308,4.6308,4.6308,4.6308,4.6308,4.6308,4.6308,4.6308,4.6308,4.6308,4.6308,4.6308,4.6308,4.6308,4.6308,4.6308,4.6308,4.6308,4.6308,4.6308,4.6308,4.6308,4.6308,4.6308,4.6308,4.6308,4.6308,4.6308,4.6308,4.6308,4.6308,4.6269,4.625,4.6113,4.5801,4.5469,4.5016,4.459,4.4121,4.3828,4.3691,4.3691,5.3601,5.0355,4.9998,4.9616,4.9273,4.923,4.9144,4.9102,4.9102,4.9102,4.9102,4.9102,4.9102,4.9102,4.9102,4.9102,4.9102,4.9102,4.9102,4.9102,4.9102,4.9102,4.9102,4.9102,4.9102,4.9102,4.9102,4.9102,4.9102,4.9102,4.9102,4.9102,4.9059,4.9059,4.9102,4.9102,4.9059,4.9059,4.9102,4.9102,4.9102,4.9102,4.9102,4.9102,4.9102,4.9102,4.9016,4.8695,4.8523,4.8286,4.8047,4.7745,4.7788,4.8027,4.8329,4.8372,4.8544,4.8372,4.8156,4.7724,4.7398,4.7181,4.6789,4.6527,4.6483,4.6483,4.6308,4.6308,4.6308,4.6308,4.6308,4.6308,4.6308,4.6308,4.6308,4.6308,4.6308,4.6308,4.6308,4.6308,4.6308,4.6308,4.6308,4.6308,4.6308,4.6308,4.6308,4.6308,4.6308,4.6308,4.6308,4.6308,4.6308,4.6308,4.6308,4.6308,4.6308,4.6308,4.6308,4.6308,4.6308,4.6308,4.6308,4.6308,4.6308,4.6289,4.6133,4.6016,4.5566,4.5117,4.4687,4.4258,4.3906,4.3691,4.3691]},{"header":{"parameterUnit":"m.s-1","parameterCategory":1,"la1":31.0,"la2":29.5877,"lo1":-88.7671,"lo2":-86.6584,"dx":0.0162,"dy":0.0185,"nx":115,"ny":88,"refTime":"2022-11-21T06:00:00:Z","depth":0,"parameterNumber":3,"parameterNumberName":"V-component_of_WINDS"},"data":[0.0,0.0,0.0,0.0,0.0,0.0,0.0,0.0,0.0,0.0,0.0,0.0,0.0,0.0,0.0,0.0,0.0,0.0,0.0,0.0,0.0,0.0,0.0,0.0,0.0,0.0,0.0,0.0,0.0,0.0,0.0,0.0,0.0,0.0,0.0,0.0,0.0,0.0,0.0,0.0,0.0,0.0,0.0,0.0,0.0,0.0,0.0,0.0,0.0,0.0,0.0,0.0,0.0,0.0,0.0,0.0,0.0,0.0,0.0,0.0,0.0,0.0,0.0,0.0,0.0,0.0,0.0,0.0,0.0,0.0,0.0,0.0,0.0,0.0,0.0,0.0,0.0,0.0,0.0,0.0,0.0,0.0,0.0,0.0,0.0,0.0,0.0,0.0,0.0,0.0,0.0,0.0,0.0,0.0,0.0,0.0,0.0,0.0,0.0,0.0,0.0,0.0,0.0,0.0,0.0,0.0,0.0,0.0,0.0,0.0,0.0,0.0,0.0,0.0,0.0,0.0,0.0,0.0,0.0,0.0,0.0,0.0,0.0,0.0,0.0,0.0,0.0,0.0,0.0,0.0,0.0,0.0,0.0,0.0,0.0,0.0,0.0,0.0,0.0,0.0,0.0,0.0,0.0,0.0,0.0,0.0,0.0,0.0,0.0,0.0,0.0,0.0,0.0,0.0,0.0,0.0,0.0,0.0,0.0,0.0,0.0,0.0,0.0,0.0,0.0,0.0,0.0,0.0,0.0,0.0,0.0,0.0,0.0,0.0,0.0,0.0,0.0,0.0,0.0,0.0,0.0,0.0,0.0,0.0,0.0,0.0,0.0,0.0,0.0,0.0,0.0,0.0,0.0,0.0,0.0,0.0,0.0,0.0,0.0,0.0,0.0,0.0,0.0,0.0,0.0,0.0,0.0,0.0,0.0,0.0,0.0,0.0,0.0,0.0,0.0,0.0,0.0,0.0,0.0,0.0,0.0,0.0,0.0,0.0,0.0,0.0,0.0,0.0,0.0,0.0,0.0,0.0,0.0,0.0,0.0,0.0,0.0,0.0,0.0,0.0,0.0,0.0,0.0,0.0,0.0,0.0,0.0,0.0,0.0,0.0,0.0,0.0,0.0,0.0,0.0,0.0,0.0,0.0,0.0,0.0,0.0,0.0,0.0,0.0,0.0,0.0,0.0,0.0,0.0,0.0,0.0,0.0,0.0,0.0,0.0,0.0,0.0,0.0,0.0,0.0,0.0,0.0,0.0,0.0,0.0,0.0,0.0,0.0,0.0,0.0,0.0,0.0,0.0,0.0,0.0,0.0,0.0,0.0,0.0,0.0,0.0,0.0,0.0,0.0,0.0,0.0,0.0,0.0,0.0,0.0,0.0,0.0,0.0,0.0,0.0,0.0,0.0,0.0,0.0,0.0,0.0,0.0,0.0,0.0,0.0,0.0,0.0,0.0,0.0,0.0,0.0,0.0,0.0,0.0,0.0,0.0,0.0,0.0,0.0,0.0,0.0,0.0,0.0,0.0,0.0,0.0,0.0,0.0,0.0,0.0,0.0,0.0,0.0,0.0,0.0,0.0,0.0,0.0,0.0,0.0,0.0,0.0,0.0,0.0,0.0,0.0,0.0,0.0,0.0,0.0,0.0,0.0,0.0,0.0,0.0,0.0,0.0,0.0,0.0,0.0,0.0,0.0,0.0,0.0,0.0,0.0,0.0,0.0,0.0,0.0,0.0,0.0,0.0,0.0,0.0,0.0,0.0,0.0,0.0,0.0,0.0,0.0,0.0,0.0,0.0,0.0,0.0,0.0,0.0,0.0,0.0,0.0,0.0,0.0,0.0,0.0,0.0,0.0,0.0,0.0,0.0,0.0,0.0,0.0,0.0,0.0,0.0,0.0,0.0,0.0,0.0,0.0,0.0,0.0,0.0,0.0,0.0,0.0,0.0,0.0,0.0,0.0,0.0,0.0,0.0,0.0,0.0,0.0,0.0,0.0,0.0,0.0,0.0,0.0,0.0,0.0,0.0,0.0,0.0,0.0,0.0,0.0,0.0,0.0,0.0,0.0,0.0,0.0,0.0,0.0,0.0,0.0,0.0,0.0,0.0,0.0,0.0,0.0,0.0,0.0,0.0,0.0,0.0,0.0,0.0,0.0,0.0,0.0,0.0,0.0,0.0,0.0,0.0,0.0,0.0,0.0,0.0,0.0,0.0,0.0,0.0,0.0,0.0,0.0,0.0,0.0,0.0,0.0,0.0,0.0,0.0,0.0,0.0,0.0,0.0,0.0,0.0,0.0,0.0,0.0,0.0,0.0,0.0,0.0,0.0,0.0,0.0,0.0,0.0,0.0,0.0,0.0,0.0,0.0,0.0,0.0,0.0,0.0,0.0,0.0,0.0,0.0,0.0,0.0,0.0,0.0,0.0,0.0,0.0,0.0,0.0,0.0,0.0,0.0,0.0,0.0,0.0,0.0,0.0,0.0,0.0,0.0,0.0,0.0,0.0,0.0,0.0,0.0,0.0,0.0,0.0,0.0,0.0,0.0,0.0,0.0,0.0,0.0,0.0,0.0,0.0,0.0,0.0,0.0,0.0,0.0,0.0,0.0,0.0,0.0,0.0,0.0,0.0,0.0,0.0,0.0,0.0,0.0,0.0,0.0,0.0,0.0,0.0,0.0,0.0,0.0,0.0,0.0,0.0,0.0,0.0,0.0,0.0,0.0,0.0,0.0,0.0,0.0,0.0,0.0,0.0,0.0,0.0,0.0,0.0,0.0,0.0,0.0,0.0,0.0,0.0,0.0,0.0,0.0,0.0,0.0,0.0,0.0,0.0,0.0,0.0,0.0,0.0,0.0,0.0,0.0,0.0,0.0,0.0,0.0,0.0,0.0,0.0,0.0,0.0,0.0,0.0,0.0,0.0,0.0,0.0,0.0,0.0,0.0,0.0,0.0,0.0,0.0,0.0,0.0,0.0,0.0,0.0,0.0,0.0,0.0,0.0,0.0,0.0,0.0,0.0,0.0,0.0,0.0,0.0,0.0,0.0,0.0,0.0,0.0,0.0,0.0,0.0,0.0,0.0,0.0,0.0,0.0,0.0,0.0,0.0,0.0,0.0,0.0,0.0,0.0,0.0,0.0,0.0,0.0,0.0,0.0,0.0,0.0,0.0,0.0,0.0,0.0,0.0,0.0,0.0,0.0,0.0,0.0,0.0,0.0,0.0,0.0,0.0,0.0,0.0,0.0,0.0,0.0,0.0,0.0,0.0,0.0,0.0,0.0,0.0,0.0,0.0,0.0,0.0,0.0,0.0,0.0,0.0,0.0,0.0,0.0,0.0,0.0,0.0,0.0,0.0,0.0,0.0,0.0,0.0,0.0,0.0,0.0,0.0,0.0,0.0,0.0,0.0,0.0,0.0,0.0,0.0,0.0,0.0,0.0,0.0,0.0,0.0,0.0,0.0,0.0,0.0,0.0,0.0,0.0,0.0,0.0,0.0,0.0,0.0,0.0,0.0,0.0,0.0,0.0,0.0,0.0,0.0,0.0,0.0,0.0,0.0,0.0,0.0,0.0,0.0,0.0,0.0,0.0,0.0,0.0,0.0,0.0,0.0,0.0,0.0,0.0,0.0,0.0,0.0,0.0,0.0,0.0,0.0,0.0,0.0,0.0,0.0,0.0,0.0,0.0,0.0,0.0,0.0,0.0,0.0,0.0,0.0,0.0,0.0,0.0,0.0,0.0,0.0,0.0,0.0,0.0,0.0,0.0,0.0,0.0,0.0,0.0,0.0,0.0,0.0,0.0,0.0,0.0,0.0,0.0,0.0,0.0,0.0,0.0,0.0,0.0,0.0,0.0,0.0,0.0,0.0,0.0,0.0,0.0,0.0,0.0,0.0,0.0,0.0,0.0,0.0,0.0,0.0,0.0,0.0,0.0,0.0,0.0,0.0,0.0,0.0,0.0,0.0,0.0,0.0,0.0,0.0,0.0,0.0,0.0,0.0,0.0,0.0,0.0,0.0,0.0,0.0,0.0,0.0,0.0,0.0,0.0,0.0,0.0,0.0,0.0,0.0,0.0,0.0,0.0,0.0,0.0,0.0,0.0,0.0,0.0,0.0,0.0,0.0,0.0,0.0,0.0,0.0,0.0,0.0,0.0,0.0,0.0,0.0,0.0,0.0,0.0,0.0,0.0,0.0,0.0,0.0,0.0,0.0,0.0,0.0,0.0,0.0,0.0,0.0,0.0,0.0,0.0,0.0,0.0,0.4327,0.0,0.0,0.0,0.5198,0.0,0.0,0.0,0.0,0.0,0.0,0.0,0.0,0.0,0.0,0.0,0.0,0.0,0.0,0.0,0.0,0.0,0.0,0.0,0.0,0.0,0.0,0.0,0.0,0.0,0.0,0.0,0.0,0.0,0.0,0.0,0.0,0.0,0.0,0.0,0.0,0.0,0.0,0.0,0.0,0.0,0.0,0.0,0.0,0.0,0.0,0.0,0.0,0.0,0.0,0.0,0.0,0.0,0.0,0.0,0.0,0.0,0.0,0.0,0.0,0.0,0.0,0.0,0.0,0.0,0.0,0.0,0.0,0.0,0.0,0.0,0.0,0.0,0.0,0.0,0.0,0.0,0.0,0.0,0.0,0.0,0.0,0.0,0.0,0.0,0.0,0.0,0.0,0.0,0.0,0.0,0.0,0.0,0.0,0.0,0.0,0.0,0.0,0.0,0.0,0.0,0.0,0.0,0.0,0.0,0.0,0.0,0.0,0.0,0.0,0.4666,0.4873,0.4938,0.5166,0.5556,0.0,0.0,0.0,0.0,0.0,0.0,0.0,0.0,0.0,0.0,0.0,0.0,0.0,0.0,0.0,0.0,0.0,0.0,0.0,0.0,0.0,0.0,0.0,0.0,0.0,0.0,0.0,0.0,0.0,0.0,0.0,0.0,0.0,0.0,0.0,0.0,0.0,0.0,0.0,0.0,0.0,0.0,0.0,0.0,0.0,0.0,0.0,0.0,0.0,0.0,0.0,0.0,0.0,0.0,0.0,0.0,0.0,0.0,0.0,0.0,0.0,0.0,0.0,0.0,0.0,0.0,0.0,0.0,0.0,0.0,0.0,0.0,0.0,0.0,0.0,0.0,0.0,0.0,0.0,0.0,0.0,0.0,0.0,0.0,0.0,0.0,0.0,0.0,0.0,0.0,0.0,0.0,0.0,0.0,0.0,0.0,0.0,0.0,0.0,0.0,0.0,0.0,0.0,0.0,0.0,0.0,0.0,0.0,0.0,0.0,0.0,0.0,0.5538,0.5781,0.6099,0.0,0.0,0.0,0.0,0.0,0.0,0.0,0.0,0.0,0.0,0.0,0.0,0.0,0.0,0.0,0.0,0.0,0.0,0.0,0.0,0.0,0.0,0.0,0.0,0.0,0.0,0.0,0.0,0.0,0.0,0.0,0.0,0.0,0.0,0.0,0.0,0.0,0.0,0.0,0.0,0.0,0.0,0.0,0.0,0.0,0.0,0.0,0.0,0.0,0.0,0.0,0.0,0.0,0.0,0.0,0.0,0.0,0.0,0.0,0.0,0.0,0.0,0.0,0.0,0.0,0.0,0.0,0.0,0.0,0.0,0.0,0.0,0.0,0.0,0.0,0.0,0.0,0.0,0.0,0.0,0.0,0.0,0.0,0.0,0.0,0.0,0.0,0.0,0.0,0.0,0.0,0.0,0.0,0.0,0.0,0.0,0.0,0.0,0.0,0.0,0.0,0.0,0.0,0.0,0.0,0.0,0.0,0.0,0.0,0.0,0.5736,0.6009,0.6414,0.0,0.6973,0.0,0.0,0.0,0.0,0.0,0.0,0.0,0.0,0.0,0.0,0.0,0.0,0.0,0.0,0.0,0.0,0.0,0.0,0.0,0.0,0.0,0.0,0.0,0.0,0.0,0.0,0.0,0.0,0.0,0.0,0.0,0.0,0.0,0.0,0.0,0.0,0.0,0.0,0.0,0.0,0.0,0.0,0.0,0.0,0.0,0.0,0.0,0.0,0.0,0.0,0.0,0.0,0.0,0.0,0.0,0.0,0.0,0.0,0.0,0.0,0.0,0.0,0.0,0.0,0.0,0.0,0.0,0.0,0.0,0.0,0.0,0.0,0.0,0.0,0.0,0.0,0.0,0.0,0.0,0.0,0.0,0.0,0.0,0.0,0.0,0.0,0.0,0.0,0.0,0.0,0.0,0.0,0.0,0.0,0.0,0.0,0.0,0.0,0.0,0.0,0.0,0.0,0.0,0.0,0.0,0.0,0.0,0.0,0.0,0.0,0.5892,0.6259,0.673,0.7064,0.0,0.0,0.0,0.0,0.0,0.0,0.0,0.0,0.0,0.0,0.0,0.0,0.0,0.0,0.0,0.0,0.0,0.0,0.0,0.0,0.0,0.0,0.0,0.0,0.0,0.0,0.0,0.0,0.0,0.0,0.0,0.0,0.0,0.0,0.0,0.0,0.0,0.0,0.0,0.0,0.0,0.0,0.0,0.0,0.0,0.0,0.0,0.0,0.0,0.0,0.0,0.0,0.0,0.0,0.0,0.0,0.0,0.0,0.0,0.0,0.0,0.0,0.0,0.0,0.0,0.0,0.0,0.0,0.0,0.0,0.0,0.0,0.0,0.0,0.0,0.0,0.0,0.0,0.0,0.0,0.0,0.0,0.0,0.0,0.0,0.0,0.0,0.0,0.0,0.0,0.0,0.0,0.0,0.0,0.0,0.0,0.0,0.0,0.0,0.0,0.0,0.0,0.0,0.0,0.0,0.0,0.0,0.0,0.0,0.0,0.5712,0.618,0.686,0.7092,0.7305,0.7509,0.0,0.0,0.0,0.0,0.0,0.0,0.0,0.0,0.0,0.0,0.0,0.0,0.0,0.0,0.0,0.0,0.0,0.0,0.0,0.0,0.0,0.0,0.0,0.0,0.0,0.0,0.0,0.0,0.0,0.0,0.0,0.0,0.0,0.0,0.0,0.0,0.0,0.0,0.0,0.0,0.0,0.0,0.0,0.0,0.0,0.0,0.0,0.0,0.0,0.0,0.0,0.0,0.0,0.0,0.0,0.0,0.0,0.0,0.0,0.0,0.0,0.0,0.0,0.0,0.0,0.0,0.0,0.0,0.0,0.0,0.0,0.0,0.0,0.0,0.0,0.0,0.0,0.0,0.0,0.0,0.0,0.0,0.0,0.0,0.0,0.0,0.0,0.0,0.0,0.0,0.0,0.0,0.0,0.0,0.0,0.0,0.0,0.0,0.0,0.0,0.0,0.0,0.0,0.0,0.0,0.0,0.0,0.0,0.549,0.5958,0.6802,0.8054,0.771,0.7659,0.0,0.0,0.0,0.0,0.0,0.0,0.0,0.0,0.0,0.0,0.0,0.0,0.0,0.0,0.0,0.0,0.0,0.0,0.0,0.0,0.0,0.0,0.0,0.0,0.0,0.0,0.0,0.0,0.0,0.0,0.0,0.0,0.0,0.0,0.0,0.0,0.0,0.0,0.0,0.0,0.0,0.0,0.0,0.0,0.0,0.0,0.0,0.0,0.0,0.0,0.0,0.0,0.0,0.0,0.0,0.0,0.0,0.0,0.0,0.0,0.0,0.0,0.0,0.0,0.0,0.0,0.0,0.0,0.0,0.0,0.0,0.0,0.0,0.0,0.0,0.0,0.0,0.0,0.0,0.0,0.0,0.0,0.0,0.0,0.0,0.0,0.0,0.0,0.0,0.0,0.0,0.0,0.0,0.0,0.0,0.0,0.0,0.0,0.0,0.0,0.0,0.0,0.0,0.0,0.0,0.0,0.0,0.0,0.0,0.5572,0.6776,0.7864,0.8725,0.8283,0.8126,0.0,0.0,0.0,0.0,0.0,0.0,0.0,0.0,0.0,0.0,0.0,0.0,0.0,0.0,0.0,0.0,0.0,0.0,0.0,0.0,0.0,0.0,0.0,0.0,0.0,0.0,0.0,0.0,0.0,0.0,0.0,0.0,0.0,0.0,0.0,0.0,0.0,0.0,0.0,0.0,0.0,0.0,0.0,0.0,0.0,0.0,0.0,0.0,0.0,0.0,0.0,0.0,0.0,0.0,0.0,0.0,0.0,0.0,0.0,0.0,0.0,0.0,0.0,0.0,0.0,0.0,0.0,0.0,0.0,0.0,0.0,0.0,0.0,0.0,0.0,0.0,0.0,0.0,0.0,0.0,0.0,0.0,0.0,0.0,0.0,0.0,0.0,0.0,0.0,0.0,0.0,0.0,0.0,0.0,0.0,0.0,0.0,0.0,0.0,0.0,0.0,0.0,0.0,0.0,0.0,0.0,0.0,0.0,0.0,0.6308,0.7822,0.8938,0.9576,0.9244,0.8997,0.0,0.0,0.0,0.0,0.0,0.0,0.0,0.0,0.0,0.0,0.0,0.0,0.0,0.0,0.0,0.0,0.0,0.0,0.0,0.0,0.0,0.0,0.0,0.0,0.0,0.0,0.0,0.0,0.0,0.0,0.0,0.0,0.0,0.0,0.0,0.0,0.0,0.0,0.0,0.0,0.0,0.0,0.0,0.0,0.0,0.0,0.0,0.0,0.0,0.0,0.0,0.0,0.0,0.0,0.0,0.0,0.0,0.0,0.0,0.0,0.0,0.0,0.0,0.0,0.0,0.0,0.0,0.0,0.0,0.0,0.0,0.0,0.0,0.0,0.0,0.0,0.0,0.0,0.0,0.0,0.0,0.0,0.0,0.0,0.0,0.0,0.0,0.0,0.0,0.0,0.0,0.0,0.0,0.0,0.0,0.0,0.0,0.0,0.0,0.0,0.0,0.0,0.0,0.0,0.0,0.0,0.0,0.0,0.6048,0.7788,0.9109,1.0137,1.0707,1.0694,1.0367,0.0,0.0,0.0,0.0,0.0,0.0,0.0,0.0,0.0,0.0,0.0,0.0,0.0,0.0,0.0,0.0,0.0,0.0,0.0,0.0,0.0,0.0,0.0,0.0,0.0,0.0,0.0,0.0,0.0,0.0,0.0,0.0,0.0,0.0,0.0,0.0,0.0,0.0,0.0,0.0,0.0,0.0,0.0,0.0,0.0,0.0,0.0,0.0,0.0,0.0,0.0,0.0,0.0,0.0,0.0,0.0,0.0,0.0,0.0,0.0,0.0,0.0,0.0,0.0,0.0,0.0,0.0,0.0,0.0,0.0,0.0,0.0,0.0,0.0,0.0,0.0,0.0,0.0,0.0,0.0,0.0,0.0,0.0,0.0,0.0,0.0,0.0,0.0,0.0,0.0,0.0,0.0,0.0,0.0,0.0,0.0,0.0,0.0,0.0,0.0,0.0,0.0,0.0,0.0,0.0,0.0,0.0,0.0,0.0,0.9447,1.1368,1.2742,1.3419,1.2933,1.2263,0.0,0.0,0.0,0.0,0.0,0.0,0.0,0.0,0.0,0.0,0.0,0.0,0.0,0.0,0.0,0.0,0.0,0.0,0.0,0.0,0.0,0.0,0.0,0.0,0.0,0.0,0.0,0.0,0.0,0.0,0.0,0.0,0.0,0.0,0.0,0.0,0.0,0.0,0.0,0.0,0.0,0.0,0.0,0.0,0.0,0.0,0.0,0.0,0.0,0.0,0.0,0.0,0.0,0.0,0.0,0.0,0.0,0.0,0.0,0.0,0.0,0.0,0.0,0.0,0.0,0.0,0.0,0.0,0.0,0.0,0.0,0.0,0.0,0.0,0.0,0.0,0.0,0.0,0.0,0.0,0.0,0.0,0.0,0.0,0.0,0.0,0.0,0.0,0.0,0.0,0.0,0.0,0.0,0.0,0.0,0.0,0.0,0.0,0.0,0.0,0.0,0.0,0.0,0.0,0.0,0.0,0.0,0.0,0.0,1.2643,1.3904,1.4958,1.5825,1.5245,1.4261,1.2811,0.0,0.0,0.0,0.0,0.0,0.0,0.0,0.0,0.0,0.0,0.0,0.0,0.0,0.0,0.0,0.0,0.0,0.0,0.0,0.0,0.0,0.0,0.0,0.0,0.0,0.0,0.0,0.0,0.0,0.0,0.0,0.0,0.0,0.0,0.0,0.0,0.0,0.0,0.0,0.0,0.0,0.0,0.0,0.0,0.0,0.0,0.0,0.0,0.0,0.0,0.0,0.0,0.0,0.0,0.0,0.0,0.0,0.0,0.0,0.0,0.0,0.0,0.0,0.0,0.0,0.0,0.0,0.0,0.0,0.0,0.0,0.0,0.0,0.0,0.0,0.0,0.0,0.0,0.0,0.0,0.0,0.0,0.0,0.0,0.0,0.0,0.0,0.0,0.0,0.0,0.0,0.0,0.0,0.0,0.0,0.0,0.0,0.0,0.0,0.0,0.0,0.0,0.0,0.0,0.0,0.0,0.0,0.0,1.7011,1.671,1.7035,1.7992,1.7612,1.632,0.0,0.0,0.0,0.0,0.0,0.0,0.0,0.0,0.0,0.0,0.0,0.0,0.0,0.0,0.0,0.0,0.0,0.0,0.0,0.0,0.0,0.0,0.0,0.0,0.0,0.0,0.0,0.0,0.0,0.0,0.0,0.0,0.0,0.0,0.0,0.0,0.0,0.0,0.0,0.0,0.0,0.0,0.0,0.0,0.0,0.0,0.0,0.0,0.0,0.0,0.0,0.0,0.0,0.0,0.0,0.0,0.0,0.0,0.0,0.0,0.0,0.0,0.0,0.0,0.0,0.0,0.0,0.0,0.0,0.0,0.0,0.0,0.0,0.0,0.0,0.0,0.0,0.0,0.0,0.0,0.0,0.0,0.0,0.0,0.0,0.0,0.0,0.0,0.0,0.0,0.0,0.0,0.0,0.0,0.0,0.0,0.0,0.0,0.0,0.0,0.0,0.0,0.0,0.0,0.0,0.0,0.0,0.0,0.0,1.9992,2.0353,2.0911,2.1913,2.0358,1.8915,0.0,0.0,0.0,0.0,0.0,0.0,0.0,0.0,0.0,0.0,0.0,0.0,0.0,0.0,0.0,0.0,0.0,0.0,0.0,0.0,0.0,0.0,0.0,0.0,0.0,0.0,0.0,0.0,0.0,0.0,0.0,0.0,0.0,0.0,0.0,0.0,0.0,0.0,0.0,0.0,0.0,0.0,0.0,0.0,0.0,0.0,0.0,0.0,0.0,0.0,0.0,0.0,0.0,0.0,0.0,0.0,0.0,0.0,0.0,0.0,0.0,0.0,0.0,0.0,0.0,0.0,0.0,0.0,0.0,0.0,0.0,0.0,0.0,0.0,0.0,0.0,0.0,0.0,0.0,0.0,0.0,0.0,0.0,0.0,0.0,0.0,0.0,0.0,0.0,0.0,0.0,0.0,0.0,0.0,0.0,0.0,0.0,0.0,0.0,0.0,0.0,0.0,0.0,0.0,0.0,0.0,0.0,0.0,1.8837,2.2377,2.3842,2.5092,2.6025,2.275,2.045,0.0,0.0,0.0,0.0,0.0,0.0,0.0,0.0,0.0,0.0,0.0,0.0,0.0,0.0,0.0,0.0,0.0,0.0,0.0,0.0,0.0,0.0,0.0,0.0,0.0,0.0,0.0,0.0,0.0,0.0,0.0,0.0,0.0,0.0,0.0,0.0,0.0,0.0,0.0,0.0,0.0,0.0,0.0,0.0,0.0,0.0,0.0,0.0,0.0,0.0,0.0,0.0,0.0,0.0,0.0,0.0,0.0,0.0,0.0,0.0,0.0,0.0,0.0,0.0,0.0,0.0,0.0,0.0,0.0,0.0,0.0,0.0,0.0,0.0,0.0,0.0,0.0,0.0,0.0,0.0,0.0,0.0,0.0,0.0,0.0,0.0,0.0,0.0,0.0,0.0,0.0,0.0,0.0,0.0,0.0,0.0,0.0,0.0,0.0,0.0,0.0,0.0,0.0,0.0,0.0,0.0,0.0,0.0,2.183,2.4366,2.6962,2.8854,2.967,2.4985,2.1627,0.0,0.0,0.0,0.0,0.0,0.0,0.0,0.0,0.0,0.0,0.0,0.0,0.0,0.0,0.0,0.0,0.0,0.0,0.0,0.0,0.0,0.0,0.0,0.0,0.0,0.0,0.0,0.0,0.0,0.0,0.0,0.0,0.0,0.0,0.0,0.0,0.0,0.0,0.0,0.0,0.0,0.0,0.0,0.0,0.0,0.0,0.0,0.0,0.0,0.0,0.0,0.0,0.0,0.0,0.0,0.0,0.0,0.0,0.0,0.0,0.0,0.0,0.0,0.0,0.0,0.0,0.0,0.0,0.0,0.0,0.0,0.0,0.0,0.0,0.0,0.0,0.0,0.0,0.0,0.0,0.0,0.0,0.0,0.0,0.0,0.0,0.0,0.0,0.0,0.0,0.0,0.0,0.0,0.0,0.0,0.0,0.0,0.0,0.0,0.0,0.0,0.0,0.0,0.0,0.0,0.0,0.0,0.0,2.3223,2.7406,2.8277,2.9647,3.1667,2.7492,2.4401,0.0,0.0,0.0,0.0,0.0,0.0,0.0,0.0,0.0,0.0,0.0,0.0,0.0,0.0,0.0,0.0,0.0,0.0,0.0,0.0,0.0,0.0,0.0,0.0,0.0,0.0,0.0,0.0,0.0,0.0,0.0,0.0,0.0,0.0,0.0,0.0,0.0,0.0,0.0,0.0,0.0,0.0,0.0,0.0,0.0,0.0,0.0,0.0,1.4101,0.0,0.0,0.0,0.0,0.0,0.0,0.0,0.0,0.0,0.0,0.0,0.0,0.0,0.0,0.0,0.0,0.0,0.0,0.0,0.0,0.0,0.0,0.0,0.0,0.0,0.0,0.0,0.0,0.0,0.0,0.0,0.0,0.0,0.0,0.0,0.0,0.0,0.0,0.0,0.0,0.0,0.0,0.0,0.0,0.0,0.0,0.0,0.0,0.0,0.0,0.0,0.0,0.0,0.0,0.0,0.0,0.0,0.0,0.0,2.5438,2.9097,3.0821,3.2113,3.2797,3.0238,2.7208,0.0,0.0,0.0,0.0,0.0,0.0,0.0,0.0,0.0,0.0,0.0,0.0,0.0,0.0,0.0,0.0,0.0,0.0,0.0,0.0,0.0,0.0,0.0,0.0,0.0,0.0,0.0,0.0,0.0,0.0,0.0,0.0,0.0,0.0,0.0,0.0,0.0,0.0,0.0,0.0,0.0,0.0,0.0,0.0,0.0,0.0,0.0,0.0,0.0,0.0,0.0,0.0,0.0,0.0,0.0,0.0,0.0,0.0,0.0,0.0,0.0,0.0,0.0,0.0,0.0,0.0,0.0,0.0,0.0,0.0,0.0,0.0,0.0,0.0,0.0,0.0,0.0,0.0,0.0,0.0,0.0,0.0,0.0,0.0,0.0,0.0,0.0,0.0,0.0,0.0,0.0,0.0,0.0,0.0,0.0,0.0,0.0,0.0,0.0,0.0,0.0,0.0,0.0,0.0,0.0,0.0,0.0,2.4167,2.8,3.0738,3.3883,3.5103,3.4215,3.2948,2.9927,2.499,0.0,0.0,0.0,0.0,0.0,0.0,0.0,0.0,0.0,0.0,0.0,0.0,0.0,0.0,0.0,0.0,0.0,0.0,0.0,0.0,0.0,0.0,0.0,0.0,0.0,0.0,0.0,0.0,0.0,0.0,0.0,0.0,0.0,0.0,0.0,0.0,0.0,0.0,0.9721,1.2,0.0,0.0,0.0,0.0,0.0,0.0,0.0,0.0,1.6405,0.0,0.0,0.0,0.0,0.0,0.0,0.0,0.0,0.0,0.0,0.0,0.0,0.0,0.0,0.0,0.0,0.0,0.0,0.0,0.0,0.0,0.0,0.0,0.0,0.0,0.0,0.0,0.0,0.0,0.0,0.0,0.0,0.0,0.0,0.0,0.0,0.0,0.0,0.0,0.0,0.0,0.0,0.0,0.0,0.0,0.0,0.0,0.0,0.0,0.0,0.0,0.0,0.0,0.0,0.0,0.0,2.1523,2.6276,3.0487,3.4182,3.6983,3.7727,3.6328,3.5121,3.2106,2.7192,0.0,0.0,0.0,0.0,0.0,0.0,0.0,0.0,0.0,0.0,0.0,0.0,0.0,0.0,0.0,0.0,0.0,0.0,0.0,0.0,0.0,0.0,0.0,0.0,0.0,0.0,0.0,0.0,0.0,0.0,0.0,0.0,0.0,0.0,0.0,0.0,0.0,0.0,0.0,1.451,1.5688,0.0,0.0,0.0,0.0,0.0,0.0,0.0,0.0,1.9569,0.0,0.0,0.0,0.0,0.0,0.0,0.0,0.0,0.0,0.0,0.0,0.0,0.0,0.0,0.0,0.0,0.0,0.0,0.0,0.0,0.0,0.0,0.0,0.0,0.0,0.0,0.0,0.0,0.0,0.0,0.0,0.0,0.0,0.0,0.0,0.0,0.0,0.0,0.0,0.0,0.0,0.0,0.0,0.0,0.0,0.0,0.0,0.0,0.0,0.0,0.0,0.0,0.0,0.0,0.0,2.4188,2.8682,3.2891,3.6746,3.87,3.904,3.77,3.6143,3.3231,0.0,0.0,0.0,0.0,0.0,0.0,0.0,0.0,0.0,0.0,0.0,0.0,0.0,0.0,0.0,0.0,0.0,0.0,0.0,0.0,0.0,0.0,0.0,0.0,0.0,0.0,0.0,0.0,0.0,0.0,0.0,0.0,0.0,0.0,0.0,0.0,0.0,0.0,0.0,0.0,1.6799,1.8249,1.9727,0.0,0.0,0.0,0.0,0.0,0.0,2.1585,2.1713,0.0,0.0,0.0,0.0,0.0,0.0,0.0,0.0,0.0,0.0,0.0,0.0,0.0,0.0,0.0,0.0,0.0,0.0,0.0,0.0,0.0,0.0,0.0,0.0,0.0,0.0,0.0,0.0,0.0,0.0,0.0,0.0,0.0,0.0,0.0,0.0,0.0,0.0,0.0,0.0,0.0,0.0,0.0,0.0,0.0,0.0,0.0,0.0,0.0,0.0,0.0,0.0,0.0,0.0,0.0,2.6567,3.1228,3.5382,3.8978,4.0381,4.041,3.9062,3.7068,3.407,0.0,0.0,0.0,0.0,0.0,0.0,0.0,0.0,0.0,0.0,0.0,0.0,0.0,0.0,0.0,0.0,0.0,0.0,0.0,0.0,0.0,0.0,0.0,0.0,0.0,0.0,0.0,0.0,0.0,0.0,0.0,0.0,0.0,0.0,0.0,0.0,0.0,0.0,0.0,0.0,0.0,2.0745,2.2305,2.2818,0.0,0.0,0.0,0.0,2.3879,2.4352,0.0,0.0,0.0,0.0,0.0,0.0,0.0,0.0,0.0,0.0,0.0,0.0,0.0,0.0,0.0,0.0,0.0,0.0,0.0,0.0,0.0,0.0,0.0,0.0,0.0,0.0,0.0,0.0,0.0,0.0,0.0,0.0,0.0,0.0,0.0,0.0,0.0,0.0,0.0,0.0,0.0,0.0,0.0,0.0,0.0,0.0,0.0,0.0,0.0,0.0,0.0,0.0,0.0,0.0,0.0,0.0,2.781,3.3763,3.8268,4.1157,4.2927,4.2888,4.0932,3.8587,3.4999,0.0,0.0,0.0,0.0,0.0,0.0,0.0,0.0,0.0,0.0,0.0,0.0,0.0,0.0,0.0,0.0,0.0,0.0,0.0,0.0,0.0,0.0,0.0,0.0,0.0,0.0,0.0,0.0,0.0,0.0,0.0,0.0,0.0,0.0,0.0,0.0,0.0,0.0,0.0,0.0,0.0,2.2274,2.4647,2.501,2.5295,0.0,0.0,0.0,2.7593,2.8541,0.0,0.0,0.0,0.0,0.0,0.0,0.0,0.0,0.0,0.0,0.0,0.0,0.0,0.0,0.0,0.0,0.0,0.0,0.0,0.0,0.0,0.0,0.0,0.0,0.0,0.0,0.0,0.0,0.0,0.0,0.0,0.0,0.0,0.0,0.0,0.0,0.0,0.0,0.0,0.0,0.0,0.0,0.0,0.0,0.0,0.0,0.0,0.0,0.0,0.0,0.0,0.0,0.0,0.0,0.0,2.4581,3.0157,3.5713,4.0009,4.3034,4.3893,4.3451,4.1706,3.9316,3.5771,0.0,0.0,0.0,0.0,0.0,0.0,0.0,0.0,0.0,0.0,0.0,0.0,0.0,0.0,0.0,0.0,0.0,0.0,0.0,0.0,0.0,0.0,0.0,0.0,0.0,0.0,0.0,0.0,0.0,0.0,0.0,0.0,0.0,0.0,0.0,0.0,0.0,0.0,0.0,0.0,0.0,0.0,2.7152,2.8153,0.0,0.0,0.0,3.0663,3.1179,0.0,0.0,0.0,0.0,0.0,0.0,0.0,0.0,0.0,0.0,0.0,0.0,0.0,0.0,0.0,0.0,0.0,0.0,0.0,0.0,0.0,0.0,0.0,0.0,0.0,0.0,0.0,0.0,0.0,0.0,0.0,0.0,0.0,0.0,0.0,0.0,0.0,0.0,0.0,0.0,0.0,0.0,0.0,0.0,0.0,0.0,0.0,0.0,0.0,0.0,0.0,0.0,0.0,0.0,0.0,0.0,0.0,3.2041,3.7207,4.1323,4.4158,4.4316,4.3741,4.2564,4.0317,0.0,0.0,0.0,0.0,0.0,0.0,0.0,0.0,0.0,0.0,0.0,0.0,0.0,0.0,0.0,0.0,0.0,0.0,0.0,0.0,0.0,0.0,0.0,0.0,0.0,0.0,0.0,0.911,0.0,0.0,0.0,0.0,0.0,0.0,0.0,0.0,0.0,0.0,0.0,0.0,0.0,0.0,2.6678,2.9653,3.1311,3.2777,0.0,0.0,3.434,3.4841,3.515,3.4464,0.0,0.0,0.0,0.0,0.0,0.0,0.0,0.0,0.0,0.0,0.0,0.0,0.0,0.0,0.0,0.0,0.0,0.0,0.0,0.0,0.0,0.0,0.0,0.0,0.0,0.0,0.0,0.0,0.0,0.0,0.0,0.0,0.0,0.0,0.0,0.0,0.0,0.0,0.0,0.0,0.0,0.0,0.0,0.0,0.0,0.0,0.0,0.0,0.0,0.0,0.0,0.0,0.0,0.0,0.0,3.2618,3.8208,4.2118,4.422,4.4316,4.4214,4.4045,4.2083,3.8967,0.0,0.0,0.0,0.0,0.0,0.0,0.0,0.0,0.0,0.0,0.0,0.0,0.0,0.0,0.0,0.0,0.0,0.0,0.0,0.0,0.0,0.0,0.0,0.0,0.0,0.0,0.0,0.0,0.0,0.0,0.0,0.0,0.0,0.0,0.0,0.0,0.0,0.0,0.0,0.0,0.0,2.9256,3.2091,3.4147,3.6247,0.0,0.0,3.8082,3.8723,3.867,3.7548,3.4558,0.0,0.0,0.0,0.0,0.0,0.0,0.0,0.0,0.0,0.0,0.0,0.0,0.0,0.0,0.0,0.0,0.0,0.0,0.0,0.0,0.0,0.0,0.0,0.0,0.0,0.0,0.0,0.0,0.0,0.0,0.0,0.0,0.0,0.0,0.0,0.0,0.0,0.0,0.0,0.0,0.0,0.0,0.0,0.0,0.0,0.0,0.0,0.0,0.0,0.0,0.0,0.0,0.0,2.8548,3.3705,3.8653,4.2206,4.4251,4.5068,4.5239,4.4704,4.3683,4.1102,0.0,0.0,0.0,0.0,0.0,0.0,0.0,0.0,0.0,0.0,0.0,0.0,0.0,0.0,0.0,0.0,0.0,0.0,0.0,0.0,0.0,0.0,0.0,0.0,0.0,0.0,0.0,0.0,1.5446,1.6085,1.5167,0.0,0.0,0.0,0.0,0.0,0.0,0.0,0.0,0.0,0.0,3.1086,3.5314,3.703,0.0,0.0,4.108,4.0868,4.0919,4.0531,3.9275,3.6312,3.4162,0.0,0.0,0.0,0.0,0.0,0.0,0.0,0.0,0.0,0.0,0.0,0.0,0.0,0.0,0.0,0.0,0.0,0.0,0.0,0.0,0.0,0.0,0.0,0.0,0.0,0.0,0.0,0.0,0.0,0.0,0.0,0.0,0.0,0.0,0.0,0.0,0.0,0.0,0.0,0.0,0.0,0.0,0.0,0.0,0.0,0.0,0.0,0.0,0.0,0.0,0.0,0.0,2.9359,3.4576,3.9104,4.2375,4.4237,4.5464,4.596,4.5678,4.5412,4.3543,0.0,0.0,0.0,0.0,0.0,0.0,0.0,0.0,0.0,0.0,0.0,0.0,0.0,0.0,0.0,0.0,0.0,0.0,0.0,0.0,0.0,0.0,0.0,0.0,0.0,0.0,0.0,0.0,1.6777,1.6995,1.6106,0.0,0.0,0.0,0.0,0.0,0.0,0.0,0.0,0.0,0.0,3.3815,3.7985,3.9584,4.105,4.2969,4.2975,4.2727,4.2594,4.1946,4.059,3.8131,0.0,0.0,0.0,0.0,0.0,0.0,0.0,0.0,0.0,0.0,0.0,0.0,0.0,0.0,0.0,0.0,0.0,0.0,0.0,0.0,0.0,0.0,0.0,0.0,0.0,0.0,0.0,0.0,0.0,0.0,0.0,0.0,0.0,0.0,0.0,0.0,0.0,0.0,0.0,0.0,0.0,0.0,0.0,0.0,0.0,0.0,0.0,0.0,0.0,0.0,0.0,0.0,0.0,3.0156,3.5077,3.9628,4.2711,4.4275,4.5306,4.6255,4.7125,4.714,4.6276,4.435,0.0,0.0,0.0,0.0,0.0,0.0,0.0,0.0,0.0,0.0,0.0,0.0,0.0,0.0,0.0,0.0,0.0,0.0,0.0,0.0,0.0,0.0,0.0,0.0,0.0,0.0,1.5187,1.6064,1.6741,0.0,0.0,0.0,0.0,0.0,0.0,0.0,0.0,0.0,0.0,3.3715,3.7745,3.9781,4.1746,4.338,4.4558,4.3996,4.3534,4.3893,4.2934,4.1587,0.0,0.0,0.0,0.0,0.0,0.0,0.0,0.0,0.0,0.0,0.0,0.0,0.0,0.0,0.0,0.0,0.0,0.0,0.0,0.0,0.0,0.0,0.0,0.0,0.0,0.0,0.0,1.086,1.0449,0.0,0.0,0.0,0.0,0.0,0.0,0.0,0.0,0.0,0.0,0.0,2.1307,2.2089,0.0,0.0,0.0,0.0,0.0,0.0,0.0,0.0,0.0,0.0,0.0,0.0,3.1749,3.6451,4.0149,4.3063,4.5232,4.6435,4.7361,4.812,4.8553,4.7296,4.407,0.0,0.0,0.0,0.0,0.0,0.0,0.0,0.0,0.0,0.0,0.0,0.0,0.0,0.0,0.0,0.0,0.0,0.0,0.0,0.0,0.0,0.0,0.0,0.0,0.0,1.7698,0.0,0.0,0.0,0.0,0.0,0.0,0.0,0.0,0.0,0.0,0.0,2.9311,3.3284,3.6458,3.9287,4.1757,4.332,4.4496,0.0,0.0,0.0,0.0,0.0,0.0,0.0,0.0,0.0,0.0,0.0,0.0,0.0,0.0,3.3993,3.0606,3.0549,3.1081,3.132,0.0,0.0,0.0,0.0,0.0,0.0,0.0,0.0,0.0,0.0,0.0,0.0,0.0,0.0,0.0,0.0,1.3313,0.0,0.0,0.0,0.0,0.0,0.0,0.0,0.0,2.2139,2.4207,2.5757,2.6566,2.7117,0.0,2.6767,2.4976,0.0,0.0,0.0,0.0,0.0,0.0,0.0,0.0,3.3729,3.8253,4.1432,4.4112,4.6205,4.7361,4.8152,4.8587,4.9525,4.8695,4.5901,4.2476,3.8655,0.0,0.0,0.0,0.0,0.0,0.0,0.0,0.0,0.0,0.0,0.0,0.0,0.0,0.0,0.0,0.0,0.0,0.0,0.0,0.0,0.0,0.0,0.0,2.0007,0.0,0.0,0.0,0.0,0.0,0.0,0.0,0.0,0.0,2.6591,2.969,3.3302,3.7008,3.9531,4.1715,4.3598,0.0,0.0,0.0,0.0,0.0,0.0,0.0,4.4552,4.3812,4.3391,4.2997,4.2478,4.2223,4.2228,4.2733,0.0,0.0,3.7187,3.6972,3.7661,3.7892,3.8403,3.8896,3.9227,4.0052,4.1085,0.0,0.0,0.0,0.0,0.0,0.0,0.0,0.0,1.9404,1.8903,0.0,1.7749,0.0,0.0,0.0,0.0,0.0,0.0,0.0,0.0,2.6756,2.9351,3.0983,3.2145,3.3395,3.458,3.3703,3.3284,3.2939,2.6553,0.0,0.0,0.0,0.0,0.0,0.0,3.6106,4.0406,4.3524,4.5812,4.7294,4.823,4.8753,4.8813,5.0134,5.0535,4.9776,4.7036,4.415,4.1085,3.459,0.0,0.0,0.0,0.0,0.0,0.0,0.0,0.0,0.0,0.0,0.0,0.0,0.0,0.0,0.0,0.0,0.0,0.0,0.0,0.0,2.1727,0.0,0.0,0.0,0.0,0.0,0.0,0.0,0.0,0.0,0.0,3.0211,3.3872,3.7527,3.9947,0.0,0.0,0.0,0.0,4.7428,4.7457,4.6996,4.6714,4.6894,4.6622,4.6627,4.7235,0.0,0.0,4.7616,4.7228,4.7207,4.784,4.8723,4.794,4.3413,4.3199,4.3653,4.3717,4.4303,4.4891,4.5198,4.6159,4.7253,2.6633,0.0,0.0,0.0,0.0,2.2142,2.2523,2.2783,2.2591,2.227,2.1782,2.0881,0.0,0.0,0.0,0.0,0.0,0.0,2.4547,2.6695,2.9972,3.2313,3.3808,3.54,3.636,3.6744,3.6502,3.6609,3.7008,3.5714,3.2431,2.7412,0.0,0.0,0.0,0.0,3.9697,4.3714,4.6134,4.7977,4.9454,5.064,5.133,5.1514,5.1897,5.1781,5.1166,4.9871,4.7601,4.4206,4.0172,0.0,0.0,0.0,0.0,0.0,0.0,0.0,0.0,0.0,0.0,0.0,0.0,0.0,0.0,0.0,0.0,0.0,0.0,0.0,2.3525,2.4503,2.4305,0.0,0.0,0.0,0.0,0.0,0.0,0.0,0.0,0.0,3.8708,3.9523,4.0882,0.0,0.0,4.5914,4.6801,4.7619,4.8264,4.872,0.0,0.0,0.0,4.9073,4.9303,5.0134,5.1259,5.2027,5.1978,5.2412,5.2847,5.3001,5.3664,5.3555,5.1881,5.0425,4.9799,4.9921,5.0348,5.0852,5.1206,5.2072,5.2966,3.1667,2.7738,2.622,2.5552,2.56,2.6305,2.6781,2.7096,2.6745,2.6416,2.5973,2.4984,2.4066,2.322,2.2842,0.0,0.0,0.0,2.8972,3.1329,3.398,3.6027,3.7601,3.8873,3.9875,4.0579,4.1014,4.1489,4.2108,4.2583,4.0858,3.6864,0.0,0.0,3.7365,4.0053,4.3305,4.6939,4.8624,5.018,5.1693,5.2452,5.2938,5.3018,5.3006,5.2789,5.2423,5.1783,5.0344,4.7938,4.4532,4.0367,0.0,0.0,0.0,0.0,0.0,0.0,0.0,0.0,0.0,0.0,0.0,1.4658,0.0,0.0,0.0,0.0,2.3423,2.5845,2.7696,2.789,0.0,0.0,0.0,0.0,0.0,0.0,0.0,3.4663,3.8292,4.182,4.4836,4.5111,4.5452,4.6555,4.7221,4.7996,4.892,0.0,5.0283,5.089,5.1232,5.1458,5.1608,5.1806,5.2348,5.351,5.4934,5.5845,5.5905,5.6418,5.6825,5.7094,5.7479,5.764,5.7315,5.64,5.5427,5.4777,5.4878,5.5223,5.5453,5.6362,5.7244,3.5421,3.352,3.0468,2.9245,2.9432,3.0481,3.1268,3.1708,3.1328,3.0868,3.0369,2.9634,2.8439,2.6929,2.6605,0.0,0.0,3.2061,3.3972,3.6465,3.827,4.0007,4.1652,4.2339,4.3545,4.5242,4.6359,4.7128,4.7539,4.752,4.7739,4.8084,4.443,4.257,4.2811,4.442,4.6774,4.9858,5.0986,5.232,5.3951,5.3895,5.3865,5.3849,5.3735,5.3635,5.3564,5.2978,5.2339,5.1617,4.7995,4.4756,4.216,0.0,0.0,0.0,0.0,0.0,0.0,0.0,0.0,0.0,0.0,0.0,0.0,0.0,0.0,0.0,2.9313,0.0,3.2563,3.1873,0.0,0.0,0.0,3.1406,3.3518,3.5355,3.7629,4.067,0.0,0.0,0.0,0.0,5.0572,4.9989,5.0269,5.0792,5.1401,5.2265,5.3088,5.3643,5.4054,5.4322,5.4427,5.4901,5.5704,5.6956,5.8411,5.9102,5.9102,5.9189,5.9488,5.9907,6.0174,6.0209,6.0432,6.0514,6.0501,5.8384,5.8188,5.8294,5.8354,5.9249,6.0057,3.8048,3.6836,3.4988,3.3714,3.2902,3.3163,3.3537,3.3906,3.3496,3.3257,3.3128,3.2934,3.3036,3.3287,3.3208,3.3974,3.5432,3.6017,3.7044,3.8319,4.0121,4.1394,4.2236,4.4542,4.5883,4.6372,4.7758,4.8758,4.93,4.9992,5.0519,5.0847,5.0575,4.9388,4.7402,4.7833,4.9255,5.1588,5.2798,5.4431,5.6332,5.5536,5.5306,5.5719,5.4793,5.4269,5.4229,5.3619,5.2978,5.2368,5.0919,4.8424,4.4715,3.9936,0.0,0.0,0.0,0.0,0.0,0.0,0.0,0.0,0.0,1.9157,1.9809,0.0,2.4093,0.0,3.2006,3.5738,3.6734,3.6668,0.0,0.0,3.5927,3.683,3.839,4.1112,4.3556,4.5313,4.7884,5.0181,5.1773,5.2726,5.3706,5.4847,5.3777,5.3013,5.3653,5.4531,5.5357,5.5971,5.6552,5.7065,5.75,5.8267,5.8925,5.9308,6.0086,6.0625,6.0655,6.0597,6.0657,6.0835,6.0864,6.0984,6.1338,6.1222,6.11,6.0789,6.0586,6.0388,6.0388,6.1044,6.1613,4.0749,3.9663,3.8911,3.8277,3.7695,3.6169,3.5561,3.5614,3.5792,3.5786,3.5622,3.5839,3.6329,3.6978,3.6788,3.7421,3.8687,3.9182,3.9945,4.1014,4.2459,4.3537,4.4323,4.616,4.737,4.8117,4.9698,5.086,5.1781,5.2985,5.3964,5.4656,5.4647,5.3894,5.2463,5.1433,5.1678,5.3217,5.4447,5.5816,5.7217,5.6646,5.6273,5.6181,5.5516,5.4859,5.427,5.3665,5.307,5.243,5.1415,4.9439,4.6303,4.2121,3.7873,0.0,0.0,0.0,0.0,0.0,0.0,0.0,0.0,0.0,0.0,0.0,2.9536,0.0,3.6947,0.0,3.9753,4.0007,4.0236,4.0432,4.1151,4.2412,4.4379,4.667,4.8595,4.9909,5.1746,5.3388,5.4419,5.5386,5.6415,5.7768,5.721,5.6686,5.661,5.6961,5.7483,5.8238,5.8649,5.9081,5.9666,6.0454,6.0984,6.1044,6.1553,6.2002,6.2002,6.2002,6.2002,6.2002,6.1972,6.206,6.2265,6.2148,6.2088,6.2206,6.2148,6.1882,6.1642,6.2061,6.2569,4.3158,4.2158,4.1957,4.2085,4.2261,3.9283,3.7763,3.739,3.813,3.8298,3.8034,3.8451,3.8949,3.9481,3.9059,3.9785,4.1337,4.1963,4.2869,4.4049,4.5092,4.6098,4.702,4.7701,4.879,5.0287,5.1945,5.3359,5.4561,5.5976,5.7229,5.8277,5.7252,5.6824,5.688,5.4738,5.3963,5.4668,5.5824,5.6694,5.7274,5.7275,5.6846,5.6045,5.5931,5.5307,5.4233,5.3554,5.2937,5.2296,5.0906,4.9363,4.7645,4.3594,4.0038,0.0,3.3477,0.0,0.0,0.0,0.0,0.0,0.0,0.0,0.0,3.3334,3.6442,4.0644,4.2631,4.3441,4.2855,4.3292,4.4169,4.5498,4.6326,4.7803,5.0236,5.1634,5.2839,5.4069,5.4948,5.5931,5.7075,5.8027,5.8754,5.94,6.0012,6.0157,5.9809,5.9378,5.947,6.0316,6.0491,6.0778,6.1262,6.1822,6.2181,6.2241,6.2629,6.3138,6.3168,6.3108,6.3078,6.3168,6.3078,6.3048,6.3108,6.3078,6.3108,6.3168,6.3168,6.2958,6.245,6.275,6.3197,4.386,4.3858,4.278,4.2532,4.2809,4.2201,4.1443,4.0685,4.0513,4.0539,4.0738,4.0848,4.1538,4.2583,4.2519,4.317,4.4347,4.5291,4.6056,4.6687,4.7786,4.8355,4.8682,5.0419,5.1729,5.265,5.4641,5.625,5.7489,5.7793,5.8208,5.8691,5.8486,5.8118,0.0,0.0,0.0,0.0,5.6177,5.6694,5.7274,5.7078,5.6907,5.6707,5.5964,0.0,5.5196,5.4345,5.3415,5.2659,5.1794,0.0,0.0,0.0,0.0,0.0,0.0,0.0,0.0,0.0,0.0,0.0,3.8773,3.8407,3.7077,3.9299,4.2265,4.5525,4.6785,4.7893,4.9091,4.9748,5.0022,4.9886,5.0822,5.1927,5.2946,5.4298,5.5692,5.6888,5.783,5.8641,5.9347,5.9728,6.0166,6.0926,6.1309,6.1661,6.2249,6.1516,6.1135,6.1369,6.1899,6.2516,6.272,6.2808,6.2868,6.2958,6.2988,6.3287,6.3676,6.3407,6.3347,6.3706,6.3437,6.3166,6.3166,6.3108,6.3346,6.3737,6.3827,6.3647,6.3078,6.3378,6.3914,4.5747,0.0,4.5247,4.5025,0.0,4.5221,4.4785,4.4041,4.2845,4.2668,4.3302,4.3279,4.3789,4.4683,4.5212,4.5722,4.6291,4.7357,4.7971,4.8224,4.9338,5.0302,5.111,5.2759,5.4142,5.5318,5.6684,5.7843,5.8799,5.9102,5.9514,5.9981,5.9677,5.9304,5.8986,5.8379,5.7454,5.6209,5.632,5.6694,5.7274,5.7162,5.705,5.6908,0.0,0.0,0.0,0.0,0.0,0.0,0.0,0.0,0.0,0.0,0.0,4.5161,4.3411,4.2358,4.231,4.2664,4.3612,4.5117,4.7186,4.7039,4.3891,4.5561,4.7747,5.0096,5.0487,5.1044,5.2184,5.2603,5.2797,5.2797,5.375,5.4899,5.6341,5.7165,5.8181,5.9492,5.9882,6.0013,6.0368,6.0866,6.1305,6.1775,6.2132,6.2607,6.326,6.2699,6.211,6.211,6.2637,6.3108,6.3108,6.3108,6.3108,6.3108,6.3223,6.3549,6.412,6.4145,6.4232,6.4804,6.4743,6.4532,6.4532,6.4532,6.4594,6.4719,6.4751,6.4512,6.3944,6.4243,6.4839,4.7841,4.7841,4.7744,4.763,4.7597,4.7597,4.7415,4.7013,0.0,0.0,0.0,4.5513,4.585,4.6516,4.7313,4.7789,4.8058,4.9086,4.9743,5.0104,5.1167,5.2501,5.3957,5.4998,5.6303,5.7731,5.836,5.8977,5.9603,6.0119,6.0651,6.1105,6.0642,6.0293,6.0177,5.9713,5.861,5.7013,5.681,5.6984,5.7477,5.7305,5.7106,5.6908,5.6851,5.6566,5.6077,5.5537,5.4911,5.4196,5.2876,5.1678,5.0654,4.9363,4.8219,4.7236,4.6743,4.6782,4.7404,4.8035,4.945,5.1861,5.3984,5.3719,5.0222,5.1103,5.241,5.3961,5.369,5.3639,5.4149,5.4629,5.491,5.5163,5.624,5.7792,5.9573,5.9625,6.0083,6.1676,6.1359,6.0919,6.1125,6.1771,6.2271,6.2361,6.2811,6.3468,6.3917,6.3443,6.282,6.273,6.2904,6.3108,6.3108,6.3108,6.3137,6.3194,6.3457,6.393,6.4588,6.5002,6.542,6.5998,6.6117,6.5936,6.5966,6.5846,6.5969,6.5796,6.5767,6.5648,6.5289,6.5588,6.6064,4.914,4.9115,4.8641,4.8248,4.7927,4.7927,4.8304,4.8642,4.652,4.6149,4.7064,4.7064,4.7621,4.8564,4.8718,4.9316,5.03,5.1304,5.2576,0.0,5.5138,5.6019,5.6828,5.7515,5.8242,5.9019,5.9643,6.0288,6.087,6.0985,6.1103,6.1193,6.1106,6.0758,6.0235,6.0119,5.9684,5.89,5.8348,5.8087,5.8145,5.7367,5.6936,5.688,5.6652,5.6423,5.6337,5.605,5.5478,5.4569,5.3768,5.3129,5.2712,5.2238,5.2146,5.2404,5.2311,5.2151,5.1834,5.2806,5.4306,5.6206,5.7275,5.6611,5.4048,5.4364,5.5139,5.5917,5.5922,5.5929,5.6137,5.784,5.8552,5.7712,5.9341,6.0954,6.15,6.0858,6.1134,6.2927,6.2389,6.2096,6.2543,6.281,6.2928,6.3019,6.3558,6.4126,6.4516,6.4276,6.3619,6.3171,6.3079,6.3108,6.3108,6.3108,6.3254,6.3424,6.4021,6.4737,6.5636,6.5874,6.6175,6.6754,6.654,6.6205,6.6146,6.6026,6.6329,6.6665,6.6757,6.6907,6.7329,6.7691,6.7719,4.9814,4.9823,4.9568,4.981,5.0361,5.072,5.0861,5.0799,4.983,4.9474,4.9643,4.9355,4.978,5.0792,5.1387,5.192,5.2505,5.3864,5.4906,5.5764,5.69,5.7763,5.8434,5.9062,5.9675,6.0311,6.0579,6.0903,6.1164,6.1193,6.1193,6.1193,6.1193,6.1048,6.0758,6.0729,6.0613,6.0322,5.9364,5.8813,5.8842,5.8408,5.8205,5.8205,5.7715,5.7427,5.7398,5.6967,5.6537,5.6079,5.5453,5.5054,5.4901,5.4445,5.4265,5.4521,5.4546,5.4583,5.4686,5.5859,5.71,5.829,5.8668,5.8377,5.7216,5.7361,5.7652,5.7942,5.7971,5.8285,5.9026,6.013,6.0586,6.0086,6.1217,6.2367,6.3183,6.2249,6.2384,6.4363,6.3586,6.2778,6.3078,6.3108,6.3257,6.3558,6.4395,6.5084,6.5054,6.5054,6.4725,6.3797,6.3317,6.3138,6.3138,6.3581,6.3846,6.4051,6.4912,6.578,6.6653,6.6922,6.7314,6.7864,6.7771,6.7589,6.7558,6.7558,6.7653,6.7629,6.7751,6.7993,6.8296,6.8841,6.905,5.0616,5.0616,5.0813,5.1677,5.2932,5.3608,5.357,5.3114,5.3152,5.3112,5.2742,5.1857,5.2012,5.3049,5.3868,5.4395,5.482,5.5983,5.6867,5.7319,5.8288,5.9085,5.9724,6.0201,6.07,6.1135,6.1193,6.1193,6.1193,6.1193,6.1193,6.1193,6.1193,6.1193,6.1193,6.1193,6.1193,6.1135,6.0235,5.9655,5.951,5.9364,5.9306,5.9277,5.8784,5.8523,5.8493,5.8029,5.7681,5.7536,5.7071,5.6781,5.6607,5.6113,5.5881,5.6026,5.6055,5.6345,5.7042,5.8087,5.8958,5.9451,5.9655,5.9742,5.9713,5.9771,5.9626,5.9394,5.9248,5.9882,6.1061,6.1871,6.2235,6.256,6.3171,6.4203,6.5271,6.4154,6.3988,6.6069,6.494,6.3719,6.3692,6.3582,6.3826,6.4515,6.5383,6.5772,6.5562,6.5802,6.5473,6.4754,6.3975,6.3763,6.3732,6.4581,6.5086,6.5031,6.6155,6.7165,6.7861,6.8252,6.8648,6.9139,6.9263,6.9027,6.8945,6.8858,6.8772,6.8688,6.875,6.878,6.9025,6.9846,7.0209,5.1958,5.2026,5.2715,5.3634,5.4709,5.5399,5.5613,5.5519,5.5857,5.6287,5.6315,5.4527,5.4203,5.5038,5.5217,5.5893,5.6891,5.7141,5.8165,5.9633,5.9963,6.0386,6.0956,6.1076,6.1135,6.1222,6.1251,6.1251,6.1251,6.1193,6.1193,6.1193,6.1193,6.1193,6.1193,6.1193,6.1193,6.1193,6.1077,6.0729,6.0119,5.9597,5.9306,5.9306,5.9248,5.9219,5.9219,5.9132,5.8813,5.829,5.8145,5.7855,5.7303,5.7158,5.739,5.7942,5.8,5.8348,5.8987,5.9655,6.0003,6.0148,6.0642,6.0961,6.0991,6.1201,6.0764,5.9888,5.9655,6.0371,6.1341,6.3195,6.4421,6.4858,6.6113,6.7381,6.7528,6.6751,6.6522,6.7737,6.6412,6.5461,6.5296,6.5009,6.5024,6.5533,6.5862,6.6251,6.652,6.6311,6.6101,6.5832,6.5502,6.5258,6.5314,6.6498,6.6701,6.6453,6.7714,6.8742,6.9276,6.9818,7.0399,7.0368,7.0385,7.0107,6.9416,6.8949,6.9197,6.9599,6.9754,6.9907,7.0491,7.1011,7.0948,5.3814,5.3922,5.5022,5.5986,5.6902,5.7992,5.8177,5.7806,5.755,5.759,5.7662,5.6809,5.6473,5.65,5.6881,5.7366,5.7874,5.8656,5.9416,6.0196,6.059,6.1126,6.1687,6.1745,6.1919,6.2238,6.1919,6.1716,6.1658,6.1367,6.1193,6.1193,6.1193,6.1193,6.1193,6.1193,6.1193,6.1193,6.1193,6.1048,6.0816,6.0555,6.0409,6.038,6.0061,5.9829,5.98,5.951,5.9161,5.8929,5.89,5.8784,5.8493,5.8493,5.861,5.8871,5.89,5.9161,5.98,6.0061,6.038,6.0758,6.1019,6.1253,6.1434,6.1554,6.1792,6.252,6.2304,6.2908,6.475,6.5868,6.6658,6.7407,6.8145,6.8805,6.9335,6.8397,6.8166,6.9059,6.7611,6.6363,6.6256,6.5912,6.5742,6.6041,6.6311,6.67,6.6939,6.6882,6.6883,6.6914,6.7033,6.6668,6.6005,6.665,6.7266,6.7477,6.8681,7.0045,7.0331,7.1064,7.1588,7.1652,7.1564,7.1256,7.0694,7.0258,7.0213,7.049,7.049,7.0582,7.0859,7.1382,7.1474,5.5227,5.5756,5.7006,5.8119,5.9027,6.0043,6.0187,5.9711,5.9207,5.8975,5.9015,5.9015,5.8727,5.8347,5.8625,5.88,5.9144,6.0191,6.0803,6.1046,6.1474,6.1948,6.2354,6.2354,6.2616,6.2935,6.2587,6.2383,6.2325,6.1948,6.1629,6.1483,6.1454,6.1367,6.1193,6.1193,6.1193,6.1193,6.1193,6.1193,6.1164,6.1193,6.1193,6.1135,6.0729,6.0467,6.0467,6.0061,5.9742,5.9568,5.9539,5.948,5.9306,5.9306,5.9364,5.9539,5.9742,6.015,6.0882,6.0821,6.1231,6.2293,6.241,6.2588,6.306,6.3293,6.4225,6.5892,6.5837,6.6453,6.7772,6.8292,6.8805,6.9813,6.9979,7.0239,7.0605,6.9982,6.9865,7.0454,6.9313,6.7812,6.7377,6.6759,6.6311,6.637,6.67,6.6999,6.7029,6.7183,6.7335,6.7487,6.7909,6.7723,6.6666,6.8009,6.8491,6.8847,7.027,7.198,7.1913,7.2788,7.3409,7.3812,7.3164,7.2429,7.1809,7.1471,7.1315,7.1258,7.129,7.1413,7.166,7.1998,7.2214,5.5729,5.707,5.8435,5.9737,6.1043,6.1132,6.1117,6.1017,6.0955,6.0923,6.0867,6.0891,6.0947,6.0799,6.0329,6.0363,6.0981,6.1653,6.2287,6.2753,6.2906,6.3024,6.3051,6.3051,6.308,6.3254,6.3109,6.3022,6.2993,6.2964,6.2674,6.2093,6.2064,6.1774,6.1309,6.1251,6.1193,6.1193,6.1193,6.1193,6.1193,6.1193,6.1193,6.1193,6.1164,6.1106,6.1106,6.1106,6.0787,6.0177,6.0177,5.9916,5.9422,5.9394,5.9713,6.0178,6.0818,6.1674,6.2554,6.244,6.3061,6.5014,6.5181,6.5634,6.6455,6.693,6.7762,6.9344,6.9449,6.9678,6.984,6.9995,7.0533,7.1565,7.1829,7.1837,7.1928,7.1895,7.1845,7.1854,7.1291,7.009,6.8809,6.7668,6.7063,6.691,6.6939,6.6969,6.6999,6.706,6.7273,6.7608,6.7971,6.8119,6.8443,6.9657,7.0755,7.1273,7.2363,7.462,7.5117,7.5478,7.5801,7.5948,7.5615,7.4735,7.3303,7.258,7.246,7.2417,7.249,7.2583,7.2368,7.2737,7.2829,5.8435,5.9707,6.0226,6.0974,6.1714,6.1774,6.2,6.2332,6.1896,6.1728,6.1737,6.1734,6.1734,6.1766,6.2377,6.2297,6.1831,6.2436,6.2863,6.3109,6.314,6.3312,6.369,6.3658,6.3922,6.4212,6.3893,6.3486,6.3109,6.314,6.2964,6.279,6.2763,6.2412,6.189,6.1774,6.16,6.1222,6.1193,6.1193,6.1222,6.1193,6.1193,6.1193,6.1193,6.1193,6.1193,6.1193,6.1077,6.0845,6.0845,6.0729,6.0615,6.1204,6.1699,6.2053,6.3314,6.4307,6.4738,6.5201,6.5767,6.6593,6.683,6.7156,6.7683,6.8045,6.8857,7.0393,7.0921,7.1318,7.2197,7.1882,7.1729,7.2482,7.2713,7.2879,7.3301,7.3434,7.3434,7.3258,7.2573,7.1168,6.9485,6.8414,6.7849,6.7152,6.6999,6.709,6.715,6.7512,6.8059,6.8425,6.9575,7.0712,7.0799,7.12,7.1966,7.2945,7.4128,7.5292,7.6096,7.6868,7.7254,7.727,7.7276,7.6835,7.5242,7.427,7.4064,7.3816,7.3873,7.3477,7.2983,7.3231,7.32,6.095,6.1742,6.1832,6.2035,6.2414,6.2412,6.279,6.3308,6.2933,6.2859,6.3003,6.3032,6.3032,6.3181,6.3965,6.3904,6.3124,6.3502,6.3719,6.369,6.369,6.3922,6.4239,6.4297,6.4561,6.4851,6.4561,6.4096,6.3748,6.369,6.3603,6.3399,6.3399,6.3051,6.2529,6.2412,6.218,6.1861,6.1803,6.1803,6.1803,6.1803,6.1803,6.1803,6.1803,6.16,6.1222,6.1193,6.1193,6.1193,6.1193,6.1344,6.1791,6.3081,6.3832,6.4006,6.5235,6.6366,6.6789,6.7321,6.7946,6.8834,6.8992,6.9251,6.9856,7.0044,7.0859,7.1962,7.23,7.2922,7.3605,7.3276,7.2912,7.3376,7.3442,7.3641,7.4097,7.4163,7.4163,7.3894,7.2632,7.1328,7.0432,6.9252,6.8844,6.8697,6.8577,6.8273,6.8364,6.8758,6.9397,6.9641,7.0848,7.2291,7.321,7.3991,7.4009,7.4778,7.5825,7.6742,7.725,7.8101,7.8511,7.8571,7.8388,7.81,7.7355,7.6301,7.5723,7.5385,7.5095,7.4741,7.4206,7.3661,7.3508,6.302,6.3024,6.308,6.3022,6.308,6.308,6.3457,6.3949,6.3975,6.4202,6.4578,6.4816,6.4668,6.4877,6.4819,6.4909,6.4758,6.4793,6.4825,6.4793,6.4822,6.4851,6.4909,6.488,6.4909,6.4996,6.4967,6.4938,6.4822,6.4793,6.4532,6.4094,6.4007,6.3719,6.308,6.308,6.308,6.2935,6.2906,6.2964,6.308,6.2966,6.2937,6.2964,6.2964,6.2441,6.1338,6.1309,6.1367,6.1368,6.143,6.1791,6.314,6.4821,6.5805,6.5954,6.6591,6.76,6.8766,6.8756,6.9827,7.1355,7.1952,7.212,7.2913,7.3423,7.3719,7.3902,7.4044,7.4237,7.4278,7.4262,7.4163,7.4196,7.4064,7.413,7.4163,7.4196,7.4196,7.4001,7.2615,7.1726,7.215,7.0897,6.9938,7.1345,7.1296,7.0642,7.0672,7.0855,7.1219,7.1665,7.2645,7.3987,7.5489,7.6807,7.6674,7.6797,7.7882,7.8792,7.8758,7.927,7.9439,7.9524,7.9491,7.9167,7.8581,7.755,7.6888,7.6504,7.6249,7.5736,7.4859,7.4176,7.3783,6.314,6.314,6.314,6.3341,6.3687,6.3716,6.4096,6.4677,6.4706,6.4822,6.4967,6.4996,6.4996,6.4996,6.4996,6.4996,6.4996,6.4996,6.4996,6.4996,6.4996,6.4996,6.4996,6.4996,6.4996,6.4996,6.4996,6.4996,6.4996,6.4996,6.4851,6.4735,6.4677,6.4357,6.3745,6.3716,6.3542,6.3138,6.314,6.314,6.314,6.3109,6.3109,6.314,6.3109,6.2877,6.2529,6.2499,6.2499,6.2501,6.3353,6.4365,6.5551,6.6948,6.779,6.8152,6.9483,7.0513,7.1194,7.1745,7.224,7.3152,7.3394,7.3621,7.3993,7.4179,7.4461,7.4826,7.4958,7.5091,7.5529,7.5628,7.5231,7.4296,7.4196,7.4262,7.4354,7.4229,7.4428,7.4833,7.4274,7.4069,7.4052,7.2683,7.2406,7.28,7.2575,7.2345,7.2517,7.2897,7.3259,7.3664,7.4839,7.5793,7.7085,7.8133,7.8409,7.8283,7.9044,7.9634,7.9769,7.987,8.0107,8.0209,8.0209,7.9998,7.9451,7.8836,7.811,7.7566,7.7236,7.6306,7.5183,7.4654,7.4415,6.3806,6.3837,6.3806,6.4009,6.4355,6.4355,6.4619,6.4967,6.4996,6.4996,6.4996,6.4996,6.4996,6.4996,6.4996,6.4996,6.4996,6.4996,6.4996,6.4996,6.4996,6.4996,6.4996,6.4996,6.4996,6.4996,6.4996,6.4996,6.4996,6.4996,6.4996,6.4996,6.4996,6.4793,6.4384,6.4355,6.4154,6.3835,6.3806,6.3806,6.3806,6.3806,6.3806,6.3806,6.3806,6.4058,6.4432,6.4524,6.4289,6.4212,6.5377,6.6706,6.7523,6.8898,6.99,7.032,7.1415,7.2508,7.2882,7.3262,7.3848,7.3976,7.4095,7.4362,7.4528,7.4594,7.4925,7.5496,7.5687,7.586,7.6192,7.6291,7.586,7.5124,7.5025,7.5017,7.5093,7.481,7.5035,7.5481,7.5265,7.5285,7.5504,7.4572,7.4701,7.4578,7.4505,7.4303,7.4598,7.4858,7.5241,7.568,7.6405,7.7429,7.8544,7.935,7.9981,7.9939,7.9905,8.004,8.0073,8.0073,8.0209,8.0209,8.0209,8.0209,7.9734,7.9554,7.9027,7.8598,7.8164,7.7424,7.6589,7.5791,7.5242,6.4967,6.4996,6.4967,6.4909,6.4938,6.4938,6.4938,6.4996,6.4996,6.4996,6.4996,6.4996,6.4996,6.4996,6.4996,6.4996,6.4996,6.4996,6.4996,6.4996,6.4996,6.4996,6.4996,6.4996,6.4996,6.4996,6.4996,6.4996,6.4996,6.4996,6.4996,6.4996,6.4996,6.4996,6.488,6.4967,6.488,6.4822,6.4851,6.4883,6.4851,6.4912,6.488,6.4883,6.5044,6.5553,6.6363,6.6883,6.6613,6.5856,6.7579,6.8752,6.9209,7.0873,7.1864,7.1922,7.2854,7.3342,7.3679,7.3782,7.4016,7.4311,7.4403,7.4561,7.519,7.5389,7.5628,7.6291,7.639,7.6424,7.6497,7.6622,7.6523,7.6483,7.617,7.614,7.652,7.5768,7.5801,7.6314,7.5786,7.5392,7.7,7.5534,7.5964,7.7041,7.7123,7.672,7.6914,7.7024,7.7248,7.7643,7.8097,7.8531,7.9443,7.9632,8.0209,8.0209,8.0209,8.0209,8.0209,8.0209,8.0209,8.0209,8.0209,8.0209,8.0158,7.9896,7.9845,7.9606,7.9158,7.8704,7.7785,7.6677,7.5765,6.4996,6.4996,6.4996,6.4996,6.4996,6.4996,6.4996,6.4996,6.4996,6.4996,6.4996,6.4996,6.4996,6.4996,6.4996,6.4996,6.4996,6.4996,6.4996,6.4996,6.4996,6.4996,6.4996,6.4996,6.4996,6.4996,6.4996,6.4996,6.4996,6.4996,6.4996,6.4996,6.4996,6.5028,6.4996,6.506,6.4996,6.4996,6.4996,6.4996,6.4996,6.4996,6.4996,6.5063,6.5886,6.651,6.7154,6.8911,6.9708,6.9282,6.9836,7.0831,7.1584,7.2444,7.2965,7.3211,7.3478,7.3789,7.4052,7.4103,7.4385,7.4933,7.5025,7.5323,7.596,7.6026,7.639,7.692,7.7093,7.7292,7.7755,7.7848,7.7927,7.7979,7.6808,7.5995,7.613,7.5787,7.6061,7.7193,7.6954,7.7212,7.7561,7.763,7.7424,7.8331,7.837,7.8122,7.8444,7.8551,7.8471,7.9158,7.9598,7.976,7.9998,8.0074,8.0209,8.0209,8.0209,8.0209,8.0209,8.0209,8.0209,8.0209,8.0209,8.0209,8.0209,8.0074,8.0209,8.0209,7.9528,7.8704,7.7594,7.6508,7.6024,6.4996,6.4996,6.4996,6.4996,6.4996,6.4996,6.4996,6.4996,6.4996,6.4996,6.4996,6.4996,6.4996,6.4996,6.4996,6.4996,6.4996,6.4996,6.4996,6.4996,6.4996,6.4996,6.4996,6.4996,6.4996,6.4996,6.4996,6.4996,6.4996,6.4996,6.4996,6.4996,6.4996,6.5253,6.5823,6.5222,6.5317,6.5603,6.5348,6.4996,6.4996,6.4996,6.4996,6.5285,6.6355,6.7457,6.8851,7.0874,7.1842,7.1679,7.1842,7.2331,7.2979,7.3377,7.3609,7.3797,7.3899,7.4151,7.4543,7.466,7.4991,7.5555,7.5728,7.6092,7.6589,7.6788,7.7086,7.7722,7.7848,7.8086,7.8312,7.8325,7.8126,7.7718,7.6681,7.6274,7.7228,7.6563,7.6845,7.7803,7.8179,7.7987,7.8451,7.8484,7.8644,7.8803,7.8777,7.9015,7.9433,7.9492,7.957,7.998,8.0158,8.0057,8.0107,8.0183,8.0209,8.0209,8.0209,8.0209,8.0209,8.0209,8.0209,8.0209,8.0209,8.0209,8.0209,8.0209,8.0209,7.9972,7.9373,7.8757,7.7785,7.7097,7.6504,6.4996,6.4996,6.4996,6.4996,6.4996,6.4996,6.4996,6.4996,6.4996,6.4996,6.4996,6.4996,6.4996,6.4996,6.4996,6.4996,6.4996,6.4996,6.4996,6.4996,6.4996,6.4996,6.4996,6.4996,6.4996,6.4996,6.4996,6.4996,6.4996,6.4996,6.4996,6.4996,6.4996,6.557,6.5948,6.5475,6.5666,6.6073,6.5443,6.5222,6.538,6.5477,6.5666,6.62,6.7427,6.9257,7.1095,7.2624,7.3136,7.2985,7.3214,7.3259,7.3396,7.3661,7.3848,7.3965,7.421,7.466,7.5208,7.54,7.5772,7.6369,7.6502,7.6755,7.7351,7.7523,7.7755,7.8285,7.8484,7.8411,7.8319,7.8012,7.7663,7.714,7.6416,7.7162,7.8563,7.7699,7.7122,7.8964,7.8803,7.8537,7.8484,7.8511,7.8617,7.8988,7.8988,7.9224,7.9562,7.9673,7.9801,8.0107,8.0133,8.0006,8.0082,8.0209,8.0209,8.0209,8.0209,8.0209,8.0209,8.0209,8.0209,8.0209,8.0209,8.0209,8.0209,8.0209,8.0209,7.9947,7.9477,7.9079,7.8571,7.8056,7.7511,6.4996,6.4996,6.4996,6.4996,6.4996,6.4996,6.4996,6.4996,6.4996,6.4996,6.4996,6.4996,6.4996,6.4996,6.4996,6.4996,6.4996,6.4996,6.4996,6.4996,6.4996,6.4996,6.4996,6.4996,6.4996,6.4996,6.4996,6.5028,6.506,6.5158,6.506,6.5126,6.538,6.519,6.554,6.554,6.5094,6.5348,6.5158,6.5572,6.6356,6.6664,6.7185,6.8175,6.9659,7.1205,7.2571,7.3396,7.3635,7.3635,7.3668,7.3785,7.3837,7.4009,7.4169,7.4393,7.4775,7.5259,7.5637,7.6195,7.6793,7.74,7.754,7.7754,7.8179,7.8219,7.8285,7.8484,7.8484,7.8359,7.8046,7.7884,7.7551,7.7111,7.6375,7.6542,7.8127,7.7561,7.7444,7.8443,7.8724,7.8484,7.8484,7.8511,7.8724,7.9127,7.9277,7.9355,7.9536,7.9801,7.998,8.0209,8.0183,8.0082,8.0133,8.0209,8.0209,8.0209,8.0209,8.0209,8.0209,8.0209,8.0209,8.0209,8.0209,8.0209,8.0209,8.0209,8.0209,7.9896,7.9606,7.921,7.8862,7.8624,7.8624,6.4996,6.4996,6.4996,6.4996,6.4996,6.4996,6.4996,6.4996,6.4996,6.4996,6.4996,6.4996,6.4996,6.4996,6.4996,6.4996,6.4996,6.4996,6.4996,6.4996,6.4996,6.4996,6.4996,6.4996,6.4996,6.5028,6.4996,6.5253,6.5729,6.5948,6.6293,6.6696,6.6695,6.7336,6.7215,6.648,6.6449,6.6695,6.5761,6.5917,6.7124,6.7457,6.8646,7.0114,7.1315,7.2293,7.3602,7.3892,7.4001,7.4067,7.4298,7.4497,7.4522,7.465,7.4833,7.5257,7.5676,7.6251,7.6704,7.7199,7.7759,7.8303,7.8369,7.8385,7.8465,7.8484,7.8484,7.8484,7.8444,7.8319,7.7851,7.772,7.7539,7.691,7.6031,7.6191,7.7329,7.7099,7.7148,7.8338,7.8671,7.8537,7.8511,7.8591,7.8856,7.9258,7.9544,7.9614,7.9819,8.0057,8.0057,8.0183,8.0209,8.0183,8.0183,8.0209,8.0209,8.0209,8.0209,8.0209,8.0209,8.0209,8.0209,8.0209,8.0209,8.0209,8.0209,8.0209,8.0209,8.0048,7.9819,7.9425,7.9262,7.9399,7.9451,6.4996,6.4996,6.4996,6.4996,6.4996,6.4996,6.4996,6.4996,6.4996,6.4996,6.4996,6.4996,6.4996,6.4996,6.4996,6.4996,6.4996,6.4996,6.4996,6.4996,6.4996,6.5222,6.538,6.5507,6.5666,6.5477,6.5158,6.5635,6.6509,6.6971,6.7215,6.8353,6.8587,6.8677,6.9288,6.85,6.7728,6.8382,6.7306,6.7185,6.8382,6.8705,6.997,7.1751,7.2346,7.2907,7.3884,7.4146,7.4171,7.4229,7.4892,7.529,7.5455,7.5489,7.568,7.631,7.6701,7.7163,7.7666,7.8162,7.8589,7.8902,7.8876,7.8744,7.8564,7.8484,7.8484,7.8511,7.8498,7.8325,7.7789,7.7639,7.7169,7.6411,7.55,7.5696,7.6475,7.6561,7.7203,7.8325,7.8644,7.8537,7.8617,7.875,7.9067,7.9388,7.9647,7.9878,8.0107,8.0209,8.0183,8.0183,8.0209,8.0209,8.0209,8.0209,8.0209,8.0209,8.0209,8.0209,8.0209,8.0209,8.0209,8.0209,8.0209,8.0209,8.0209,8.0209,8.0209,8.0209,8.0074,7.9819,7.9921,8.0183,8.0099,6.4996,6.4996,6.4996,6.4996,6.4996,6.4996,6.4996,6.4996,6.4996,6.4996,6.4996,6.4996,6.4996,6.4996,6.4996,6.4996,6.4996,6.4996,6.4996,6.5028,6.5126,6.5509,6.6262,6.6541,6.7002,6.7276,6.6418,6.6013,6.6879,6.6971,6.7997,6.8618,6.8938,6.9228,6.9404,6.8823,6.8969,6.9461,6.888,6.9255,7.0312,7.1008,7.1723,7.3466,7.3544,7.3807,7.4011,7.4196,7.4196,7.4262,7.4925,7.5555,7.6052,7.6184,7.6454,7.6842,7.7463,7.8018,7.8314,7.886,7.8998,7.8955,7.8876,7.8777,7.8564,7.8484,7.8484,7.8564,7.8591,7.8396,7.7352,7.7405,7.6972,7.6111,7.5512,7.5386,7.604,7.6438,7.6933,7.8239,7.8458,7.8617,7.8803,7.9015,7.9251,7.9544,7.9776,7.998,8.0158,8.0209,8.0209,8.0209,8.0209,8.0209,8.0209,8.0209,8.0209,8.0209,8.0209,8.0209,8.0209,8.0209,8.0209,8.0209,8.0209,8.0209,8.0209,8.0209,8.0209,8.0209,8.0209,8.0209,8.0209,8.0209,8.0209,6.4996,6.4996,6.4996,6.4996,6.4996,6.4996,6.4996,6.4996,6.4996,6.4996,6.4996,6.4996,6.4996,6.4996,6.4996,6.4996,6.4996,6.4996,6.4996,6.5092,6.5666,6.6231,6.7062,6.7487,6.8086,6.8294,6.7487,6.7517,6.8706,6.8882,6.9404,7.0459,7.0795,7.0878,7.0735,7.0596,7.0512,7.0512,7.0287,7.0592,7.1918,7.2617,7.3569,7.3935,7.4196,7.4196,7.4196,7.4196,7.4395,7.4826,7.5455,7.6203,7.6878,7.7421,7.768,7.7929,7.8463,7.8827,7.8904,7.9324,7.9381,7.8955,7.8876,7.8777,7.8591,7.8484,7.8484,7.8491,7.841,7.8137,7.7228,7.7227,7.669,7.5952,7.5407,7.5476,7.5915,7.6424,7.7211,7.8086,7.8511,7.8843,7.912,7.9303,7.9544,7.9724,7.9904,8.0057,8.0209,8.0209,8.0209,8.0209,8.0209,8.0209,8.0209,8.0209,8.0209,8.0209,8.0209,8.0209,8.0209,8.0209,8.0209,8.0209,8.0209,8.0209,8.0209,8.0209,8.0209,8.0209,8.0209,8.0209,8.0209,8.0209,8.0107,6.4996,6.4996,6.4996,6.4996,6.4996,6.4996,6.4996,6.4996,6.4996,6.4996,6.506,6.5253,6.5285,6.5126,6.5253,6.5317,6.5126,6.5383,6.5635,6.5348,6.6572,6.7276,6.7608,6.8412,6.9346,6.9833,6.9633,6.9833,7.0089,7.029,7.1241,7.1987,7.2688,7.2926,7.2629,7.2138,7.2197,7.1982,7.1597,7.1701,7.2729,7.3621,7.4196,7.4196,7.4196,7.4196,7.4196,7.4428,7.4726,7.5349,7.6129,7.7004,7.7844,7.8641,7.906,7.9146,7.9484,7.9544,7.9484,7.9407,7.9251,7.883,7.883,7.8697,7.8564,7.8484,7.8444,7.8325,7.8288,7.7797,7.6969,7.6889,7.6516,7.5898,7.5504,7.5463,7.5921,7.645,7.7177,7.7944,7.856,7.9065,7.9433,7.9544,7.9699,7.9878,8.0057,8.0082,8.0209,8.0209,8.0209,8.0209,8.0209,8.0209,8.0209,8.0209,8.0209,8.0209,8.0209,8.0209,8.0209,8.0209,8.0209,8.0209,8.0209,8.0209,8.0209,8.0209,8.0209,8.0209,8.0209,8.0073,7.9837,7.9701,7.96,6.4996,6.4996,6.4996,6.4996,6.4996,6.4996,6.4996,6.4996,6.5092,6.4996,6.5253,6.6106,6.6106,6.5635,6.6231,6.598,6.595,6.6727,6.6819,6.595,6.7487,6.853,6.8706,6.9805,7.085,7.1438,7.1738,7.1411,7.1104,7.085,7.1434,7.2609,7.2959,7.3037,7.324,7.3266,7.3558,7.3558,7.3577,7.3646,7.3859,7.4095,7.4171,7.4196,7.4196,7.4262,7.4362,7.476,7.5223,7.5581,7.6916,7.7677,7.8081,7.9064,7.958,7.9647,7.957,7.9414,7.9362,7.9198,7.8988,7.8671,7.8591,7.8537,7.8411,7.8318,7.8119,7.755,7.7789,7.7496,7.6592,7.661,7.6348,7.5976,7.5518,7.5383,7.5631,7.6783,7.7481,7.8018,7.8713,7.9319,7.9776,7.9801,7.9878,8.0057,8.0183,8.0209,8.0209,8.0209,8.0209,8.0209,8.0209,8.0209,8.0209,8.0209,8.0209,8.0209,8.0209,8.0209,8.0209,8.0209,8.0209,8.0209,8.0209,8.0209,8.0209,8.0209,8.0209,8.0141,8.004,7.9701,7.927,7.9194,7.9058,6.4996,6.4996,6.4996,6.4996,6.4996,6.4996,6.4996,6.5158,6.5761,6.6075,6.6324,6.7366,6.7578,6.7185,6.7124,6.7032,6.7124,6.7578,6.7638,6.7457,6.8763,6.9748,7.0118,7.1186,7.231,7.2556,7.2847,7.2682,7.2138,7.2009,7.2417,7.2979,7.3325,7.348,7.3609,7.3866,7.3968,7.4019,7.4095,7.4171,7.4196,7.4196,7.4196,7.4196,7.4196,7.4428,7.4793,7.5058,7.5761,7.6343,7.754,7.8207,7.8671,7.9273,7.9596,7.975,7.9329,7.9198,7.931,7.9067,7.8777,7.8591,7.8451,7.8318,7.802,7.7821,7.7557,7.6854,7.676,7.6474,7.6073,7.5992,7.5889,7.5691,7.5566,7.5537,7.5768,7.6929,7.7848,7.8379,7.8884,7.9483,7.998,8.0006,8.0031,8.0107,8.0183,8.0209,8.0209,8.0209,8.0209,8.0209,8.0209,8.0209,8.0209,8.0209,8.0209,8.0209,8.0209,8.0209,8.0209,8.0209,8.0209,8.0209,8.0209,8.0209,8.0209,8.0175,8.0175,8.0006,7.9837,7.9363,7.8864,7.8483,7.8382,6.4996,6.4996,6.4996,6.4996,6.4996,6.4996,6.5222,6.5603,6.6447,6.7062,6.7548,6.8294,6.8823,6.8882,6.8056,6.7818,6.8529,6.7728,6.7997,6.8969,6.9976,7.0627,7.1127,7.217,7.2926,7.3005,7.3136,7.3214,7.3266,7.3214,7.3136,7.3422,7.3609,7.3789,7.3917,7.4044,7.4171,7.4171,7.4171,7.4196,7.4196,7.4196,7.4196,7.4262,7.4428,7.4726,7.5223,7.582,7.6556,7.7269,7.807,7.8704,7.9228,7.9459,7.957,7.9596,7.9198,7.9041,7.9067,7.8936,7.8724,7.8558,7.8279,7.7921,7.7557,7.7292,7.6854,7.6125,7.6087,7.594,7.5705,7.5531,7.5629,7.5695,7.5652,7.5667,7.5908,7.7162,7.8157,7.8706,7.9238,7.9795,8.0158,8.0183,8.0183,8.0209,8.0209,8.0209,8.0209,8.0209,8.0209,8.0209,8.0209,8.0209,8.0209,8.0209,8.0209,8.0209,8.0209,8.0209,8.0209,8.0209,8.0209,8.0209,8.0209,8.0209,8.0209,8.0175,8.0107,7.9676,7.9279,7.8898,7.8483,7.7976,7.7671,6.4996,6.4996,6.5028,6.5028,6.5028,6.4996,6.5698,6.6603,6.691,6.7758,6.8735,6.8851,6.9662,6.9919,6.9288,6.8705,6.8851,6.8646,6.9054,6.9659,7.0343,7.1237,7.1928,7.2688,7.3358,7.339,7.3586,7.3715,7.372,7.3778,7.372,7.3797,7.3815,7.3968,7.407,7.4171,7.4196,7.4196,7.4196,7.4196,7.4196,7.4196,7.4229,7.4395,7.4826,7.5257,7.5389,7.645,7.7317,7.7925,7.8652,7.9076,7.9381,7.9492,7.9518,7.9195,7.8867,7.8709,7.8683,7.8684,7.8564,7.8345,7.7954,7.755,7.7219,7.6689,7.6092,7.5514,7.5513,7.5547,7.5426,7.5383,7.5566,7.5719,7.5879,7.6169,7.656,7.7463,7.8366,7.9,7.9541,8.004,8.0209,8.0209,8.0209,8.0209,8.0209,8.0209,8.0209,8.0209,8.0209,8.0209,8.0209,8.0209,8.0209,8.0209,8.0209,8.0209,8.0209,8.0209,8.0209,8.0209,8.0209,8.0209,8.0209,8.0209,8.0141,8.0006,7.971,7.9119,7.8679,7.8323,7.7638,7.6893,7.6792,6.4996,6.5092,6.5823,6.5729,6.5092,6.5855,6.6447,6.7154,6.85,6.9893,7.0965,7.1076,7.1269,7.1269,7.0571,7.0459,7.1044,7.0371,7.0791,7.1506,7.2272,7.2491,7.3017,7.3554,7.4208,7.426,7.4423,7.4577,7.4713,7.4316,7.411,7.4044,7.3993,7.407,7.4171,7.4196,7.4196,7.4196,7.4196,7.4196,7.4196,7.4229,7.4428,7.4925,7.5025,7.5827,7.6549,7.7269,7.7932,7.8488,7.9091,7.9303,7.9303,7.9329,7.899,7.856,7.8198,7.8059,7.814,7.8266,7.8484,7.8351,7.7821,7.7225,7.6854,7.6092,7.5389,7.5019,7.4989,7.5088,7.5176,7.5286,7.547,7.5739,7.6149,7.6589,7.7232,7.8044,7.8653,7.927,7.9701,8.0141,8.0209,8.0209,8.0209,8.0209,8.0209,8.0209,8.0209,8.0209,8.0209,8.0209,8.0209,8.0209,8.0209,8.0209,8.0209,8.0209,8.0209,8.0209,8.0209,8.0209,8.0209,8.0209,8.0175,8.0141,8.0006,7.9769,7.9338,7.8815,7.8265,7.7739,7.6893,7.598,7.6082,6.4996,6.5158,6.6386,6.6417,6.5792,6.688,6.7668,6.8295,6.9776,7.1328,7.2508,7.2508,7.2562,7.2262,7.1324,7.1543,7.1977,7.1456,7.1972,7.2582,7.3142,7.3502,7.4058,7.4686,7.5219,7.5304,7.5407,7.5562,7.5165,7.476,7.4436,7.427,7.4196,7.4196,7.4196,7.4196,7.4196,7.4196,7.4196,7.4362,7.4461,7.4594,7.4925,7.5529,7.586,7.6494,7.731,7.7965,7.8462,7.8893,7.9224,7.9277,7.9131,7.8834,7.8343,7.7846,7.735,7.7086,7.7258,7.7921,7.8451,7.8384,7.7821,7.7093,7.639,7.5662,7.5091,7.442,7.4564,7.4896,7.5252,7.5714,7.6227,7.669,7.6927,7.7367,7.7874,7.8585,7.9025,7.9507,7.9904,8.0209,8.0209,8.0209,8.0209,8.0209,8.0209,8.0209,8.0209,8.0209,8.0209,8.0209,8.0209,8.0209,8.0209,8.0209,8.0209,8.0209,8.0209,8.0209,8.0209,8.0209,8.0209,8.0209,8.0175,8.0107,7.9837,7.9464,7.9034,7.8535,7.7782,7.6893,7.6555,7.5777,7.5743,6.5031,6.5158,6.6449,6.7001,6.7123,6.8175,6.9288,7.0061,7.0599,7.1438,7.2449,7.2562,7.2694,7.2609,7.1706,7.2138,7.2656,7.1319,7.1548,7.3449,7.3887,7.4163,7.4996,7.5783,7.6187,7.6265,7.6291,7.6026,7.5522,7.5356,7.4958,7.4594,7.4594,7.4428,7.4262,7.4196,7.4196,7.4229,7.4329,7.476,7.5175,7.5315,7.5654,7.6336,7.6722,7.729,7.7932,7.8496,7.896,7.9251,7.9336,7.9284,7.8981,7.8336,7.7813,7.7371,7.6682,7.639,7.6457,7.7749,7.8285,7.8384,7.7821,7.7126,7.6424,7.5728,7.5282,7.4894,7.5014,7.5488,7.6004,7.6552,7.711,7.7444,7.7705,7.8077,7.8551,7.9058,7.9532,7.9769,7.9972,8.0209,8.0209,8.0209,8.0209,8.0209,8.0209,8.0209,8.0209,8.0209,8.0209,8.0209,8.0209,8.0209,8.0209,8.0209,8.0209,8.0209,8.0209,8.0209,8.0209,8.0209,8.0209,8.0209,8.0175,8.0107,7.9634,7.9126,7.8459,7.7715,7.6734,7.598,7.5743,7.5676,7.5676,6.6262,6.6447,6.8471,6.9346,6.9404,6.9776,7.0231,7.0683,7.1466,7.2235,7.2694,7.2774,7.29,7.2893,7.2932,7.2959,7.3338,7.3881,7.4163,7.458,7.4911,7.5411,7.6114,7.6622,7.702,7.7053,7.702,7.6927,7.6755,7.6225,7.5894,7.5628,7.5363,7.533,7.5058,7.4991,7.5091,7.5496,7.5654,7.5838,7.6218,7.6155,7.6428,7.7255,7.743,7.7781,7.841,7.8941,7.9198,7.9336,7.9362,7.9206,7.8776,7.8105,7.7317,7.6748,7.6059,7.5894,7.6324,7.7258,7.7987,7.8053,7.7888,7.7358,7.6987,7.6357,7.5997,7.5936,7.6065,7.655,7.7102,7.7383,7.7782,7.7942,7.8213,7.8619,7.9092,7.96,8.0006,8.004,8.0209,8.0209,8.0209,8.0209,8.0209,8.0209,8.0209,8.0209,8.0209,8.0209,8.0209,8.0209,8.0209,8.0209,8.0209,8.0209,8.0209,8.0209,8.0209,8.0209,8.0209,8.0209,8.0209,8.0209,8.0175,8.0107,7.9464,7.8754,7.7671,7.6758,7.6048,7.5709,7.5709,7.5676,7.5676,6.691,6.7184,6.9579,7.0599,7.0655,7.1048,7.1296,7.158,7.2542,7.3185,7.3435,7.3677,7.3999,7.4183,7.4222,7.4352,7.4684,7.5047,7.5337,7.5728,7.6331,7.657,7.6868,7.7384,7.7749,7.7782,7.7722,7.7656,7.7258,7.6861,7.6497,7.6258,7.6324,7.6192,7.596,7.596,7.5794,7.6118,7.6262,7.6616,7.696,7.7108,7.7314,7.7846,7.8093,7.812,7.8716,7.9067,7.9232,7.9258,7.9172,7.9067,7.8597,7.7827,7.7025,7.6388,7.5624,7.5599,7.6218,7.6622,7.7424,7.8351,7.7954,7.7689,7.7477,7.7058,7.6823,7.683,7.7228,7.759,7.7942,7.8191,7.8459,7.8653,7.8957,7.9397,7.9532,8.004,8.0141,8.0175,8.0209,8.0209,8.0209,8.0209,8.0209,8.0209,8.0209,8.0209,8.0209,8.0209,8.0209,8.0209,8.0209,8.0209,8.0209,8.0209,8.0209,8.0209,8.0209,8.0209,8.0209,8.0209,8.0209,8.0209,8.0175,7.9938,7.9194,7.8348,7.7299,7.6521,7.5912,7.5676,7.5676,7.5676,7.5676,6.6971,6.7306,6.9605,7.0711,7.091,7.1998,7.2653,7.2983,7.3714,7.4194,7.4491,7.5114,7.5371,7.5714,7.58,7.5865,7.6055,7.6173,7.6298,7.653,7.7093,7.7292,7.7623,7.802,7.8219,7.8384,7.8351,7.802,7.7523,7.7457,7.7093,7.6696,7.6788,7.6954,7.702,7.694,7.6708,7.6918,7.7089,7.7563,7.7933,7.7929,7.8203,7.8517,7.8558,7.8564,7.883,7.8962,7.8962,7.8962,7.8936,7.8777,7.8266,7.7414,7.6967,7.6353,7.5413,7.576,7.6251,7.6622,7.7225,7.8285,7.8418,7.8053,7.7828,7.7754,7.7703,7.7669,7.7908,7.8287,7.8657,7.901,7.9363,7.96,7.9904,8.004,8.0073,8.0175,8.0175,8.0209,8.0209,8.0209,8.0209,8.0209,8.0209,8.0209,8.0209,8.0209,8.0209,8.0209,8.0209,8.0209,8.0209,8.0209,8.0209,8.0209,8.0209,8.0209,8.0209,8.0209,8.0209,8.0209,8.0209,8.0209,8.0209,7.9769,7.8822,7.7908,7.6961,7.6284,7.5777,7.5676,7.5676,7.5676,7.5676,6.8175,6.8471,7.091,7.196,7.2106,7.3101,7.3628,7.38,7.4672,7.5206,7.547,7.5668,7.6063,7.6161,7.6161,7.6279,7.6504,7.6762,7.6994,7.7325,7.7755,7.8053,7.8219,7.8351,7.8484,7.8484,7.8451,7.8384,7.8219,7.8119,7.8086,7.7947,7.7656,7.7947,7.8034,7.8166,7.8026,7.8005,7.8077,7.8478,7.8756,7.8693,7.8927,7.8981,7.873,7.8697,7.8803,7.885,7.885,7.8883,7.8876,7.883,7.8757,7.7984,7.7437,7.6804,7.6412,7.6502,7.694,7.7086,7.7517,7.8219,7.8511,7.8584,7.8485,7.8476,7.8586,7.8603,7.8699,7.9112,7.9365,7.966,7.9837,8.0006,8.0209,8.0209,8.0209,8.0209,8.0209,8.0209,8.0209,8.0209,8.0209,8.0209,8.0209,8.0209,8.0209,8.0209,8.0209,8.0209,8.0209,8.0209,8.0209,8.0209,8.0209,8.0209,8.0209,8.0209,8.0209,8.0209,8.0209,8.0209,8.0209,8.0209,8.0209,7.9397,7.8314,7.7536,7.713,7.6251,7.5743,7.5709,7.5676,7.5676,7.5676,6.8967,6.9751,7.195,7.3139,7.3663,7.4609,7.5091,7.529,7.5817,7.6254,7.6525,7.6849,7.6994,7.7199,7.7258,7.7258,7.7292,7.7623,7.7821,7.7954,7.8285,7.8384,7.8484,7.8484,7.8484,7.8484,7.8484,7.8451,7.8484,7.8484,7.8451,7.8418,7.8484,7.8484,7.8471,7.8485,7.8677,7.8809,7.9001,7.9303,7.9303,7.9172,7.912,7.9074,7.8697,7.8671,7.8724,7.875,7.875,7.8777,7.8803,7.8876,7.8829,7.8315,7.7718,7.7117,7.6763,7.6875,7.7205,7.7325,7.7821,7.8305,7.8617,7.883,7.8988,7.9046,7.928,7.9471,7.9718,7.9964,8.0099,8.0209,8.0175,8.0209,8.0209,8.0209,8.0209,8.0209,8.0209,8.0209,8.0209,8.0209,8.0209,8.0209,8.0209,8.0209,8.0209,8.0209,8.0209,8.0209,8.0209,8.0209,8.0209,8.0209,8.0209,8.0209,8.0209,8.0209,8.0209,8.0209,8.0209,8.0209,8.0209,8.0209,8.0209,7.9363,7.8551,7.8077,7.757,7.6657,7.5845,7.5709,7.5676,7.5676,7.5676,6.9554,7.0813,7.2883,7.4307,7.5321,7.6147,7.6712,7.7085,7.7112,7.7245,7.7563,7.8153,7.8291,7.8153,7.8153,7.8186,7.8153,7.8285,7.8285,7.8451,7.8451,7.8484,7.8484,7.8484,7.8484,7.8484,7.8484,7.8484,7.8484,7.8484,7.8484,7.8484,7.8484,7.8484,7.8511,7.8617,7.8777,7.8909,7.9094,7.9277,7.9251,7.912,7.8876,7.885,7.8671,7.8511,7.8511,7.8511,7.8484,7.8591,7.8724,7.8876,7.8886,7.8716,7.8082,7.7687,7.7407,7.7381,7.7622,7.7735,7.8,7.8445,7.8777,7.9094,7.931,7.9414,7.9621,7.9853,8.0031,8.0074,8.0183,8.0209,8.0209,8.0209,8.0209,8.0209,8.0209,8.0209,8.0209,8.0209,8.0209,8.0209,8.0209,8.0209,8.0209,8.0209,8.0209,8.0209,8.0209,8.0209,8.0209,8.0209,8.0209,8.0209,8.0209,8.0209,8.0209,8.0209,8.0209,8.0209,8.0209,8.0209,8.0209,8.0209,8.0175,7.9769,7.9126,7.8483,7.7773,7.6961,7.6251,7.5811,7.5676,7.5676,7.5676,7.0268,7.1654,7.3844,7.5435,7.6482,7.6786,7.7402,7.8139,7.8139,7.8132,7.8252,7.8384,7.8484,7.8484,7.8484,7.8484,7.8484,7.8484,7.8484,7.8484,7.8484,7.8484,7.8484,7.8484,7.8484,7.8484,7.8484,7.8484,7.8484,7.8484,7.8484,7.8484,7.8484,7.8484,7.8511,7.8617,7.8803,7.8883,7.8962,7.912,7.9258,7.9067,7.8876,7.883,7.8644,7.8511,7.8484,7.8484,7.8484,7.8537,7.8777,7.912,7.9536,7.9412,7.9201,7.8886,7.8341,7.8212,7.8173,7.8272,7.8544,7.875,7.9094,7.9414,7.9596,7.9673,7.9801,8.0006,8.0133,8.0183,8.0209,8.0209,8.0209,8.0209,8.0209,8.0209,8.0209,8.0209,8.0209,8.0209,8.0209,8.0209,8.0209,8.0209,8.0209,8.0209,8.0209,8.0209,8.0209,8.0209,8.0209,8.0209,8.0209,8.0209,8.0209,8.0209,8.0209,8.0209,8.0209,8.0209,8.0209,8.0209,8.0209,8.0209,8.0107,7.9803,7.9329,7.8517,7.7807,7.7164,7.6521,7.6014,7.5743,7.5676,7.5676,7.1053,7.3088,7.483,7.6316,7.7361,7.748,7.7879,7.8424,7.8484,7.8484,7.8484,7.8484,7.8484,7.8484,7.8484,7.8484,7.8484,7.8484,7.8484,7.8484,7.8484,7.8484,7.8484,7.8484,7.8484,7.8484,7.8484,7.8484,7.8484,7.8484,7.8484,7.8484,7.8484,7.8484,7.8511,7.8671,7.875,7.8724,7.875,7.8856,7.9048,7.883,7.8724,7.8644,7.8591,7.8484,7.8484,7.8511,7.8564,7.8724,7.8988,7.9303,7.957,7.9425,7.9269,7.9086,7.8809,7.8697,7.8724,7.883,7.9015,7.9146,7.9381,7.9699,7.975,7.9827,7.998,8.0158,8.0183,8.0209,8.0209,8.0209,8.0209,8.0209,8.0209,8.0209,8.0209,8.0209,8.0209,8.0209,8.0209,8.0209,8.0209,8.0209,8.0209,8.0209,8.0209,8.0209,8.0209,8.0209,8.0209,8.0209,8.0209,8.0209,8.0209,8.0209,8.0209,8.0209,8.0209,8.0209,8.0209,8.0209,8.0209,8.0209,8.0175,8.004,7.9498,7.8822,7.8213,7.7671,7.6927,7.6183,7.5946,7.5676,7.5676,7.2021,7.4932,7.5994,7.702,7.8041,7.8161,7.8296,7.8457,7.8484,7.8484,7.8484,7.8484,7.8484,7.8484,7.8484,7.8484,7.8484,7.8484,7.8484,7.8484,7.8484,7.8484,7.8484,7.8484,7.8484,7.8484,7.8484,7.8484,7.8484,7.8484,7.8484,7.8484,7.8484,7.8484,7.8484,7.8484,7.8537,7.8537,7.8537,7.8511,7.8511,7.8484,7.8511,7.8511,7.8484,7.8484,7.8484,7.8564,7.8697,7.8883,7.9179,7.9414,7.9466,7.9277,7.9094,7.8909,7.883,7.8777,7.8856,7.9041,7.9198,7.944,7.9699,7.9853,7.9896,8.0006,8.0158,8.0209,8.0209,8.0209,8.0209,8.0209,8.0209,8.0209,8.0209,8.0209,8.0209,8.0209,8.0209,8.0209,8.0209,8.0209,8.0209,8.0209,8.0209,8.0209,8.0209,8.0209,8.0209,8.0209,8.0209,8.0209,8.0209,8.0209,8.0209,8.0209,8.0209,8.0209,8.0209,8.0209,8.0209,8.0209,8.0209,8.0209,8.0141,8.0107,7.987,7.9329,7.8754,7.8068,7.7232,7.642,7.5912,7.5676,7.5676,7.3606,7.7079,7.7544,7.7975,7.8376,7.8403,7.8457,7.8484,7.8484,7.8484,7.8484,7.8484,7.8484,7.8484,7.8484,7.8484,7.8484,7.8484,7.8484,7.8484,7.8484,7.8484,7.8484,7.8484,7.8484,7.8484,7.8484,7.8484,7.8484,7.8484,7.8484,7.8484,7.8511,7.8511,7.8484,7.8484,7.8511,7.8511,7.8484,7.8484,7.8484,7.8484,7.8484,7.8484,7.8484,7.8484,7.8537,7.8691,7.8797,7.8988,7.9179,7.9362,7.9336,7.9146,7.8962,7.8936,7.883,7.8936,7.9067,7.9329,7.957,7.9699,7.9929,8.0082,8.0107,8.0107,8.0209,8.0209,8.0209,8.0209,8.0209,8.0209,8.0209,8.0209,8.0209,8.0209,8.0209,8.0209,8.0209,8.0209,8.0209,8.0209,8.0209,8.0209,8.0209,8.0209,8.0209,8.0209,8.0209,8.0209,8.0209,8.0209,8.0209,8.0209,8.0209,8.0209,8.0209,8.0209,8.0209,8.0209,8.0209,8.0209,8.0209,8.0209,8.0209,8.0175,7.9904,7.9701,7.8923,7.8145,7.7401,7.6657,7.6048,7.5676,7.5676]}]]